<?xml version="1.0" encoding="UTF-8" standalone="no" ?>
<gpx xmlns="http://www.topografix.com/GPX/1/1" xmlns:xsi="http://www.w3.org/2001/XMLSchema-instance" xsi:schemaLocation="http://www.topografix.com/GPX/1/1 http://www.topografix.com/GPX/1/1/gpx.xsd" version="1.1" creator="VisuGPX - https://www.visugpx.com">
  <metadata>
    <name>Revel-vizille-murier-revel</name>
    <desc><![CDATA[File with points/tracks from Locus Map/3.47.2]]></desc>
  </metadata>
  <trk>
    <name><![CDATA[2020-08-16 10:10:28]]></name>
    <desc><![CDATA[Vizille]]></desc>
    <extensions>
      <line xmlns="http://www.topografix.com/GPX/gpx_style/0/2">
        <color>0000FF</color>
        <opacity>0.59</opacity>
        <width>6.0</width>
      </line>
    </extensions>
    <trkseg>
      <trkpt lat="45.18381" lon="5.87372">
        <ele>675.56</ele>
        <time>2020-08-16T08:10:29.000Z</time>
      </trkpt>
      <trkpt lat="45.18383" lon="5.87385">
        <ele>681.57</ele>
        <time>2020-08-16T08:11:38.000Z</time>
      </trkpt>
      <trkpt lat="45.18378" lon="5.87399">
        <ele>680.95</ele>
        <time>2020-08-16T08:11:43.000Z</time>
      </trkpt>
      <trkpt lat="45.18371" lon="5.87413">
        <ele>677.03</ele>
        <time>2020-08-16T08:11:48.000Z</time>
      </trkpt>
      <trkpt lat="45.18365" lon="5.8743">
        <ele>683.07</ele>
        <time>2020-08-16T08:11:53.000Z</time>
      </trkpt>
      <trkpt lat="45.18361" lon="5.87447">
        <ele>685.91</ele>
        <time>2020-08-16T08:11:58.000Z</time>
      </trkpt>
      <trkpt lat="45.18357" lon="5.87464">
        <ele>684.13</ele>
        <time>2020-08-16T08:12:03.000Z</time>
      </trkpt>
      <trkpt lat="45.18347" lon="5.87484">
        <ele>683.96</ele>
        <time>2020-08-16T08:12:08.000Z</time>
      </trkpt>
      <trkpt lat="45.18339" lon="5.87508">
        <ele>687.78</ele>
        <time>2020-08-16T08:12:13.000Z</time>
      </trkpt>
      <trkpt lat="45.18333" lon="5.87531">
        <ele>688.57</ele>
        <time>2020-08-16T08:12:18.000Z</time>
      </trkpt>
      <trkpt lat="45.18327" lon="5.87553">
        <ele>693.6</ele>
        <time>2020-08-16T08:12:23.000Z</time>
      </trkpt>
      <trkpt lat="45.18322" lon="5.87575">
        <ele>694.18</ele>
        <time>2020-08-16T08:12:28.000Z</time>
      </trkpt>
      <trkpt lat="45.18318" lon="5.87594">
        <ele>693.47</ele>
        <time>2020-08-16T08:12:33.000Z</time>
      </trkpt>
      <trkpt lat="45.1831" lon="5.87611">
        <ele>697.47</ele>
        <time>2020-08-16T08:12:38.000Z</time>
      </trkpt>
      <trkpt lat="45.18301" lon="5.87632">
        <ele>697.08</ele>
        <time>2020-08-16T08:12:43.000Z</time>
      </trkpt>
      <trkpt lat="45.18297" lon="5.87654">
        <ele>697.15</ele>
        <time>2020-08-16T08:12:48.000Z</time>
      </trkpt>
      <trkpt lat="45.18298" lon="5.87676">
        <ele>698.4</ele>
        <time>2020-08-16T08:12:53.000Z</time>
      </trkpt>
      <trkpt lat="45.18291" lon="5.87694">
        <ele>700.3</ele>
        <time>2020-08-16T08:12:58.000Z</time>
      </trkpt>
      <trkpt lat="45.18288" lon="5.87713">
        <ele>708.01</ele>
        <time>2020-08-16T08:13:03.000Z</time>
      </trkpt>
      <trkpt lat="45.18286" lon="5.87732">
        <ele>708.34</ele>
        <time>2020-08-16T08:13:08.000Z</time>
      </trkpt>
      <trkpt lat="45.18283" lon="5.87752">
        <ele>709.76</ele>
        <time>2020-08-16T08:13:13.000Z</time>
      </trkpt>
      <trkpt lat="45.18279" lon="5.87774">
        <ele>711.46</ele>
        <time>2020-08-16T08:13:18.000Z</time>
      </trkpt>
      <trkpt lat="45.18273" lon="5.87801">
        <ele>709.1</ele>
        <time>2020-08-16T08:13:23.000Z</time>
      </trkpt>
      <trkpt lat="45.18268" lon="5.87821">
        <ele>708.66</ele>
        <time>2020-08-16T08:13:28.000Z</time>
      </trkpt>
      <trkpt lat="45.18263" lon="5.87843">
        <ele>707.6</ele>
        <time>2020-08-16T08:13:33.000Z</time>
      </trkpt>
      <trkpt lat="45.1826" lon="5.87866">
        <ele>702.96</ele>
        <time>2020-08-16T08:13:38.000Z</time>
      </trkpt>
      <trkpt lat="45.18255" lon="5.8789">
        <ele>704.69</ele>
        <time>2020-08-16T08:13:43.000Z</time>
      </trkpt>
      <trkpt lat="45.18254" lon="5.87914">
        <ele>706.69</ele>
        <time>2020-08-16T08:13:48.000Z</time>
      </trkpt>
      <trkpt lat="45.18257" lon="5.87937">
        <ele>703.57</ele>
        <time>2020-08-16T08:13:53.000Z</time>
      </trkpt>
      <trkpt lat="45.1826" lon="5.87957">
        <ele>706.17</ele>
        <time>2020-08-16T08:13:58.000Z</time>
      </trkpt>
      <trkpt lat="45.18256" lon="5.87975">
        <ele>706.47</ele>
        <time>2020-08-16T08:14:03.000Z</time>
      </trkpt>
      <trkpt lat="45.1825" lon="5.87992">
        <ele>708.98</ele>
        <time>2020-08-16T08:14:08.000Z</time>
      </trkpt>
      <trkpt lat="45.18243" lon="5.88006">
        <ele>709.03</ele>
        <time>2020-08-16T08:14:13.000Z</time>
      </trkpt>
      <trkpt lat="45.18244" lon="5.88019">
        <ele>710.09</ele>
        <time>2020-08-16T08:14:22.000Z</time>
      </trkpt>
      <trkpt lat="45.18235" lon="5.88038">
        <ele>708.5</ele>
        <time>2020-08-16T08:14:27.000Z</time>
      </trkpt>
      <trkpt lat="45.18224" lon="5.8806">
        <ele>710.24</ele>
        <time>2020-08-16T08:14:32.000Z</time>
      </trkpt>
      <trkpt lat="45.18214" lon="5.88069">
        <ele>706.51</ele>
        <time>2020-08-16T08:14:37.000Z</time>
      </trkpt>
      <trkpt lat="45.18202" lon="5.88071">
        <ele>705.47</ele>
        <time>2020-08-16T08:14:42.000Z</time>
      </trkpt>
      <trkpt lat="45.18192" lon="5.88087">
        <ele>706.29</ele>
        <time>2020-08-16T08:14:47.000Z</time>
      </trkpt>
      <trkpt lat="45.18178" lon="5.88103">
        <ele>709.36</ele>
        <time>2020-08-16T08:14:52.000Z</time>
      </trkpt>
      <trkpt lat="45.18169" lon="5.88124">
        <ele>706.01</ele>
        <time>2020-08-16T08:14:57.000Z</time>
      </trkpt>
      <trkpt lat="45.18159" lon="5.88141">
        <ele>709.07</ele>
        <time>2020-08-16T08:15:02.000Z</time>
      </trkpt>
      <trkpt lat="45.18149" lon="5.88166">
        <ele>709.2</ele>
        <time>2020-08-16T08:15:07.000Z</time>
      </trkpt>
      <trkpt lat="45.18132" lon="5.88185">
        <ele>709.49</ele>
        <time>2020-08-16T08:15:12.000Z</time>
      </trkpt>
      <trkpt lat="45.18123" lon="5.88207">
        <ele>710.83</ele>
        <time>2020-08-16T08:15:17.000Z</time>
      </trkpt>
      <trkpt lat="45.18121" lon="5.88223">
        <ele>720.46</ele>
        <time>2020-08-16T08:15:22.000Z</time>
      </trkpt>
      <trkpt lat="45.18133" lon="5.88207">
        <ele>725.78</ele>
        <time>2020-08-16T08:15:27.000Z</time>
      </trkpt>
      <trkpt lat="45.18145" lon="5.88185">
        <ele>723.85</ele>
        <time>2020-08-16T08:15:32.000Z</time>
      </trkpt>
      <trkpt lat="45.18142" lon="5.88172">
        <ele>724.63</ele>
        <time>2020-08-16T08:15:38.000Z</time>
      </trkpt>
      <trkpt lat="45.18128" lon="5.88184">
        <ele>724.49</ele>
        <time>2020-08-16T08:15:43.000Z</time>
      </trkpt>
      <trkpt lat="45.18113" lon="5.88207">
        <ele>724.39</ele>
        <time>2020-08-16T08:15:48.000Z</time>
      </trkpt>
      <trkpt lat="45.18102" lon="5.8823">
        <ele>724.65</ele>
        <time>2020-08-16T08:15:53.000Z</time>
      </trkpt>
      <trkpt lat="45.18089" lon="5.88249">
        <ele>722.38</ele>
        <time>2020-08-16T08:15:58.000Z</time>
      </trkpt>
      <trkpt lat="45.18073" lon="5.88279">
        <ele>722.31</ele>
        <time>2020-08-16T08:16:03.000Z</time>
      </trkpt>
      <trkpt lat="45.1807" lon="5.88295">
        <ele>719.71</ele>
        <time>2020-08-16T08:16:09.000Z</time>
      </trkpt>
      <trkpt lat="45.18064" lon="5.88325">
        <ele>719.56</ele>
        <time>2020-08-16T08:16:14.000Z</time>
      </trkpt>
      <trkpt lat="45.18054" lon="5.88348">
        <ele>720.76</ele>
        <time>2020-08-16T08:16:19.000Z</time>
      </trkpt>
      <trkpt lat="45.18043" lon="5.88372">
        <ele>721.9</ele>
        <time>2020-08-16T08:16:24.000Z</time>
      </trkpt>
      <trkpt lat="45.1803" lon="5.88395">
        <ele>725.24</ele>
        <time>2020-08-16T08:16:29.000Z</time>
      </trkpt>
      <trkpt lat="45.18002" lon="5.88423">
        <ele>726.44</ele>
        <time>2020-08-16T08:16:34.000Z</time>
      </trkpt>
      <trkpt lat="45.17983" lon="5.88445">
        <ele>724.87</ele>
        <time>2020-08-16T08:16:39.000Z</time>
      </trkpt>
      <trkpt lat="45.17958" lon="5.8846">
        <ele>733.83</ele>
        <time>2020-08-16T08:16:44.000Z</time>
      </trkpt>
      <trkpt lat="45.17942" lon="5.88467">
        <ele>728.44</ele>
        <time>2020-08-16T08:16:49.000Z</time>
      </trkpt>
      <trkpt lat="45.17922" lon="5.88478">
        <ele>727.79</ele>
        <time>2020-08-16T08:16:54.000Z</time>
      </trkpt>
      <trkpt lat="45.17902" lon="5.88489">
        <ele>727.96</ele>
        <time>2020-08-16T08:16:59.000Z</time>
      </trkpt>
      <trkpt lat="45.1788" lon="5.88498">
        <ele>729.8</ele>
        <time>2020-08-16T08:17:04.000Z</time>
      </trkpt>
      <trkpt lat="45.17859" lon="5.88505">
        <ele>729.8</ele>
        <time>2020-08-16T08:17:09.000Z</time>
      </trkpt>
      <trkpt lat="45.17835" lon="5.88514">
        <ele>730.35</ele>
        <time>2020-08-16T08:17:14.000Z</time>
      </trkpt>
      <trkpt lat="45.17813" lon="5.88521">
        <ele>730.61</ele>
        <time>2020-08-16T08:17:19.000Z</time>
      </trkpt>
      <trkpt lat="45.17792" lon="5.88526">
        <ele>730.21</ele>
        <time>2020-08-16T08:17:24.000Z</time>
      </trkpt>
      <trkpt lat="45.17765" lon="5.8852">
        <ele>728.04</ele>
        <time>2020-08-16T08:17:29.000Z</time>
      </trkpt>
      <trkpt lat="45.17742" lon="5.88514">
        <ele>726.66</ele>
        <time>2020-08-16T08:17:34.000Z</time>
      </trkpt>
      <trkpt lat="45.17719" lon="5.88503">
        <ele>726.82</ele>
        <time>2020-08-16T08:17:39.000Z</time>
      </trkpt>
      <trkpt lat="45.17701" lon="5.88492">
        <ele>725.2</ele>
        <time>2020-08-16T08:17:44.000Z</time>
      </trkpt>
      <trkpt lat="45.17677" lon="5.88482">
        <ele>725.2</ele>
        <time>2020-08-16T08:17:49.000Z</time>
      </trkpt>
      <trkpt lat="45.17654" lon="5.88467">
        <ele>728.28</ele>
        <time>2020-08-16T08:17:54.000Z</time>
      </trkpt>
      <trkpt lat="45.17625" lon="5.88463">
        <ele>726.17</ele>
        <time>2020-08-16T08:17:59.000Z</time>
      </trkpt>
      <trkpt lat="45.17601" lon="5.88461">
        <ele>726.06</ele>
        <time>2020-08-16T08:18:04.000Z</time>
      </trkpt>
      <trkpt lat="45.17574" lon="5.88484">
        <ele>723.9</ele>
        <time>2020-08-16T08:18:09.000Z</time>
      </trkpt>
      <trkpt lat="45.1756" lon="5.88512">
        <ele>723.51</ele>
        <time>2020-08-16T08:18:14.000Z</time>
      </trkpt>
      <trkpt lat="45.17547" lon="5.88533">
        <ele>728.69</ele>
        <time>2020-08-16T08:18:19.000Z</time>
      </trkpt>
      <trkpt lat="45.17528" lon="5.88551">
        <ele>732.48</ele>
        <time>2020-08-16T08:18:24.000Z</time>
      </trkpt>
      <trkpt lat="45.17507" lon="5.88562">
        <ele>732.12</ele>
        <time>2020-08-16T08:18:29.000Z</time>
      </trkpt>
      <trkpt lat="45.17485" lon="5.88564">
        <ele>730.41</ele>
        <time>2020-08-16T08:18:34.000Z</time>
      </trkpt>
      <trkpt lat="45.1746" lon="5.88564">
        <ele>733.63</ele>
        <time>2020-08-16T08:18:39.000Z</time>
      </trkpt>
      <trkpt lat="45.17433" lon="5.88557">
        <ele>733.73</ele>
        <time>2020-08-16T08:18:44.000Z</time>
      </trkpt>
      <trkpt lat="45.17409" lon="5.88558">
        <ele>730.16</ele>
        <time>2020-08-16T08:18:49.000Z</time>
      </trkpt>
      <trkpt lat="45.17389" lon="5.88567">
        <ele>728.47</ele>
        <time>2020-08-16T08:18:54.000Z</time>
      </trkpt>
      <trkpt lat="45.17364" lon="5.88556">
        <ele>729.52</ele>
        <time>2020-08-16T08:18:59.000Z</time>
      </trkpt>
      <trkpt lat="45.1734" lon="5.88549">
        <ele>730.47</ele>
        <time>2020-08-16T08:19:04.000Z</time>
      </trkpt>
      <trkpt lat="45.17314" lon="5.88546">
        <ele>730.77</ele>
        <time>2020-08-16T08:19:09.000Z</time>
      </trkpt>
      <trkpt lat="45.1729" lon="5.88548">
        <ele>729.43</ele>
        <time>2020-08-16T08:19:14.000Z</time>
      </trkpt>
      <trkpt lat="45.17266" lon="5.88558">
        <ele>731.24</ele>
        <time>2020-08-16T08:19:19.000Z</time>
      </trkpt>
      <trkpt lat="45.17228" lon="5.88571">
        <ele>735.02</ele>
        <time>2020-08-16T08:19:24.000Z</time>
      </trkpt>
      <trkpt lat="45.17212" lon="5.88608">
        <ele>734.82</ele>
        <time>2020-08-16T08:19:31.000Z</time>
      </trkpt>
      <trkpt lat="45.17203" lon="5.88642">
        <ele>736.37</ele>
        <time>2020-08-16T08:19:36.000Z</time>
      </trkpt>
      <trkpt lat="45.17185" lon="5.88677">
        <ele>736.88</ele>
        <time>2020-08-16T08:19:41.000Z</time>
      </trkpt>
      <trkpt lat="45.17152" lon="5.88685">
        <ele>738.48</ele>
        <time>2020-08-16T08:19:46.000Z</time>
      </trkpt>
      <trkpt lat="45.17122" lon="5.88694">
        <ele>742.06</ele>
        <time>2020-08-16T08:19:51.000Z</time>
      </trkpt>
      <trkpt lat="45.17095" lon="5.88704">
        <ele>748.83</ele>
        <time>2020-08-16T08:19:56.000Z</time>
      </trkpt>
      <trkpt lat="45.17086" lon="5.8869">
        <ele>752.4</ele>
        <time>2020-08-16T08:20:01.000Z</time>
      </trkpt>
      <trkpt lat="45.17062" lon="5.88667">
        <ele>752.53</ele>
        <time>2020-08-16T08:20:06.000Z</time>
      </trkpt>
      <trkpt lat="45.17043" lon="5.88646">
        <ele>752.05</ele>
        <time>2020-08-16T08:20:11.000Z</time>
      </trkpt>
      <trkpt lat="45.17015" lon="5.8864">
        <ele>754.64</ele>
        <time>2020-08-16T08:20:16.000Z</time>
      </trkpt>
      <trkpt lat="45.16984" lon="5.88657">
        <ele>755.36</ele>
        <time>2020-08-16T08:20:21.000Z</time>
      </trkpt>
      <trkpt lat="45.16961" lon="5.88679">
        <ele>756.94</ele>
        <time>2020-08-16T08:20:26.000Z</time>
      </trkpt>
      <trkpt lat="45.16927" lon="5.88687">
        <ele>755.02</ele>
        <time>2020-08-16T08:20:31.000Z</time>
      </trkpt>
      <trkpt lat="45.16909" lon="5.88699">
        <ele>754.75</ele>
        <time>2020-08-16T08:20:36.000Z</time>
      </trkpt>
      <trkpt lat="45.1688" lon="5.88699">
        <ele>752.44</ele>
        <time>2020-08-16T08:20:41.000Z</time>
      </trkpt>
      <trkpt lat="45.16851" lon="5.8871">
        <ele>758.1</ele>
        <time>2020-08-16T08:20:46.000Z</time>
      </trkpt>
      <trkpt lat="45.16825" lon="5.88716">
        <ele>760.08</ele>
        <time>2020-08-16T08:20:51.000Z</time>
      </trkpt>
      <trkpt lat="45.16799" lon="5.88732">
        <ele>762.19</ele>
        <time>2020-08-16T08:20:56.000Z</time>
      </trkpt>
      <trkpt lat="45.16769" lon="5.88729">
        <ele>760.68</ele>
        <time>2020-08-16T08:21:01.000Z</time>
      </trkpt>
      <trkpt lat="45.16742" lon="5.88722">
        <ele>761.43</ele>
        <time>2020-08-16T08:21:06.000Z</time>
      </trkpt>
      <trkpt lat="45.16717" lon="5.88729">
        <ele>760</ele>
        <time>2020-08-16T08:21:11.000Z</time>
      </trkpt>
      <trkpt lat="45.16681" lon="5.88713">
        <ele>759.1</ele>
        <time>2020-08-16T08:21:16.000Z</time>
      </trkpt>
      <trkpt lat="45.16644" lon="5.88704">
        <ele>757.92</ele>
        <time>2020-08-16T08:21:21.000Z</time>
      </trkpt>
      <trkpt lat="45.16601" lon="5.88697">
        <ele>751.12</ele>
        <time>2020-08-16T08:21:26.000Z</time>
      </trkpt>
      <trkpt lat="45.16558" lon="5.88686">
        <ele>745.95</ele>
        <time>2020-08-16T08:21:31.000Z</time>
      </trkpt>
      <trkpt lat="45.16528" lon="5.88654">
        <ele>741.61</ele>
        <time>2020-08-16T08:21:36.000Z</time>
      </trkpt>
      <trkpt lat="45.16511" lon="5.88608">
        <ele>741.97</ele>
        <time>2020-08-16T08:21:41.000Z</time>
      </trkpt>
      <trkpt lat="45.16511" lon="5.88563">
        <ele>746.48</ele>
        <time>2020-08-16T08:21:46.000Z</time>
      </trkpt>
      <trkpt lat="45.16525" lon="5.88525">
        <ele>746.82</ele>
        <time>2020-08-16T08:21:51.000Z</time>
      </trkpt>
      <trkpt lat="45.16544" lon="5.88502">
        <ele>746.46</ele>
        <time>2020-08-16T08:21:56.000Z</time>
      </trkpt>
      <trkpt lat="45.16564" lon="5.88502">
        <ele>746.59</ele>
        <time>2020-08-16T08:22:01.000Z</time>
      </trkpt>
      <trkpt lat="45.16582" lon="5.88498">
        <ele>746.81</ele>
        <time>2020-08-16T08:22:06.000Z</time>
      </trkpt>
      <trkpt lat="45.16602" lon="5.88489">
        <ele>746.5</ele>
        <time>2020-08-16T08:22:11.000Z</time>
      </trkpt>
      <trkpt lat="45.1662" lon="5.8848">
        <ele>748.87</ele>
        <time>2020-08-16T08:22:16.000Z</time>
      </trkpt>
      <trkpt lat="45.16643" lon="5.88471">
        <ele>750.41</ele>
        <time>2020-08-16T08:22:21.000Z</time>
      </trkpt>
      <trkpt lat="45.16664" lon="5.88464">
        <ele>755.07</ele>
        <time>2020-08-16T08:22:26.000Z</time>
      </trkpt>
      <trkpt lat="45.16679" lon="5.88462">
        <ele>754.59</ele>
        <time>2020-08-16T08:22:31.000Z</time>
      </trkpt>
      <trkpt lat="45.16697" lon="5.88461">
        <ele>757.02</ele>
        <time>2020-08-16T08:22:36.000Z</time>
      </trkpt>
      <trkpt lat="45.16719" lon="5.8846">
        <ele>758.13</ele>
        <time>2020-08-16T08:22:41.000Z</time>
      </trkpt>
      <trkpt lat="45.16738" lon="5.88457">
        <ele>756.77</ele>
        <time>2020-08-16T08:22:46.000Z</time>
      </trkpt>
      <trkpt lat="45.16756" lon="5.88453">
        <ele>760.88</ele>
        <time>2020-08-16T08:22:51.000Z</time>
      </trkpt>
      <trkpt lat="45.16776" lon="5.88439">
        <ele>758.03</ele>
        <time>2020-08-16T08:22:56.000Z</time>
      </trkpt>
      <trkpt lat="45.16785" lon="5.88407">
        <ele>759.08</ele>
        <time>2020-08-16T08:23:01.000Z</time>
      </trkpt>
      <trkpt lat="45.16792" lon="5.88371">
        <ele>761.96</ele>
        <time>2020-08-16T08:23:06.000Z</time>
      </trkpt>
      <trkpt lat="45.16809" lon="5.88349">
        <ele>757</ele>
        <time>2020-08-16T08:23:11.000Z</time>
      </trkpt>
      <trkpt lat="45.16822" lon="5.88331">
        <ele>758.75</ele>
        <time>2020-08-16T08:23:16.000Z</time>
      </trkpt>
      <trkpt lat="45.16834" lon="5.88315">
        <ele>762.26</ele>
        <time>2020-08-16T08:23:21.000Z</time>
      </trkpt>
      <trkpt lat="45.16847" lon="5.88298">
        <ele>765.58</ele>
        <time>2020-08-16T08:23:26.000Z</time>
      </trkpt>
      <trkpt lat="45.16862" lon="5.88282">
        <ele>766.53</ele>
        <time>2020-08-16T08:23:31.000Z</time>
      </trkpt>
      <trkpt lat="45.1688" lon="5.88268">
        <ele>768.05</ele>
        <time>2020-08-16T08:23:36.000Z</time>
      </trkpt>
      <trkpt lat="45.16893" lon="5.88252">
        <ele>770.87</ele>
        <time>2020-08-16T08:23:41.000Z</time>
      </trkpt>
      <trkpt lat="45.16907" lon="5.88243">
        <ele>773.07</ele>
        <time>2020-08-16T08:23:46.000Z</time>
      </trkpt>
      <trkpt lat="45.16923" lon="5.88233">
        <ele>775.13</ele>
        <time>2020-08-16T08:23:51.000Z</time>
      </trkpt>
      <trkpt lat="45.16939" lon="5.88222">
        <ele>775.33</ele>
        <time>2020-08-16T08:23:56.000Z</time>
      </trkpt>
      <trkpt lat="45.16954" lon="5.88207">
        <ele>776.82</ele>
        <time>2020-08-16T08:24:01.000Z</time>
      </trkpt>
      <trkpt lat="45.16969" lon="5.88194">
        <ele>777.8</ele>
        <time>2020-08-16T08:24:06.000Z</time>
      </trkpt>
      <trkpt lat="45.16981" lon="5.88184">
        <ele>776.31</ele>
        <time>2020-08-16T08:24:11.000Z</time>
      </trkpt>
      <trkpt lat="45.16998" lon="5.88172">
        <ele>775.37</ele>
        <time>2020-08-16T08:24:16.000Z</time>
      </trkpt>
      <trkpt lat="45.17013" lon="5.88162">
        <ele>773.85</ele>
        <time>2020-08-16T08:24:21.000Z</time>
      </trkpt>
      <trkpt lat="45.17029" lon="5.88151">
        <ele>777.17</ele>
        <time>2020-08-16T08:24:26.000Z</time>
      </trkpt>
      <trkpt lat="45.17046" lon="5.88138">
        <ele>779.98</ele>
        <time>2020-08-16T08:24:31.000Z</time>
      </trkpt>
      <trkpt lat="45.17067" lon="5.88129">
        <ele>786.46</ele>
        <time>2020-08-16T08:24:36.000Z</time>
      </trkpt>
      <trkpt lat="45.17088" lon="5.88118">
        <ele>787.96</ele>
        <time>2020-08-16T08:24:41.000Z</time>
      </trkpt>
      <trkpt lat="45.17105" lon="5.88102">
        <ele>792.04</ele>
        <time>2020-08-16T08:24:46.000Z</time>
      </trkpt>
      <trkpt lat="45.1712" lon="5.88083">
        <ele>794.56</ele>
        <time>2020-08-16T08:24:51.000Z</time>
      </trkpt>
      <trkpt lat="45.17135" lon="5.88067">
        <ele>796.4</ele>
        <time>2020-08-16T08:24:56.000Z</time>
      </trkpt>
      <trkpt lat="45.1715" lon="5.88048">
        <ele>799.54</ele>
        <time>2020-08-16T08:25:01.000Z</time>
      </trkpt>
      <trkpt lat="45.17161" lon="5.88028">
        <ele>802.51</ele>
        <time>2020-08-16T08:25:06.000Z</time>
      </trkpt>
      <trkpt lat="45.17171" lon="5.8801">
        <ele>807.68</ele>
        <time>2020-08-16T08:25:11.000Z</time>
      </trkpt>
      <trkpt lat="45.17181" lon="5.87994">
        <ele>810.96</ele>
        <time>2020-08-16T08:25:16.000Z</time>
      </trkpt>
      <trkpt lat="45.17193" lon="5.87976">
        <ele>809.38</ele>
        <time>2020-08-16T08:25:21.000Z</time>
      </trkpt>
      <trkpt lat="45.17209" lon="5.87957">
        <ele>807.62</ele>
        <time>2020-08-16T08:25:26.000Z</time>
      </trkpt>
      <trkpt lat="45.17223" lon="5.87934">
        <ele>805.72</ele>
        <time>2020-08-16T08:25:31.000Z</time>
      </trkpt>
      <trkpt lat="45.17239" lon="5.87911">
        <ele>809.41</ele>
        <time>2020-08-16T08:25:36.000Z</time>
      </trkpt>
      <trkpt lat="45.17256" lon="5.87889">
        <ele>811.95</ele>
        <time>2020-08-16T08:25:41.000Z</time>
      </trkpt>
      <trkpt lat="45.17272" lon="5.87858">
        <ele>807.31</ele>
        <time>2020-08-16T08:25:46.000Z</time>
      </trkpt>
      <trkpt lat="45.17286" lon="5.87831">
        <ele>809.69</ele>
        <time>2020-08-16T08:25:51.000Z</time>
      </trkpt>
      <trkpt lat="45.17303" lon="5.87802">
        <ele>812.03</ele>
        <time>2020-08-16T08:25:56.000Z</time>
      </trkpt>
      <trkpt lat="45.17316" lon="5.87774">
        <ele>812.01</ele>
        <time>2020-08-16T08:26:01.000Z</time>
      </trkpt>
      <trkpt lat="45.17331" lon="5.87751">
        <ele>811.04</ele>
        <time>2020-08-16T08:26:06.000Z</time>
      </trkpt>
      <trkpt lat="45.17344" lon="5.87727">
        <ele>812.97</ele>
        <time>2020-08-16T08:26:11.000Z</time>
      </trkpt>
      <trkpt lat="45.17357" lon="5.87701">
        <ele>814.46</ele>
        <time>2020-08-16T08:26:16.000Z</time>
      </trkpt>
      <trkpt lat="45.17366" lon="5.8768">
        <ele>814.14</ele>
        <time>2020-08-16T08:26:21.000Z</time>
      </trkpt>
      <trkpt lat="45.17374" lon="5.87653">
        <ele>813.85</ele>
        <time>2020-08-16T08:26:26.000Z</time>
      </trkpt>
      <trkpt lat="45.17372" lon="5.87612">
        <ele>810.85</ele>
        <time>2020-08-16T08:26:31.000Z</time>
      </trkpt>
      <trkpt lat="45.17365" lon="5.87566">
        <ele>814.14</ele>
        <time>2020-08-16T08:26:36.000Z</time>
      </trkpt>
      <trkpt lat="45.17352" lon="5.87517">
        <ele>819.82</ele>
        <time>2020-08-16T08:26:41.000Z</time>
      </trkpt>
      <trkpt lat="45.17328" lon="5.87471">
        <ele>823.47</ele>
        <time>2020-08-16T08:26:46.000Z</time>
      </trkpt>
      <trkpt lat="45.17296" lon="5.87436">
        <ele>826.69</ele>
        <time>2020-08-16T08:26:51.000Z</time>
      </trkpt>
      <trkpt lat="45.17256" lon="5.87404">
        <ele>826.02</ele>
        <time>2020-08-16T08:26:56.000Z</time>
      </trkpt>
      <trkpt lat="45.17229" lon="5.87362">
        <ele>822.47</ele>
        <time>2020-08-16T08:27:01.000Z</time>
      </trkpt>
      <trkpt lat="45.17208" lon="5.87304">
        <ele>821.38</ele>
        <time>2020-08-16T08:27:06.000Z</time>
      </trkpt>
      <trkpt lat="45.17199" lon="5.87245">
        <ele>820.86</ele>
        <time>2020-08-16T08:27:11.000Z</time>
      </trkpt>
      <trkpt lat="45.17186" lon="5.87189">
        <ele>823.08</ele>
        <time>2020-08-16T08:27:16.000Z</time>
      </trkpt>
      <trkpt lat="45.17165" lon="5.8713">
        <ele>817.61</ele>
        <time>2020-08-16T08:27:21.000Z</time>
      </trkpt>
      <trkpt lat="45.17141" lon="5.87074">
        <ele>816.13</ele>
        <time>2020-08-16T08:27:26.000Z</time>
      </trkpt>
      <trkpt lat="45.1711" lon="5.87013">
        <ele>814.54</ele>
        <time>2020-08-16T08:27:31.000Z</time>
      </trkpt>
      <trkpt lat="45.17086" lon="5.86948">
        <ele>814.27</ele>
        <time>2020-08-16T08:27:36.000Z</time>
      </trkpt>
      <trkpt lat="45.1706" lon="5.86891">
        <ele>814.37</ele>
        <time>2020-08-16T08:27:41.000Z</time>
      </trkpt>
      <trkpt lat="45.17032" lon="5.86835">
        <ele>812.56</ele>
        <time>2020-08-16T08:27:46.000Z</time>
      </trkpt>
      <trkpt lat="45.17008" lon="5.8677">
        <ele>815.48</ele>
        <time>2020-08-16T08:27:51.000Z</time>
      </trkpt>
      <trkpt lat="45.16986" lon="5.86712">
        <ele>812.92</ele>
        <time>2020-08-16T08:27:56.000Z</time>
      </trkpt>
      <trkpt lat="45.16961" lon="5.86653">
        <ele>809.41</ele>
        <time>2020-08-16T08:28:01.000Z</time>
      </trkpt>
      <trkpt lat="45.16937" lon="5.86599">
        <ele>808.08</ele>
        <time>2020-08-16T08:28:06.000Z</time>
      </trkpt>
      <trkpt lat="45.16919" lon="5.86552">
        <ele>810.19</ele>
        <time>2020-08-16T08:28:11.000Z</time>
      </trkpt>
      <trkpt lat="45.16902" lon="5.86499">
        <ele>809.11</ele>
        <time>2020-08-16T08:28:16.000Z</time>
      </trkpt>
      <trkpt lat="45.16889" lon="5.86444">
        <ele>808.46</ele>
        <time>2020-08-16T08:28:21.000Z</time>
      </trkpt>
      <trkpt lat="45.16875" lon="5.86401">
        <ele>808.02</ele>
        <time>2020-08-16T08:28:26.000Z</time>
      </trkpt>
      <trkpt lat="45.16851" lon="5.86362">
        <ele>807.31</ele>
        <time>2020-08-16T08:28:31.000Z</time>
      </trkpt>
      <trkpt lat="45.16821" lon="5.86321">
        <ele>804.61</ele>
        <time>2020-08-16T08:28:36.000Z</time>
      </trkpt>
      <trkpt lat="45.16794" lon="5.86291">
        <ele>804.32</ele>
        <time>2020-08-16T08:28:41.000Z</time>
      </trkpt>
      <trkpt lat="45.16778" lon="5.86242">
        <ele>802.88</ele>
        <time>2020-08-16T08:28:46.000Z</time>
      </trkpt>
      <trkpt lat="45.16775" lon="5.86188">
        <ele>801.81</ele>
        <time>2020-08-16T08:28:51.000Z</time>
      </trkpt>
      <trkpt lat="45.16777" lon="5.86126">
        <ele>804.17</ele>
        <time>2020-08-16T08:28:56.000Z</time>
      </trkpt>
      <trkpt lat="45.16788" lon="5.8607">
        <ele>803.54</ele>
        <time>2020-08-16T08:29:01.000Z</time>
      </trkpt>
      <trkpt lat="45.16793" lon="5.86012">
        <ele>801.91</ele>
        <time>2020-08-16T08:29:06.000Z</time>
      </trkpt>
      <trkpt lat="45.16783" lon="5.85947">
        <ele>799.38</ele>
        <time>2020-08-16T08:29:11.000Z</time>
      </trkpt>
      <trkpt lat="45.16767" lon="5.85888">
        <ele>800.78</ele>
        <time>2020-08-16T08:29:16.000Z</time>
      </trkpt>
      <trkpt lat="45.16755" lon="5.85821">
        <ele>802.39</ele>
        <time>2020-08-16T08:29:21.000Z</time>
      </trkpt>
      <trkpt lat="45.16761" lon="5.85748">
        <ele>802.71</ele>
        <time>2020-08-16T08:29:26.000Z</time>
      </trkpt>
      <trkpt lat="45.16767" lon="5.85675">
        <ele>799.67</ele>
        <time>2020-08-16T08:29:31.000Z</time>
      </trkpt>
      <trkpt lat="45.16753" lon="5.85615">
        <ele>798.13</ele>
        <time>2020-08-16T08:29:36.000Z</time>
      </trkpt>
      <trkpt lat="45.16737" lon="5.85556">
        <ele>793.75</ele>
        <time>2020-08-16T08:29:41.000Z</time>
      </trkpt>
      <trkpt lat="45.16723" lon="5.855">
        <ele>792.61</ele>
        <time>2020-08-16T08:29:46.000Z</time>
      </trkpt>
      <trkpt lat="45.16716" lon="5.85437">
        <ele>793.95</ele>
        <time>2020-08-16T08:29:51.000Z</time>
      </trkpt>
      <trkpt lat="45.16702" lon="5.85391">
        <ele>792.39</ele>
        <time>2020-08-16T08:29:56.000Z</time>
      </trkpt>
      <trkpt lat="45.16691" lon="5.85358">
        <ele>790.17</ele>
        <time>2020-08-16T08:30:01.000Z</time>
      </trkpt>
      <trkpt lat="45.16681" lon="5.8533">
        <ele>789.4</ele>
        <time>2020-08-16T08:30:06.000Z</time>
      </trkpt>
      <trkpt lat="45.16664" lon="5.85297">
        <ele>787.94</ele>
        <time>2020-08-16T08:30:11.000Z</time>
      </trkpt>
      <trkpt lat="45.16648" lon="5.85272">
        <ele>791.55</ele>
        <time>2020-08-16T08:30:16.000Z</time>
      </trkpt>
      <trkpt lat="45.16633" lon="5.85244">
        <ele>793.34</ele>
        <time>2020-08-16T08:30:21.000Z</time>
      </trkpt>
      <trkpt lat="45.16618" lon="5.85216">
        <ele>794.55</ele>
        <time>2020-08-16T08:30:26.000Z</time>
      </trkpt>
      <trkpt lat="45.16604" lon="5.85189">
        <ele>796.53</ele>
        <time>2020-08-16T08:30:31.000Z</time>
      </trkpt>
      <trkpt lat="45.16588" lon="5.85164">
        <ele>796.45</ele>
        <time>2020-08-16T08:30:36.000Z</time>
      </trkpt>
      <trkpt lat="45.16574" lon="5.85136">
        <ele>798.6</ele>
        <time>2020-08-16T08:30:41.000Z</time>
      </trkpt>
      <trkpt lat="45.16559" lon="5.85108">
        <ele>798.29</ele>
        <time>2020-08-16T08:30:46.000Z</time>
      </trkpt>
      <trkpt lat="45.16551" lon="5.85078">
        <ele>798.56</ele>
        <time>2020-08-16T08:30:51.000Z</time>
      </trkpt>
      <trkpt lat="45.16547" lon="5.85045">
        <ele>799.43</ele>
        <time>2020-08-16T08:30:56.000Z</time>
      </trkpt>
      <trkpt lat="45.16541" lon="5.85011">
        <ele>803.53</ele>
        <time>2020-08-16T08:31:01.000Z</time>
      </trkpt>
      <trkpt lat="45.16537" lon="5.8498">
        <ele>802.84</ele>
        <time>2020-08-16T08:31:06.000Z</time>
      </trkpt>
      <trkpt lat="45.16535" lon="5.84944">
        <ele>803.73</ele>
        <time>2020-08-16T08:31:11.000Z</time>
      </trkpt>
      <trkpt lat="45.16532" lon="5.8491">
        <ele>808.06</ele>
        <time>2020-08-16T08:31:16.000Z</time>
      </trkpt>
      <trkpt lat="45.16529" lon="5.84875">
        <ele>805.32</ele>
        <time>2020-08-16T08:31:21.000Z</time>
      </trkpt>
      <trkpt lat="45.16517" lon="5.84852">
        <ele>801.8</ele>
        <time>2020-08-16T08:31:26.000Z</time>
      </trkpt>
      <trkpt lat="45.16506" lon="5.84843">
        <ele>803.66</ele>
        <time>2020-08-16T08:31:31.000Z</time>
      </trkpt>
      <trkpt lat="45.1649" lon="5.84836">
        <ele>803.83</ele>
        <time>2020-08-16T08:31:36.000Z</time>
      </trkpt>
      <trkpt lat="45.16468" lon="5.84848">
        <ele>806.37</ele>
        <time>2020-08-16T08:31:41.000Z</time>
      </trkpt>
      <trkpt lat="45.16446" lon="5.84884">
        <ele>803.08</ele>
        <time>2020-08-16T08:31:46.000Z</time>
      </trkpt>
      <trkpt lat="45.16416" lon="5.84929">
        <ele>802.5</ele>
        <time>2020-08-16T08:31:51.000Z</time>
      </trkpt>
      <trkpt lat="45.1638" lon="5.84973">
        <ele>800.4</ele>
        <time>2020-08-16T08:31:56.000Z</time>
      </trkpt>
      <trkpt lat="45.16337" lon="5.85017">
        <ele>797.65</ele>
        <time>2020-08-16T08:32:01.000Z</time>
      </trkpt>
      <trkpt lat="45.16304" lon="5.85079">
        <ele>794.01</ele>
        <time>2020-08-16T08:32:06.000Z</time>
      </trkpt>
      <trkpt lat="45.16301" lon="5.85159">
        <ele>795.89</ele>
        <time>2020-08-16T08:32:11.000Z</time>
      </trkpt>
      <trkpt lat="45.16262" lon="5.8518">
        <ele>790.18</ele>
        <time>2020-08-16T08:32:16.000Z</time>
      </trkpt>
      <trkpt lat="45.16212" lon="5.85138">
        <ele>782.54</ele>
        <time>2020-08-16T08:32:21.000Z</time>
      </trkpt>
      <trkpt lat="45.16165" lon="5.85102">
        <ele>780.94</ele>
        <time>2020-08-16T08:32:26.000Z</time>
      </trkpt>
      <trkpt lat="45.16123" lon="5.85055">
        <ele>778.57</ele>
        <time>2020-08-16T08:32:31.000Z</time>
      </trkpt>
      <trkpt lat="45.16093" lon="5.84986">
        <ele>776.34</ele>
        <time>2020-08-16T08:32:36.000Z</time>
      </trkpt>
      <trkpt lat="45.16046" lon="5.84936">
        <ele>775.14</ele>
        <time>2020-08-16T08:32:41.000Z</time>
      </trkpt>
      <trkpt lat="45.15985" lon="5.84925">
        <ele>767.78</ele>
        <time>2020-08-16T08:32:46.000Z</time>
      </trkpt>
      <trkpt lat="45.15923" lon="5.84915">
        <ele>760.83</ele>
        <time>2020-08-16T08:32:51.000Z</time>
      </trkpt>
      <trkpt lat="45.15883" lon="5.84896">
        <ele>755.74</ele>
        <time>2020-08-16T08:32:56.000Z</time>
      </trkpt>
      <trkpt lat="45.15867" lon="5.84864">
        <ele>751.77</ele>
        <time>2020-08-16T08:33:01.000Z</time>
      </trkpt>
      <trkpt lat="45.15868" lon="5.84851">
        <ele>750.46</ele>
        <time>2020-08-16T08:33:06.000Z</time>
      </trkpt>
      <trkpt lat="45.1588" lon="5.84824">
        <ele>746.3</ele>
        <time>2020-08-16T08:33:11.000Z</time>
      </trkpt>
      <trkpt lat="45.15898" lon="5.84793">
        <ele>744.23</ele>
        <time>2020-08-16T08:33:16.000Z</time>
      </trkpt>
      <trkpt lat="45.15924" lon="5.84765">
        <ele>741.69</ele>
        <time>2020-08-16T08:33:21.000Z</time>
      </trkpt>
      <trkpt lat="45.15955" lon="5.84732">
        <ele>739.68</ele>
        <time>2020-08-16T08:33:26.000Z</time>
      </trkpt>
      <trkpt lat="45.15984" lon="5.84687">
        <ele>737.47</ele>
        <time>2020-08-16T08:33:31.000Z</time>
      </trkpt>
      <trkpt lat="45.16023" lon="5.84636">
        <ele>735.5</ele>
        <time>2020-08-16T08:33:36.000Z</time>
      </trkpt>
      <trkpt lat="45.16057" lon="5.84568">
        <ele>731.38</ele>
        <time>2020-08-16T08:33:41.000Z</time>
      </trkpt>
      <trkpt lat="45.1607" lon="5.84479">
        <ele>726.05</ele>
        <time>2020-08-16T08:33:46.000Z</time>
      </trkpt>
      <trkpt lat="45.16097" lon="5.84401">
        <ele>722.07</ele>
        <time>2020-08-16T08:33:51.000Z</time>
      </trkpt>
      <trkpt lat="45.16136" lon="5.84336">
        <ele>719.1</ele>
        <time>2020-08-16T08:33:56.000Z</time>
      </trkpt>
      <trkpt lat="45.16174" lon="5.84263">
        <ele>716.91</ele>
        <time>2020-08-16T08:34:01.000Z</time>
      </trkpt>
      <trkpt lat="45.16215" lon="5.84192">
        <ele>711.1</ele>
        <time>2020-08-16T08:34:06.000Z</time>
      </trkpt>
      <trkpt lat="45.16245" lon="5.8411">
        <ele>705.33</ele>
        <time>2020-08-16T08:34:11.000Z</time>
      </trkpt>
      <trkpt lat="45.16267" lon="5.84025">
        <ele>701.72</ele>
        <time>2020-08-16T08:34:16.000Z</time>
      </trkpt>
      <trkpt lat="45.16303" lon="5.83957">
        <ele>696.64</ele>
        <time>2020-08-16T08:34:21.000Z</time>
      </trkpt>
      <trkpt lat="45.16332" lon="5.8388">
        <ele>692.13</ele>
        <time>2020-08-16T08:34:26.000Z</time>
      </trkpt>
      <trkpt lat="45.16336" lon="5.83789">
        <ele>684.46</ele>
        <time>2020-08-16T08:34:31.000Z</time>
      </trkpt>
      <trkpt lat="45.16364" lon="5.83715">
        <ele>683.49</ele>
        <time>2020-08-16T08:34:36.000Z</time>
      </trkpt>
      <trkpt lat="45.16398" lon="5.83649">
        <ele>681.96</ele>
        <time>2020-08-16T08:34:41.000Z</time>
      </trkpt>
      <trkpt lat="45.16419" lon="5.836">
        <ele>679.78</ele>
        <time>2020-08-16T08:34:46.000Z</time>
      </trkpt>
      <trkpt lat="45.16429" lon="5.83562">
        <ele>680.21</ele>
        <time>2020-08-16T08:34:51.000Z</time>
      </trkpt>
      <trkpt lat="45.16422" lon="5.83514">
        <ele>674.67</ele>
        <time>2020-08-16T08:34:56.000Z</time>
      </trkpt>
      <trkpt lat="45.16386" lon="5.835">
        <ele>673.74</ele>
        <time>2020-08-16T08:35:01.000Z</time>
      </trkpt>
      <trkpt lat="45.16354" lon="5.83536">
        <ele>672.55</ele>
        <time>2020-08-16T08:35:06.000Z</time>
      </trkpt>
      <trkpt lat="45.16319" lon="5.83551">
        <ele>671.44</ele>
        <time>2020-08-16T08:35:11.000Z</time>
      </trkpt>
      <trkpt lat="45.16291" lon="5.8358">
        <ele>673.97</ele>
        <time>2020-08-16T08:35:16.000Z</time>
      </trkpt>
      <trkpt lat="45.16264" lon="5.83622">
        <ele>674.22</ele>
        <time>2020-08-16T08:35:21.000Z</time>
      </trkpt>
      <trkpt lat="45.16232" lon="5.83667">
        <ele>669.32</ele>
        <time>2020-08-16T08:35:26.000Z</time>
      </trkpt>
      <trkpt lat="45.16195" lon="5.83703">
        <ele>668.3</ele>
        <time>2020-08-16T08:35:31.000Z</time>
      </trkpt>
      <trkpt lat="45.16158" lon="5.83734">
        <ele>669.41</ele>
        <time>2020-08-16T08:35:36.000Z</time>
      </trkpt>
      <trkpt lat="45.16124" lon="5.83767">
        <ele>670.82</ele>
        <time>2020-08-16T08:35:41.000Z</time>
      </trkpt>
      <trkpt lat="45.16096" lon="5.83804">
        <ele>670.26</ele>
        <time>2020-08-16T08:35:46.000Z</time>
      </trkpt>
      <trkpt lat="45.16069" lon="5.83841">
        <ele>668.7</ele>
        <time>2020-08-16T08:35:51.000Z</time>
      </trkpt>
      <trkpt lat="45.16041" lon="5.83872">
        <ele>665.4</ele>
        <time>2020-08-16T08:35:56.000Z</time>
      </trkpt>
      <trkpt lat="45.16011" lon="5.83892">
        <ele>664.37</ele>
        <time>2020-08-16T08:36:01.000Z</time>
      </trkpt>
      <trkpt lat="45.15983" lon="5.83922">
        <ele>662.37</ele>
        <time>2020-08-16T08:36:06.000Z</time>
      </trkpt>
      <trkpt lat="45.15958" lon="5.8395">
        <ele>663.65</ele>
        <time>2020-08-16T08:36:11.000Z</time>
      </trkpt>
      <trkpt lat="45.15924" lon="5.83972">
        <ele>664.31</ele>
        <time>2020-08-16T08:36:16.000Z</time>
      </trkpt>
      <trkpt lat="45.15883" lon="5.83993">
        <ele>663.88</ele>
        <time>2020-08-16T08:36:21.000Z</time>
      </trkpt>
      <trkpt lat="45.15846" lon="5.84008">
        <ele>661.87</ele>
        <time>2020-08-16T08:36:26.000Z</time>
      </trkpt>
      <trkpt lat="45.15805" lon="5.84027">
        <ele>657.33</ele>
        <time>2020-08-16T08:36:31.000Z</time>
      </trkpt>
      <trkpt lat="45.15767" lon="5.84062">
        <ele>658.52</ele>
        <time>2020-08-16T08:36:36.000Z</time>
      </trkpt>
      <trkpt lat="45.15721" lon="5.84064">
        <ele>656.3</ele>
        <time>2020-08-16T08:36:41.000Z</time>
      </trkpt>
      <trkpt lat="45.15672" lon="5.84061">
        <ele>654.14</ele>
        <time>2020-08-16T08:36:46.000Z</time>
      </trkpt>
      <trkpt lat="45.15642" lon="5.84121">
        <ele>653.76</ele>
        <time>2020-08-16T08:36:51.000Z</time>
      </trkpt>
      <trkpt lat="45.15599" lon="5.84155">
        <ele>650.91</ele>
        <time>2020-08-16T08:36:56.000Z</time>
      </trkpt>
      <trkpt lat="45.15554" lon="5.84193">
        <ele>651.12</ele>
        <time>2020-08-16T08:37:01.000Z</time>
      </trkpt>
      <trkpt lat="45.15519" lon="5.84235">
        <ele>653.79</ele>
        <time>2020-08-16T08:37:06.000Z</time>
      </trkpt>
      <trkpt lat="45.15506" lon="5.8419">
        <ele>652.61</ele>
        <time>2020-08-16T08:37:11.000Z</time>
      </trkpt>
      <trkpt lat="45.15516" lon="5.84135">
        <ele>652.54</ele>
        <time>2020-08-16T08:37:16.000Z</time>
      </trkpt>
      <trkpt lat="45.15531" lon="5.84084">
        <ele>650.37</ele>
        <time>2020-08-16T08:37:21.000Z</time>
      </trkpt>
      <trkpt lat="45.15527" lon="5.84063">
        <ele>649.83</ele>
        <time>2020-08-16T08:37:26.000Z</time>
      </trkpt>
      <trkpt lat="45.1552" lon="5.84053">
        <ele>651.9</ele>
        <time>2020-08-16T08:37:39.000Z</time>
      </trkpt>
      <trkpt lat="45.15511" lon="5.84043">
        <ele>652.52</ele>
        <time>2020-08-16T08:37:57.000Z</time>
      </trkpt>
      <trkpt lat="45.15484" lon="5.84005">
        <ele>648.05</ele>
        <time>2020-08-16T08:38:02.000Z</time>
      </trkpt>
      <trkpt lat="45.15455" lon="5.83971">
        <ele>640.05</ele>
        <time>2020-08-16T08:38:07.000Z</time>
      </trkpt>
      <trkpt lat="45.15415" lon="5.83941">
        <ele>636.69</ele>
        <time>2020-08-16T08:38:12.000Z</time>
      </trkpt>
      <trkpt lat="45.15377" lon="5.83922">
        <ele>635.59</ele>
        <time>2020-08-16T08:38:17.000Z</time>
      </trkpt>
      <trkpt lat="45.1535" lon="5.83895">
        <ele>628.84</ele>
        <time>2020-08-16T08:38:22.000Z</time>
      </trkpt>
      <trkpt lat="45.15315" lon="5.83857">
        <ele>623.49</ele>
        <time>2020-08-16T08:38:27.000Z</time>
      </trkpt>
      <trkpt lat="45.15269" lon="5.83851">
        <ele>618.67</ele>
        <time>2020-08-16T08:38:32.000Z</time>
      </trkpt>
      <trkpt lat="45.15229" lon="5.83836">
        <ele>615.62</ele>
        <time>2020-08-16T08:38:37.000Z</time>
      </trkpt>
      <trkpt lat="45.15199" lon="5.83808">
        <ele>612.5</ele>
        <time>2020-08-16T08:38:42.000Z</time>
      </trkpt>
      <trkpt lat="45.1517" lon="5.83773">
        <ele>609.18</ele>
        <time>2020-08-16T08:38:47.000Z</time>
      </trkpt>
      <trkpt lat="45.15141" lon="5.8375">
        <ele>609</ele>
        <time>2020-08-16T08:38:52.000Z</time>
      </trkpt>
      <trkpt lat="45.15112" lon="5.83729">
        <ele>606.12</ele>
        <time>2020-08-16T08:38:57.000Z</time>
      </trkpt>
      <trkpt lat="45.15094" lon="5.83715">
        <ele>598.76</ele>
        <time>2020-08-16T08:39:02.000Z</time>
      </trkpt>
      <trkpt lat="45.15078" lon="5.83708">
        <ele>597.28</ele>
        <time>2020-08-16T08:39:07.000Z</time>
      </trkpt>
      <trkpt lat="45.15074" lon="5.83732">
        <ele>593.61</ele>
        <time>2020-08-16T08:39:12.000Z</time>
      </trkpt>
      <trkpt lat="45.15064" lon="5.83749">
        <ele>590.88</ele>
        <time>2020-08-16T08:39:17.000Z</time>
      </trkpt>
      <trkpt lat="45.1505" lon="5.83766">
        <ele>592.49</ele>
        <time>2020-08-16T08:39:22.000Z</time>
      </trkpt>
      <trkpt lat="45.15027" lon="5.83784">
        <ele>595.18</ele>
        <time>2020-08-16T08:39:27.000Z</time>
      </trkpt>
      <trkpt lat="45.15005" lon="5.83802">
        <ele>594.45</ele>
        <time>2020-08-16T08:39:32.000Z</time>
      </trkpt>
      <trkpt lat="45.14978" lon="5.83809">
        <ele>595.05</ele>
        <time>2020-08-16T08:39:37.000Z</time>
      </trkpt>
      <trkpt lat="45.14951" lon="5.83821">
        <ele>596.15</ele>
        <time>2020-08-16T08:39:42.000Z</time>
      </trkpt>
      <trkpt lat="45.14927" lon="5.83831">
        <ele>592.88</ele>
        <time>2020-08-16T08:39:47.000Z</time>
      </trkpt>
      <trkpt lat="45.14898" lon="5.83843">
        <ele>591</ele>
        <time>2020-08-16T08:39:52.000Z</time>
      </trkpt>
      <trkpt lat="45.14872" lon="5.83851">
        <ele>591.44</ele>
        <time>2020-08-16T08:39:57.000Z</time>
      </trkpt>
      <trkpt lat="45.14845" lon="5.83861">
        <ele>591.17</ele>
        <time>2020-08-16T08:40:02.000Z</time>
      </trkpt>
      <trkpt lat="45.14816" lon="5.8387">
        <ele>592.75</ele>
        <time>2020-08-16T08:40:07.000Z</time>
      </trkpt>
      <trkpt lat="45.14788" lon="5.83882">
        <ele>591.21</ele>
        <time>2020-08-16T08:40:12.000Z</time>
      </trkpt>
      <trkpt lat="45.14757" lon="5.83892">
        <ele>590.27</ele>
        <time>2020-08-16T08:40:17.000Z</time>
      </trkpt>
      <trkpt lat="45.14726" lon="5.83898">
        <ele>590.43</ele>
        <time>2020-08-16T08:40:22.000Z</time>
      </trkpt>
      <trkpt lat="45.14698" lon="5.83901">
        <ele>590.28</ele>
        <time>2020-08-16T08:40:27.000Z</time>
      </trkpt>
      <trkpt lat="45.14664" lon="5.83897">
        <ele>594.99</ele>
        <time>2020-08-16T08:40:32.000Z</time>
      </trkpt>
      <trkpt lat="45.14626" lon="5.83893">
        <ele>595.79</ele>
        <time>2020-08-16T08:40:37.000Z</time>
      </trkpt>
      <trkpt lat="45.14592" lon="5.83894">
        <ele>596.92</ele>
        <time>2020-08-16T08:40:42.000Z</time>
      </trkpt>
      <trkpt lat="45.14564" lon="5.83903">
        <ele>595.47</ele>
        <time>2020-08-16T08:40:47.000Z</time>
      </trkpt>
      <trkpt lat="45.14538" lon="5.83916">
        <ele>597.78</ele>
        <time>2020-08-16T08:40:52.000Z</time>
      </trkpt>
      <trkpt lat="45.14508" lon="5.83926">
        <ele>597.71</ele>
        <time>2020-08-16T08:40:57.000Z</time>
      </trkpt>
      <trkpt lat="45.14478" lon="5.83938">
        <ele>594.2</ele>
        <time>2020-08-16T08:41:02.000Z</time>
      </trkpt>
      <trkpt lat="45.14444" lon="5.83949">
        <ele>590.82</ele>
        <time>2020-08-16T08:41:07.000Z</time>
      </trkpt>
      <trkpt lat="45.14409" lon="5.8396">
        <ele>590.61</ele>
        <time>2020-08-16T08:41:12.000Z</time>
      </trkpt>
      <trkpt lat="45.14395" lon="5.83989">
        <ele>590.8</ele>
        <time>2020-08-16T08:41:17.000Z</time>
      </trkpt>
      <trkpt lat="45.14382" lon="5.84015">
        <ele>590.83</ele>
        <time>2020-08-16T08:41:22.000Z</time>
      </trkpt>
      <trkpt lat="45.14363" lon="5.84048">
        <ele>589.68</ele>
        <time>2020-08-16T08:41:27.000Z</time>
      </trkpt>
      <trkpt lat="45.14337" lon="5.8408">
        <ele>586.88</ele>
        <time>2020-08-16T08:41:32.000Z</time>
      </trkpt>
      <trkpt lat="45.14305" lon="5.84114">
        <ele>585.17</ele>
        <time>2020-08-16T08:41:37.000Z</time>
      </trkpt>
      <trkpt lat="45.14273" lon="5.84134">
        <ele>585.14</ele>
        <time>2020-08-16T08:41:42.000Z</time>
      </trkpt>
      <trkpt lat="45.14249" lon="5.84104">
        <ele>585.04</ele>
        <time>2020-08-16T08:41:47.000Z</time>
      </trkpt>
      <trkpt lat="45.14231" lon="5.84061">
        <ele>588.07</ele>
        <time>2020-08-16T08:41:52.000Z</time>
      </trkpt>
      <trkpt lat="45.14201" lon="5.84037">
        <ele>586.59</ele>
        <time>2020-08-16T08:41:57.000Z</time>
      </trkpt>
      <trkpt lat="45.14164" lon="5.84031">
        <ele>586.73</ele>
        <time>2020-08-16T08:42:02.000Z</time>
      </trkpt>
      <trkpt lat="45.14133" lon="5.8404">
        <ele>585.04</ele>
        <time>2020-08-16T08:42:07.000Z</time>
      </trkpt>
      <trkpt lat="45.14108" lon="5.84052">
        <ele>582.93</ele>
        <time>2020-08-16T08:42:12.000Z</time>
      </trkpt>
      <trkpt lat="45.14078" lon="5.84069">
        <ele>584.51</ele>
        <time>2020-08-16T08:42:17.000Z</time>
      </trkpt>
      <trkpt lat="45.14047" lon="5.8407">
        <ele>584.88</ele>
        <time>2020-08-16T08:42:22.000Z</time>
      </trkpt>
      <trkpt lat="45.14017" lon="5.84061">
        <ele>589.31</ele>
        <time>2020-08-16T08:42:27.000Z</time>
      </trkpt>
      <trkpt lat="45.13984" lon="5.84059">
        <ele>588.14</ele>
        <time>2020-08-16T08:42:32.000Z</time>
      </trkpt>
      <trkpt lat="45.13947" lon="5.84045">
        <ele>588.68</ele>
        <time>2020-08-16T08:42:37.000Z</time>
      </trkpt>
      <trkpt lat="45.13909" lon="5.84018">
        <ele>584.7</ele>
        <time>2020-08-16T08:42:42.000Z</time>
      </trkpt>
      <trkpt lat="45.13864" lon="5.84001">
        <ele>582.9</ele>
        <time>2020-08-16T08:42:47.000Z</time>
      </trkpt>
      <trkpt lat="45.13821" lon="5.83989">
        <ele>583.67</ele>
        <time>2020-08-16T08:42:52.000Z</time>
      </trkpt>
      <trkpt lat="45.13783" lon="5.83962">
        <ele>582.97</ele>
        <time>2020-08-16T08:42:57.000Z</time>
      </trkpt>
      <trkpt lat="45.13761" lon="5.83943">
        <ele>582.54</ele>
        <time>2020-08-16T08:43:02.000Z</time>
      </trkpt>
      <trkpt lat="45.13744" lon="5.83946">
        <ele>583.16</ele>
        <time>2020-08-16T08:43:07.000Z</time>
      </trkpt>
      <trkpt lat="45.1373" lon="5.83951">
        <ele>582.92</ele>
        <time>2020-08-16T08:43:12.000Z</time>
      </trkpt>
      <trkpt lat="45.13699" lon="5.83939">
        <ele>579.89</ele>
        <time>2020-08-16T08:43:17.000Z</time>
      </trkpt>
      <trkpt lat="45.13675" lon="5.83931">
        <ele>580.6</ele>
        <time>2020-08-16T08:43:22.000Z</time>
      </trkpt>
      <trkpt lat="45.13654" lon="5.83928">
        <ele>580.37</ele>
        <time>2020-08-16T08:43:27.000Z</time>
      </trkpt>
      <trkpt lat="45.13631" lon="5.83918">
        <ele>583.55</ele>
        <time>2020-08-16T08:43:32.000Z</time>
      </trkpt>
      <trkpt lat="45.13612" lon="5.83909">
        <ele>581.27</ele>
        <time>2020-08-16T08:43:37.000Z</time>
      </trkpt>
      <trkpt lat="45.13587" lon="5.83896">
        <ele>584.51</ele>
        <time>2020-08-16T08:43:42.000Z</time>
      </trkpt>
      <trkpt lat="45.1357" lon="5.83892">
        <ele>583.45</ele>
        <time>2020-08-16T08:43:47.000Z</time>
      </trkpt>
      <trkpt lat="45.1355" lon="5.83882">
        <ele>588.75</ele>
        <time>2020-08-16T08:43:52.000Z</time>
      </trkpt>
      <trkpt lat="45.13526" lon="5.8387">
        <ele>589.8</ele>
        <time>2020-08-16T08:43:57.000Z</time>
      </trkpt>
      <trkpt lat="45.13501" lon="5.83862">
        <ele>593.41</ele>
        <time>2020-08-16T08:44:02.000Z</time>
      </trkpt>
      <trkpt lat="45.13475" lon="5.83848">
        <ele>591.93</ele>
        <time>2020-08-16T08:44:07.000Z</time>
      </trkpt>
      <trkpt lat="45.13445" lon="5.83834">
        <ele>593.36</ele>
        <time>2020-08-16T08:44:12.000Z</time>
      </trkpt>
      <trkpt lat="45.13411" lon="5.83819">
        <ele>595.83</ele>
        <time>2020-08-16T08:44:17.000Z</time>
      </trkpt>
      <trkpt lat="45.13387" lon="5.83811">
        <ele>594.01</ele>
        <time>2020-08-16T08:44:22.000Z</time>
      </trkpt>
      <trkpt lat="45.13355" lon="5.83795">
        <ele>594.1</ele>
        <time>2020-08-16T08:44:27.000Z</time>
      </trkpt>
      <trkpt lat="45.13325" lon="5.83781">
        <ele>593.95</ele>
        <time>2020-08-16T08:44:32.000Z</time>
      </trkpt>
      <trkpt lat="45.133" lon="5.83771">
        <ele>591.74</ele>
        <time>2020-08-16T08:44:37.000Z</time>
      </trkpt>
      <trkpt lat="45.1327" lon="5.83758">
        <ele>589.55</ele>
        <time>2020-08-16T08:44:42.000Z</time>
      </trkpt>
      <trkpt lat="45.13236" lon="5.83741">
        <ele>592.83</ele>
        <time>2020-08-16T08:44:47.000Z</time>
      </trkpt>
      <trkpt lat="45.13206" lon="5.8374">
        <ele>590.12</ele>
        <time>2020-08-16T08:44:52.000Z</time>
      </trkpt>
      <trkpt lat="45.13182" lon="5.83747">
        <ele>589.6</ele>
        <time>2020-08-16T08:44:57.000Z</time>
      </trkpt>
      <trkpt lat="45.13156" lon="5.83768">
        <ele>589.89</ele>
        <time>2020-08-16T08:45:02.000Z</time>
      </trkpt>
      <trkpt lat="45.13125" lon="5.83773">
        <ele>590.03</ele>
        <time>2020-08-16T08:45:07.000Z</time>
      </trkpt>
      <trkpt lat="45.131" lon="5.83759">
        <ele>588.52</ele>
        <time>2020-08-16T08:45:12.000Z</time>
      </trkpt>
      <trkpt lat="45.13078" lon="5.83751">
        <ele>587.63</ele>
        <time>2020-08-16T08:45:17.000Z</time>
      </trkpt>
      <trkpt lat="45.13062" lon="5.83738">
        <ele>587.94</ele>
        <time>2020-08-16T08:45:22.000Z</time>
      </trkpt>
      <trkpt lat="45.13052" lon="5.83706">
        <ele>586.37</ele>
        <time>2020-08-16T08:45:27.000Z</time>
      </trkpt>
      <trkpt lat="45.1304" lon="5.83674">
        <ele>586.36</ele>
        <time>2020-08-16T08:45:32.000Z</time>
      </trkpt>
      <trkpt lat="45.13014" lon="5.83628">
        <ele>583.36</ele>
        <time>2020-08-16T08:45:37.000Z</time>
      </trkpt>
      <trkpt lat="45.13008" lon="5.836">
        <ele>580.95</ele>
        <time>2020-08-16T08:45:42.000Z</time>
      </trkpt>
      <trkpt lat="45.12989" lon="5.83588">
        <ele>585.95</ele>
        <time>2020-08-16T08:45:47.000Z</time>
      </trkpt>
      <trkpt lat="45.12965" lon="5.8359">
        <ele>585.25</ele>
        <time>2020-08-16T08:45:52.000Z</time>
      </trkpt>
      <trkpt lat="45.12943" lon="5.83585">
        <ele>583.23</ele>
        <time>2020-08-16T08:45:57.000Z</time>
      </trkpt>
      <trkpt lat="45.12921" lon="5.83558">
        <ele>584.97</ele>
        <time>2020-08-16T08:46:02.000Z</time>
      </trkpt>
      <trkpt lat="45.12897" lon="5.83529">
        <ele>580.05</ele>
        <time>2020-08-16T08:46:07.000Z</time>
      </trkpt>
      <trkpt lat="45.12864" lon="5.83518">
        <ele>579.55</ele>
        <time>2020-08-16T08:46:12.000Z</time>
      </trkpt>
      <trkpt lat="45.12841" lon="5.83516">
        <ele>580.1</ele>
        <time>2020-08-16T08:46:17.000Z</time>
      </trkpt>
      <trkpt lat="45.12818" lon="5.83515">
        <ele>581.45</ele>
        <time>2020-08-16T08:46:22.000Z</time>
      </trkpt>
      <trkpt lat="45.12797" lon="5.83504">
        <ele>578.32</ele>
        <time>2020-08-16T08:46:27.000Z</time>
      </trkpt>
      <trkpt lat="45.12785" lon="5.83505">
        <ele>574.37</ele>
        <time>2020-08-16T08:46:32.000Z</time>
      </trkpt>
      <trkpt lat="45.12776" lon="5.83511">
        <ele>570.46</ele>
        <time>2020-08-16T08:46:37.000Z</time>
      </trkpt>
      <trkpt lat="45.12764" lon="5.83511">
        <ele>571.15</ele>
        <time>2020-08-16T08:46:43.000Z</time>
      </trkpt>
      <trkpt lat="45.12742" lon="5.83497">
        <ele>574.46</ele>
        <time>2020-08-16T08:46:48.000Z</time>
      </trkpt>
      <trkpt lat="45.12724" lon="5.8347">
        <ele>574.6</ele>
        <time>2020-08-16T08:46:53.000Z</time>
      </trkpt>
      <trkpt lat="45.12713" lon="5.83437">
        <ele>576.18</ele>
        <time>2020-08-16T08:46:58.000Z</time>
      </trkpt>
      <trkpt lat="45.12685" lon="5.83387">
        <ele>577.42</ele>
        <time>2020-08-16T08:47:03.000Z</time>
      </trkpt>
      <trkpt lat="45.12666" lon="5.83348">
        <ele>575.4</ele>
        <time>2020-08-16T08:47:08.000Z</time>
      </trkpt>
      <trkpt lat="45.12636" lon="5.83317">
        <ele>574.97</ele>
        <time>2020-08-16T08:47:13.000Z</time>
      </trkpt>
      <trkpt lat="45.12614" lon="5.83272">
        <ele>568.26</ele>
        <time>2020-08-16T08:47:18.000Z</time>
      </trkpt>
      <trkpt lat="45.12588" lon="5.83242">
        <ele>568.52</ele>
        <time>2020-08-16T08:47:23.000Z</time>
      </trkpt>
      <trkpt lat="45.12568" lon="5.83214">
        <ele>565.68</ele>
        <time>2020-08-16T08:47:28.000Z</time>
      </trkpt>
      <trkpt lat="45.12546" lon="5.83184">
        <ele>565.71</ele>
        <time>2020-08-16T08:47:33.000Z</time>
      </trkpt>
      <trkpt lat="45.12511" lon="5.83164">
        <ele>559.25</ele>
        <time>2020-08-16T08:47:38.000Z</time>
      </trkpt>
      <trkpt lat="45.12484" lon="5.83141">
        <ele>556.66</ele>
        <time>2020-08-16T08:47:43.000Z</time>
      </trkpt>
      <trkpt lat="45.12467" lon="5.83125">
        <ele>555.72</ele>
        <time>2020-08-16T08:47:48.000Z</time>
      </trkpt>
      <trkpt lat="45.12435" lon="5.831">
        <ele>556.14</ele>
        <time>2020-08-16T08:47:53.000Z</time>
      </trkpt>
      <trkpt lat="45.12414" lon="5.83088">
        <ele>555.8</ele>
        <time>2020-08-16T08:47:58.000Z</time>
      </trkpt>
      <trkpt lat="45.12395" lon="5.83075">
        <ele>548.85</ele>
        <time>2020-08-16T08:48:03.000Z</time>
      </trkpt>
      <trkpt lat="45.12373" lon="5.8305">
        <ele>548.5</ele>
        <time>2020-08-16T08:48:08.000Z</time>
      </trkpt>
      <trkpt lat="45.12348" lon="5.83034">
        <ele>549.33</ele>
        <time>2020-08-16T08:48:13.000Z</time>
      </trkpt>
      <trkpt lat="45.12323" lon="5.83022">
        <ele>550.66</ele>
        <time>2020-08-16T08:48:18.000Z</time>
      </trkpt>
      <trkpt lat="45.12298" lon="5.83008">
        <ele>551.53</ele>
        <time>2020-08-16T08:48:23.000Z</time>
      </trkpt>
      <trkpt lat="45.12269" lon="5.82992">
        <ele>551.24</ele>
        <time>2020-08-16T08:48:28.000Z</time>
      </trkpt>
      <trkpt lat="45.12249" lon="5.82977">
        <ele>552.26</ele>
        <time>2020-08-16T08:48:33.000Z</time>
      </trkpt>
      <trkpt lat="45.12236" lon="5.8296">
        <ele>550.38</ele>
        <time>2020-08-16T08:48:38.000Z</time>
      </trkpt>
      <trkpt lat="45.12218" lon="5.82948">
        <ele>550.02</ele>
        <time>2020-08-16T08:48:43.000Z</time>
      </trkpt>
      <trkpt lat="45.12191" lon="5.82942">
        <ele>549.53</ele>
        <time>2020-08-16T08:48:48.000Z</time>
      </trkpt>
      <trkpt lat="45.1217" lon="5.82935">
        <ele>550.13</ele>
        <time>2020-08-16T08:48:53.000Z</time>
      </trkpt>
      <trkpt lat="45.12148" lon="5.82933">
        <ele>549.32</ele>
        <time>2020-08-16T08:48:58.000Z</time>
      </trkpt>
      <trkpt lat="45.12133" lon="5.82924">
        <ele>549.11</ele>
        <time>2020-08-16T08:49:03.000Z</time>
      </trkpt>
      <trkpt lat="45.12114" lon="5.82906">
        <ele>551.83</ele>
        <time>2020-08-16T08:49:08.000Z</time>
      </trkpt>
      <trkpt lat="45.12089" lon="5.8289">
        <ele>551.92</ele>
        <time>2020-08-16T08:49:13.000Z</time>
      </trkpt>
      <trkpt lat="45.12062" lon="5.82871">
        <ele>552.45</ele>
        <time>2020-08-16T08:49:18.000Z</time>
      </trkpt>
      <trkpt lat="45.1204" lon="5.82863">
        <ele>553.49</ele>
        <time>2020-08-16T08:49:23.000Z</time>
      </trkpt>
      <trkpt lat="45.12017" lon="5.82854">
        <ele>554.7</ele>
        <time>2020-08-16T08:49:28.000Z</time>
      </trkpt>
      <trkpt lat="45.11994" lon="5.82847">
        <ele>554.11</ele>
        <time>2020-08-16T08:49:33.000Z</time>
      </trkpt>
      <trkpt lat="45.11975" lon="5.82841">
        <ele>559.25</ele>
        <time>2020-08-16T08:49:38.000Z</time>
      </trkpt>
      <trkpt lat="45.11965" lon="5.82838">
        <ele>558.57</ele>
        <time>2020-08-16T08:49:43.000Z</time>
      </trkpt>
      <trkpt lat="45.11956" lon="5.82829">
        <ele>559.65</ele>
        <time>2020-08-16T08:49:48.000Z</time>
      </trkpt>
      <trkpt lat="45.11945" lon="5.8281">
        <ele>558.12</ele>
        <time>2020-08-16T08:49:53.000Z</time>
      </trkpt>
      <trkpt lat="45.1193" lon="5.82796">
        <ele>559.38</ele>
        <time>2020-08-16T08:49:58.000Z</time>
      </trkpt>
      <trkpt lat="45.11914" lon="5.82786">
        <ele>558.72</ele>
        <time>2020-08-16T08:50:03.000Z</time>
      </trkpt>
      <trkpt lat="45.119" lon="5.8277">
        <ele>560.24</ele>
        <time>2020-08-16T08:50:08.000Z</time>
      </trkpt>
      <trkpt lat="45.11882" lon="5.82743">
        <ele>559.99</ele>
        <time>2020-08-16T08:50:13.000Z</time>
      </trkpt>
      <trkpt lat="45.11872" lon="5.82715">
        <ele>558.13</ele>
        <time>2020-08-16T08:50:18.000Z</time>
      </trkpt>
      <trkpt lat="45.11854" lon="5.82691">
        <ele>556.09</ele>
        <time>2020-08-16T08:50:23.000Z</time>
      </trkpt>
      <trkpt lat="45.1184" lon="5.82663">
        <ele>556.23</ele>
        <time>2020-08-16T08:50:28.000Z</time>
      </trkpt>
      <trkpt lat="45.11826" lon="5.82625">
        <ele>552.07</ele>
        <time>2020-08-16T08:50:33.000Z</time>
      </trkpt>
      <trkpt lat="45.11807" lon="5.82585">
        <ele>552.42</ele>
        <time>2020-08-16T08:50:38.000Z</time>
      </trkpt>
      <trkpt lat="45.11791" lon="5.82543">
        <ele>552.95</ele>
        <time>2020-08-16T08:50:43.000Z</time>
      </trkpt>
      <trkpt lat="45.11771" lon="5.8251">
        <ele>549.72</ele>
        <time>2020-08-16T08:50:48.000Z</time>
      </trkpt>
      <trkpt lat="45.11749" lon="5.82476">
        <ele>547.2</ele>
        <time>2020-08-16T08:50:53.000Z</time>
      </trkpt>
      <trkpt lat="45.11725" lon="5.82436">
        <ele>546.68</ele>
        <time>2020-08-16T08:50:58.000Z</time>
      </trkpt>
      <trkpt lat="45.11686" lon="5.82402">
        <ele>548.8</ele>
        <time>2020-08-16T08:51:03.000Z</time>
      </trkpt>
      <trkpt lat="45.11644" lon="5.82369">
        <ele>547.96</ele>
        <time>2020-08-16T08:51:08.000Z</time>
      </trkpt>
      <trkpt lat="45.11593" lon="5.82336">
        <ele>545.79</ele>
        <time>2020-08-16T08:51:13.000Z</time>
      </trkpt>
      <trkpt lat="45.11548" lon="5.82315">
        <ele>543.25</ele>
        <time>2020-08-16T08:51:18.000Z</time>
      </trkpt>
      <trkpt lat="45.11512" lon="5.8229">
        <ele>536.16</ele>
        <time>2020-08-16T08:51:23.000Z</time>
      </trkpt>
      <trkpt lat="45.1148" lon="5.82274">
        <ele>533.09</ele>
        <time>2020-08-16T08:51:28.000Z</time>
      </trkpt>
      <trkpt lat="45.11445" lon="5.82256">
        <ele>529.05</ele>
        <time>2020-08-16T08:51:33.000Z</time>
      </trkpt>
      <trkpt lat="45.11413" lon="5.82237">
        <ele>525</ele>
        <time>2020-08-16T08:51:38.000Z</time>
      </trkpt>
      <trkpt lat="45.11385" lon="5.82221">
        <ele>523.11</ele>
        <time>2020-08-16T08:51:43.000Z</time>
      </trkpt>
      <trkpt lat="45.11361" lon="5.82209">
        <ele>522.58</ele>
        <time>2020-08-16T08:51:48.000Z</time>
      </trkpt>
      <trkpt lat="45.11349" lon="5.82198">
        <ele>521.3</ele>
        <time>2020-08-16T08:51:53.000Z</time>
      </trkpt>
      <trkpt lat="45.11342" lon="5.82181">
        <ele>521.95</ele>
        <time>2020-08-16T08:51:58.000Z</time>
      </trkpt>
      <trkpt lat="45.11345" lon="5.82161">
        <ele>519.67</ele>
        <time>2020-08-16T08:52:03.000Z</time>
      </trkpt>
      <trkpt lat="45.11345" lon="5.82121">
        <ele>519.41</ele>
        <time>2020-08-16T08:52:08.000Z</time>
      </trkpt>
      <trkpt lat="45.11349" lon="5.82078">
        <ele>516.38</ele>
        <time>2020-08-16T08:52:13.000Z</time>
      </trkpt>
      <trkpt lat="45.1133" lon="5.82038">
        <ele>517.45</ele>
        <time>2020-08-16T08:52:18.000Z</time>
      </trkpt>
      <trkpt lat="45.11293" lon="5.82026">
        <ele>511.28</ele>
        <time>2020-08-16T08:52:23.000Z</time>
      </trkpt>
      <trkpt lat="45.11254" lon="5.82034">
        <ele>511.52</ele>
        <time>2020-08-16T08:52:28.000Z</time>
      </trkpt>
      <trkpt lat="45.11205" lon="5.82065">
        <ele>509.07</ele>
        <time>2020-08-16T08:52:33.000Z</time>
      </trkpt>
      <trkpt lat="45.11166" lon="5.82091">
        <ele>507.41</ele>
        <time>2020-08-16T08:52:38.000Z</time>
      </trkpt>
      <trkpt lat="45.11137" lon="5.82123">
        <ele>504.35</ele>
        <time>2020-08-16T08:52:43.000Z</time>
      </trkpt>
      <trkpt lat="45.11122" lon="5.82175">
        <ele>504.15</ele>
        <time>2020-08-16T08:52:48.000Z</time>
      </trkpt>
      <trkpt lat="45.11111" lon="5.82215">
        <ele>503.52</ele>
        <time>2020-08-16T08:52:53.000Z</time>
      </trkpt>
      <trkpt lat="45.11094" lon="5.82243">
        <ele>508.63</ele>
        <time>2020-08-16T08:52:58.000Z</time>
      </trkpt>
      <trkpt lat="45.11065" lon="5.82241">
        <ele>507.82</ele>
        <time>2020-08-16T08:53:03.000Z</time>
      </trkpt>
      <trkpt lat="45.11038" lon="5.82228">
        <ele>500.31</ele>
        <time>2020-08-16T08:53:08.000Z</time>
      </trkpt>
      <trkpt lat="45.11012" lon="5.82217">
        <ele>493.29</ele>
        <time>2020-08-16T08:53:13.000Z</time>
      </trkpt>
      <trkpt lat="45.10994" lon="5.822">
        <ele>482.38</ele>
        <time>2020-08-16T08:53:18.000Z</time>
      </trkpt>
      <trkpt lat="45.10985" lon="5.82194">
        <ele>479.27</ele>
        <time>2020-08-16T08:53:36.000Z</time>
      </trkpt>
      <trkpt lat="45.10995" lon="5.82196">
        <ele>483.19</ele>
        <time>2020-08-16T08:53:58.000Z</time>
      </trkpt>
      <trkpt lat="45.10993" lon="5.82175">
        <ele>482.66</ele>
        <time>2020-08-16T08:54:47.000Z</time>
      </trkpt>
      <trkpt lat="45.11005" lon="5.82121">
        <ele>464.11</ele>
        <time>2020-08-16T08:54:52.000Z</time>
      </trkpt>
      <trkpt lat="45.1102" lon="5.82065">
        <ele>465.43</ele>
        <time>2020-08-16T08:54:57.000Z</time>
      </trkpt>
      <trkpt lat="45.11021" lon="5.81988">
        <ele>465.39</ele>
        <time>2020-08-16T08:55:02.000Z</time>
      </trkpt>
      <trkpt lat="45.11022" lon="5.81924">
        <ele>460.99</ele>
        <time>2020-08-16T08:55:07.000Z</time>
      </trkpt>
      <trkpt lat="45.11036" lon="5.81875">
        <ele>454.26</ele>
        <time>2020-08-16T08:55:12.000Z</time>
      </trkpt>
      <trkpt lat="45.11073" lon="5.81885">
        <ele>451.99</ele>
        <time>2020-08-16T08:55:17.000Z</time>
      </trkpt>
      <trkpt lat="45.11111" lon="5.81904">
        <ele>449.54</ele>
        <time>2020-08-16T08:55:22.000Z</time>
      </trkpt>
      <trkpt lat="45.11149" lon="5.81903">
        <ele>445.03</ele>
        <time>2020-08-16T08:55:27.000Z</time>
      </trkpt>
      <trkpt lat="45.11189" lon="5.81866">
        <ele>440.73</ele>
        <time>2020-08-16T08:55:32.000Z</time>
      </trkpt>
      <trkpt lat="45.11213" lon="5.81823">
        <ele>433.29</ele>
        <time>2020-08-16T08:55:37.000Z</time>
      </trkpt>
      <trkpt lat="45.11244" lon="5.81781">
        <ele>430.7</ele>
        <time>2020-08-16T08:55:42.000Z</time>
      </trkpt>
      <trkpt lat="45.11275" lon="5.81734">
        <ele>430.45</ele>
        <time>2020-08-16T08:55:47.000Z</time>
      </trkpt>
      <trkpt lat="45.11293" lon="5.81695">
        <ele>431.37</ele>
        <time>2020-08-16T08:55:52.000Z</time>
      </trkpt>
      <trkpt lat="45.113" lon="5.81662">
        <ele>431.46</ele>
        <time>2020-08-16T08:55:57.000Z</time>
      </trkpt>
      <trkpt lat="45.11286" lon="5.81628">
        <ele>432.46</ele>
        <time>2020-08-16T08:56:02.000Z</time>
      </trkpt>
      <trkpt lat="45.11284" lon="5.81595">
        <ele>433.12</ele>
        <time>2020-08-16T08:56:07.000Z</time>
      </trkpt>
      <trkpt lat="45.11284" lon="5.81568">
        <ele>431.5</ele>
        <time>2020-08-16T08:56:12.000Z</time>
      </trkpt>
      <trkpt lat="45.11266" lon="5.81544">
        <ele>430.74</ele>
        <time>2020-08-16T08:56:17.000Z</time>
      </trkpt>
      <trkpt lat="45.11241" lon="5.81538">
        <ele>424.11</ele>
        <time>2020-08-16T08:56:22.000Z</time>
      </trkpt>
      <trkpt lat="45.11244" lon="5.81523">
        <ele>420.59</ele>
        <time>2020-08-16T08:56:27.000Z</time>
      </trkpt>
      <trkpt lat="45.11251" lon="5.81499">
        <ele>420.46</ele>
        <time>2020-08-16T08:56:32.000Z</time>
      </trkpt>
      <trkpt lat="45.11255" lon="5.81467">
        <ele>419.02</ele>
        <time>2020-08-16T08:56:37.000Z</time>
      </trkpt>
      <trkpt lat="45.11232" lon="5.81377">
        <ele>413.85</ele>
        <time>2020-08-16T08:56:42.000Z</time>
      </trkpt>
      <trkpt lat="45.1121" lon="5.81333">
        <ele>411.99</ele>
        <time>2020-08-16T08:56:47.000Z</time>
      </trkpt>
      <trkpt lat="45.11203" lon="5.81306">
        <ele>404.95</ele>
        <time>2020-08-16T08:56:52.000Z</time>
      </trkpt>
      <trkpt lat="45.11201" lon="5.81287">
        <ele>394.02</ele>
        <time>2020-08-16T08:56:57.000Z</time>
      </trkpt>
      <trkpt lat="45.11203" lon="5.81272">
        <ele>381.35</ele>
        <time>2020-08-16T08:57:43.000Z</time>
      </trkpt>
      <trkpt lat="45.11198" lon="5.81233">
        <ele>379.94</ele>
        <time>2020-08-16T08:57:48.000Z</time>
      </trkpt>
      <trkpt lat="45.11175" lon="5.81186">
        <ele>379.41</ele>
        <time>2020-08-16T08:57:53.000Z</time>
      </trkpt>
      <trkpt lat="45.11155" lon="5.81146">
        <ele>377.98</ele>
        <time>2020-08-16T08:57:58.000Z</time>
      </trkpt>
      <trkpt lat="45.11137" lon="5.81094">
        <ele>377.84</ele>
        <time>2020-08-16T08:58:03.000Z</time>
      </trkpt>
      <trkpt lat="45.11119" lon="5.81072">
        <ele>375.38</ele>
        <time>2020-08-16T08:58:08.000Z</time>
      </trkpt>
      <trkpt lat="45.11109" lon="5.81049">
        <ele>373.3</ele>
        <time>2020-08-16T08:58:13.000Z</time>
      </trkpt>
      <trkpt lat="45.11079" lon="5.81009">
        <ele>370.78</ele>
        <time>2020-08-16T08:58:18.000Z</time>
      </trkpt>
      <trkpt lat="45.11045" lon="5.80967">
        <ele>366.01</ele>
        <time>2020-08-16T08:58:23.000Z</time>
      </trkpt>
      <trkpt lat="45.11027" lon="5.80933">
        <ele>363</ele>
        <time>2020-08-16T08:58:28.000Z</time>
      </trkpt>
      <trkpt lat="45.11023" lon="5.80895">
        <ele>361.2</ele>
        <time>2020-08-16T08:58:33.000Z</time>
      </trkpt>
      <trkpt lat="45.11031" lon="5.80853">
        <ele>362.47</ele>
        <time>2020-08-16T08:58:38.000Z</time>
      </trkpt>
      <trkpt lat="45.11046" lon="5.80813">
        <ele>361.26</ele>
        <time>2020-08-16T08:58:43.000Z</time>
      </trkpt>
      <trkpt lat="45.11059" lon="5.80767">
        <ele>357.24</ele>
        <time>2020-08-16T08:58:48.000Z</time>
      </trkpt>
      <trkpt lat="45.11076" lon="5.80733">
        <ele>352.86</ele>
        <time>2020-08-16T08:58:53.000Z</time>
      </trkpt>
      <trkpt lat="45.11082" lon="5.80702">
        <ele>351.74</ele>
        <time>2020-08-16T08:58:58.000Z</time>
      </trkpt>
      <trkpt lat="45.11063" lon="5.80698">
        <ele>353.95</ele>
        <time>2020-08-16T08:59:03.000Z</time>
      </trkpt>
      <trkpt lat="45.11041" lon="5.80698">
        <ele>353.09</ele>
        <time>2020-08-16T08:59:08.000Z</time>
      </trkpt>
      <trkpt lat="45.11014" lon="5.80693">
        <ele>354.51</ele>
        <time>2020-08-16T08:59:13.000Z</time>
      </trkpt>
      <trkpt lat="45.1099" lon="5.80696">
        <ele>355.32</ele>
        <time>2020-08-16T08:59:18.000Z</time>
      </trkpt>
      <trkpt lat="45.10961" lon="5.807">
        <ele>354.67</ele>
        <time>2020-08-16T08:59:23.000Z</time>
      </trkpt>
      <trkpt lat="45.10931" lon="5.80696">
        <ele>353.44</ele>
        <time>2020-08-16T08:59:28.000Z</time>
      </trkpt>
      <trkpt lat="45.10903" lon="5.80702">
        <ele>350.93</ele>
        <time>2020-08-16T08:59:33.000Z</time>
      </trkpt>
      <trkpt lat="45.10879" lon="5.80713">
        <ele>347.56</ele>
        <time>2020-08-16T08:59:38.000Z</time>
      </trkpt>
      <trkpt lat="45.10853" lon="5.8072">
        <ele>345.13</ele>
        <time>2020-08-16T08:59:43.000Z</time>
      </trkpt>
      <trkpt lat="45.10827" lon="5.80721">
        <ele>342.53</ele>
        <time>2020-08-16T08:59:48.000Z</time>
      </trkpt>
      <trkpt lat="45.10798" lon="5.80716">
        <ele>343.5</ele>
        <time>2020-08-16T08:59:53.000Z</time>
      </trkpt>
      <trkpt lat="45.1077" lon="5.8071">
        <ele>344.72</ele>
        <time>2020-08-16T08:59:58.000Z</time>
      </trkpt>
      <trkpt lat="45.10749" lon="5.80701">
        <ele>347.86</ele>
        <time>2020-08-16T09:00:03.000Z</time>
      </trkpt>
      <trkpt lat="45.10729" lon="5.80691">
        <ele>347.63</ele>
        <time>2020-08-16T09:00:08.000Z</time>
      </trkpt>
      <trkpt lat="45.10707" lon="5.80676">
        <ele>346.6</ele>
        <time>2020-08-16T09:00:13.000Z</time>
      </trkpt>
      <trkpt lat="45.10689" lon="5.8066">
        <ele>348.29</ele>
        <time>2020-08-16T09:00:18.000Z</time>
      </trkpt>
      <trkpt lat="45.10664" lon="5.80635">
        <ele>348.63</ele>
        <time>2020-08-16T09:00:23.000Z</time>
      </trkpt>
      <trkpt lat="45.1064" lon="5.80618">
        <ele>348.23</ele>
        <time>2020-08-16T09:00:28.000Z</time>
      </trkpt>
      <trkpt lat="45.10617" lon="5.80603">
        <ele>347.48</ele>
        <time>2020-08-16T09:00:33.000Z</time>
      </trkpt>
      <trkpt lat="45.1059" lon="5.80591">
        <ele>348.02</ele>
        <time>2020-08-16T09:00:38.000Z</time>
      </trkpt>
      <trkpt lat="45.10568" lon="5.80575">
        <ele>346.75</ele>
        <time>2020-08-16T09:00:43.000Z</time>
      </trkpt>
      <trkpt lat="45.10545" lon="5.80569">
        <ele>349.63</ele>
        <time>2020-08-16T09:00:48.000Z</time>
      </trkpt>
      <trkpt lat="45.10521" lon="5.80562">
        <ele>352.95</ele>
        <time>2020-08-16T09:00:53.000Z</time>
      </trkpt>
      <trkpt lat="45.10499" lon="5.80546">
        <ele>351.03</ele>
        <time>2020-08-16T09:00:58.000Z</time>
      </trkpt>
      <trkpt lat="45.10474" lon="5.80527">
        <ele>349.33</ele>
        <time>2020-08-16T09:01:03.000Z</time>
      </trkpt>
      <trkpt lat="45.10452" lon="5.80508">
        <ele>348.99</ele>
        <time>2020-08-16T09:01:08.000Z</time>
      </trkpt>
      <trkpt lat="45.10429" lon="5.80479">
        <ele>346.18</ele>
        <time>2020-08-16T09:01:13.000Z</time>
      </trkpt>
      <trkpt lat="45.10415" lon="5.80464">
        <ele>341.22</ele>
        <time>2020-08-16T09:01:18.000Z</time>
      </trkpt>
      <trkpt lat="45.10393" lon="5.8044">
        <ele>340.66</ele>
        <time>2020-08-16T09:01:23.000Z</time>
      </trkpt>
      <trkpt lat="45.10371" lon="5.80414">
        <ele>342.6</ele>
        <time>2020-08-16T09:01:28.000Z</time>
      </trkpt>
      <trkpt lat="45.1035" lon="5.80391">
        <ele>343.62</ele>
        <time>2020-08-16T09:01:33.000Z</time>
      </trkpt>
      <trkpt lat="45.1033" lon="5.80379">
        <ele>342.49</ele>
        <time>2020-08-16T09:01:38.000Z</time>
      </trkpt>
      <trkpt lat="45.10314" lon="5.80377">
        <ele>340.65</ele>
        <time>2020-08-16T09:01:43.000Z</time>
      </trkpt>
      <trkpt lat="45.10297" lon="5.8037">
        <ele>341.7</ele>
        <time>2020-08-16T09:01:48.000Z</time>
      </trkpt>
      <trkpt lat="45.10281" lon="5.80355">
        <ele>338.94</ele>
        <time>2020-08-16T09:01:53.000Z</time>
      </trkpt>
      <trkpt lat="45.10272" lon="5.80346">
        <ele>339.66</ele>
        <time>2020-08-16T09:01:58.000Z</time>
      </trkpt>
      <trkpt lat="45.10264" lon="5.80338">
        <ele>340.24</ele>
        <time>2020-08-16T09:02:03.000Z</time>
      </trkpt>
      <trkpt lat="45.10253" lon="5.80329">
        <ele>336.99</ele>
        <time>2020-08-16T09:02:08.000Z</time>
      </trkpt>
      <trkpt lat="45.1024" lon="5.80316">
        <ele>337.03</ele>
        <time>2020-08-16T09:02:13.000Z</time>
      </trkpt>
      <trkpt lat="45.10227" lon="5.803">
        <ele>337.71</ele>
        <time>2020-08-16T09:02:18.000Z</time>
      </trkpt>
      <trkpt lat="45.10208" lon="5.80283">
        <ele>336.19</ele>
        <time>2020-08-16T09:02:23.000Z</time>
      </trkpt>
      <trkpt lat="45.10185" lon="5.80279">
        <ele>333.39</ele>
        <time>2020-08-16T09:02:28.000Z</time>
      </trkpt>
      <trkpt lat="45.10166" lon="5.80275">
        <ele>332.23</ele>
        <time>2020-08-16T09:02:33.000Z</time>
      </trkpt>
      <trkpt lat="45.10145" lon="5.80274">
        <ele>335.92</ele>
        <time>2020-08-16T09:02:38.000Z</time>
      </trkpt>
      <trkpt lat="45.1012" lon="5.80269">
        <ele>332.95</ele>
        <time>2020-08-16T09:02:43.000Z</time>
      </trkpt>
      <trkpt lat="45.10099" lon="5.80269">
        <ele>335.12</ele>
        <time>2020-08-16T09:02:48.000Z</time>
      </trkpt>
      <trkpt lat="45.10074" lon="5.80267">
        <ele>331.06</ele>
        <time>2020-08-16T09:02:53.000Z</time>
      </trkpt>
      <trkpt lat="45.10048" lon="5.80283">
        <ele>330.45</ele>
        <time>2020-08-16T09:02:58.000Z</time>
      </trkpt>
      <trkpt lat="45.10032" lon="5.80302">
        <ele>331.76</ele>
        <time>2020-08-16T09:03:03.000Z</time>
      </trkpt>
      <trkpt lat="45.1001" lon="5.80306">
        <ele>330.14</ele>
        <time>2020-08-16T09:03:08.000Z</time>
      </trkpt>
      <trkpt lat="45.09995" lon="5.80318">
        <ele>331.65</ele>
        <time>2020-08-16T09:03:13.000Z</time>
      </trkpt>
      <trkpt lat="45.09975" lon="5.80332">
        <ele>331.85</ele>
        <time>2020-08-16T09:03:18.000Z</time>
      </trkpt>
      <trkpt lat="45.09934" lon="5.80332">
        <ele>330.74</ele>
        <time>2020-08-16T09:03:23.000Z</time>
      </trkpt>
      <trkpt lat="45.09942" lon="5.80337">
        <ele>330.23</ele>
        <time>2020-08-16T09:03:50.000Z</time>
      </trkpt>
      <trkpt lat="45.09933" lon="5.80342">
        <ele>332.85</ele>
        <time>2020-08-16T09:07:46.000Z</time>
      </trkpt>
      <trkpt lat="45.09897" lon="5.80331">
        <ele>333.34</ele>
        <time>2020-08-16T09:07:51.000Z</time>
      </trkpt>
      <trkpt lat="45.09874" lon="5.80332">
        <ele>334.48</ele>
        <time>2020-08-16T09:07:56.000Z</time>
      </trkpt>
      <trkpt lat="45.09852" lon="5.80316">
        <ele>337.05</ele>
        <time>2020-08-16T09:08:01.000Z</time>
      </trkpt>
      <trkpt lat="45.09827" lon="5.80296">
        <ele>335.99</ele>
        <time>2020-08-16T09:08:06.000Z</time>
      </trkpt>
      <trkpt lat="45.09794" lon="5.80276">
        <ele>330</ele>
        <time>2020-08-16T09:08:11.000Z</time>
      </trkpt>
      <trkpt lat="45.0976" lon="5.80244">
        <ele>333.35</ele>
        <time>2020-08-16T09:08:16.000Z</time>
      </trkpt>
      <trkpt lat="45.09734" lon="5.80205">
        <ele>334.59</ele>
        <time>2020-08-16T09:08:21.000Z</time>
      </trkpt>
      <trkpt lat="45.09714" lon="5.80161">
        <ele>327.81</ele>
        <time>2020-08-16T09:08:26.000Z</time>
      </trkpt>
      <trkpt lat="45.09699" lon="5.80119">
        <ele>323.6</ele>
        <time>2020-08-16T09:08:31.000Z</time>
      </trkpt>
      <trkpt lat="45.09685" lon="5.80084">
        <ele>321.67</ele>
        <time>2020-08-16T09:08:36.000Z</time>
      </trkpt>
      <trkpt lat="45.09668" lon="5.80059">
        <ele>317.76</ele>
        <time>2020-08-16T09:08:41.000Z</time>
      </trkpt>
      <trkpt lat="45.09646" lon="5.80024">
        <ele>311.8</ele>
        <time>2020-08-16T09:08:46.000Z</time>
      </trkpt>
      <trkpt lat="45.09627" lon="5.79988">
        <ele>313.97</ele>
        <time>2020-08-16T09:08:51.000Z</time>
      </trkpt>
      <trkpt lat="45.09604" lon="5.79957">
        <ele>314.61</ele>
        <time>2020-08-16T09:08:56.000Z</time>
      </trkpt>
      <trkpt lat="45.09587" lon="5.7992">
        <ele>313.24</ele>
        <time>2020-08-16T09:09:01.000Z</time>
      </trkpt>
      <trkpt lat="45.09568" lon="5.79886">
        <ele>312.27</ele>
        <time>2020-08-16T09:09:06.000Z</time>
      </trkpt>
      <trkpt lat="45.09549" lon="5.79855">
        <ele>308.49</ele>
        <time>2020-08-16T09:09:11.000Z</time>
      </trkpt>
      <trkpt lat="45.09532" lon="5.79825">
        <ele>307.5</ele>
        <time>2020-08-16T09:09:16.000Z</time>
      </trkpt>
      <trkpt lat="45.09514" lon="5.79795">
        <ele>307.25</ele>
        <time>2020-08-16T09:09:21.000Z</time>
      </trkpt>
      <trkpt lat="45.09499" lon="5.79766">
        <ele>308.63</ele>
        <time>2020-08-16T09:09:26.000Z</time>
      </trkpt>
      <trkpt lat="45.09476" lon="5.79736">
        <ele>309.02</ele>
        <time>2020-08-16T09:09:31.000Z</time>
      </trkpt>
      <trkpt lat="45.09465" lon="5.79723">
        <ele>307.03</ele>
        <time>2020-08-16T09:09:36.000Z</time>
      </trkpt>
      <trkpt lat="45.09454" lon="5.79711">
        <ele>305.07</ele>
        <time>2020-08-16T09:09:41.000Z</time>
      </trkpt>
      <trkpt lat="45.09439" lon="5.79695">
        <ele>305.07</ele>
        <time>2020-08-16T09:09:46.000Z</time>
      </trkpt>
      <trkpt lat="45.09419" lon="5.79674">
        <ele>301.32</ele>
        <time>2020-08-16T09:09:51.000Z</time>
      </trkpt>
      <trkpt lat="45.09402" lon="5.79659">
        <ele>301.09</ele>
        <time>2020-08-16T09:09:56.000Z</time>
      </trkpt>
      <trkpt lat="45.09386" lon="5.79635">
        <ele>302.74</ele>
        <time>2020-08-16T09:10:01.000Z</time>
      </trkpt>
      <trkpt lat="45.09374" lon="5.79621">
        <ele>300.11</ele>
        <time>2020-08-16T09:10:06.000Z</time>
      </trkpt>
      <trkpt lat="45.09352" lon="5.79598">
        <ele>297.32</ele>
        <time>2020-08-16T09:10:11.000Z</time>
      </trkpt>
      <trkpt lat="45.09335" lon="5.7957">
        <ele>303.58</ele>
        <time>2020-08-16T09:10:16.000Z</time>
      </trkpt>
      <trkpt lat="45.0932" lon="5.79551">
        <ele>301.59</ele>
        <time>2020-08-16T09:10:21.000Z</time>
      </trkpt>
      <trkpt lat="45.09302" lon="5.79523">
        <ele>298.97</ele>
        <time>2020-08-16T09:10:26.000Z</time>
      </trkpt>
      <trkpt lat="45.09283" lon="5.79499">
        <ele>298.69</ele>
        <time>2020-08-16T09:10:31.000Z</time>
      </trkpt>
      <trkpt lat="45.0926" lon="5.79473">
        <ele>296.56</ele>
        <time>2020-08-16T09:10:36.000Z</time>
      </trkpt>
      <trkpt lat="45.09238" lon="5.79453">
        <ele>292.76</ele>
        <time>2020-08-16T09:10:41.000Z</time>
      </trkpt>
      <trkpt lat="45.09205" lon="5.79434">
        <ele>289.46</ele>
        <time>2020-08-16T09:10:46.000Z</time>
      </trkpt>
      <trkpt lat="45.09176" lon="5.7942">
        <ele>288.01</ele>
        <time>2020-08-16T09:10:51.000Z</time>
      </trkpt>
      <trkpt lat="45.09149" lon="5.79406">
        <ele>288.66</ele>
        <time>2020-08-16T09:10:56.000Z</time>
      </trkpt>
      <trkpt lat="45.09126" lon="5.7939">
        <ele>289.14</ele>
        <time>2020-08-16T09:11:01.000Z</time>
      </trkpt>
      <trkpt lat="45.09098" lon="5.79368">
        <ele>294.89</ele>
        <time>2020-08-16T09:11:06.000Z</time>
      </trkpt>
      <trkpt lat="45.09077" lon="5.7936">
        <ele>293.95</ele>
        <time>2020-08-16T09:11:11.000Z</time>
      </trkpt>
      <trkpt lat="45.09056" lon="5.79344">
        <ele>293.9</ele>
        <time>2020-08-16T09:11:16.000Z</time>
      </trkpt>
      <trkpt lat="45.09039" lon="5.79328">
        <ele>291.89</ele>
        <time>2020-08-16T09:11:21.000Z</time>
      </trkpt>
      <trkpt lat="45.09014" lon="5.79309">
        <ele>289.17</ele>
        <time>2020-08-16T09:11:26.000Z</time>
      </trkpt>
      <trkpt lat="45.08986" lon="5.79294">
        <ele>289.02</ele>
        <time>2020-08-16T09:11:31.000Z</time>
      </trkpt>
      <trkpt lat="45.08957" lon="5.7927">
        <ele>289.03</ele>
        <time>2020-08-16T09:11:36.000Z</time>
      </trkpt>
      <trkpt lat="45.08926" lon="5.7925">
        <ele>290.19</ele>
        <time>2020-08-16T09:11:41.000Z</time>
      </trkpt>
      <trkpt lat="45.089" lon="5.79224">
        <ele>288.42</ele>
        <time>2020-08-16T09:11:46.000Z</time>
      </trkpt>
      <trkpt lat="45.08869" lon="5.79198">
        <ele>288.11</ele>
        <time>2020-08-16T09:11:51.000Z</time>
      </trkpt>
      <trkpt lat="45.08846" lon="5.79171">
        <ele>287.49</ele>
        <time>2020-08-16T09:11:56.000Z</time>
      </trkpt>
      <trkpt lat="45.08832" lon="5.79141">
        <ele>288.89</ele>
        <time>2020-08-16T09:12:01.000Z</time>
      </trkpt>
      <trkpt lat="45.08815" lon="5.79106">
        <ele>289.09</ele>
        <time>2020-08-16T09:12:06.000Z</time>
      </trkpt>
      <trkpt lat="45.08798" lon="5.79082">
        <ele>289.94</ele>
        <time>2020-08-16T09:12:11.000Z</time>
      </trkpt>
      <trkpt lat="45.08781" lon="5.79056">
        <ele>285.1</ele>
        <time>2020-08-16T09:12:16.000Z</time>
      </trkpt>
      <trkpt lat="45.08768" lon="5.79029">
        <ele>286.04</ele>
        <time>2020-08-16T09:12:21.000Z</time>
      </trkpt>
      <trkpt lat="45.08751" lon="5.79006">
        <ele>287.14</ele>
        <time>2020-08-16T09:12:26.000Z</time>
      </trkpt>
      <trkpt lat="45.08731" lon="5.78979">
        <ele>284.83</ele>
        <time>2020-08-16T09:12:31.000Z</time>
      </trkpt>
      <trkpt lat="45.08713" lon="5.78955">
        <ele>284.79</ele>
        <time>2020-08-16T09:12:36.000Z</time>
      </trkpt>
      <trkpt lat="45.08699" lon="5.7893">
        <ele>283.84</ele>
        <time>2020-08-16T09:12:41.000Z</time>
      </trkpt>
      <trkpt lat="45.08687" lon="5.78912">
        <ele>279.31</ele>
        <time>2020-08-16T09:12:46.000Z</time>
      </trkpt>
      <trkpt lat="45.08694" lon="5.78899">
        <ele>275.62</ele>
        <time>2020-08-16T09:12:51.000Z</time>
      </trkpt>
      <trkpt lat="45.08683" lon="5.78888">
        <ele>276.34</ele>
        <time>2020-08-16T09:13:03.000Z</time>
      </trkpt>
      <trkpt lat="45.08656" lon="5.7888">
        <ele>280.74</ele>
        <time>2020-08-16T09:13:08.000Z</time>
      </trkpt>
      <trkpt lat="45.08635" lon="5.78868">
        <ele>279.39</ele>
        <time>2020-08-16T09:13:13.000Z</time>
      </trkpt>
      <trkpt lat="45.08614" lon="5.78854">
        <ele>284.15</ele>
        <time>2020-08-16T09:13:18.000Z</time>
      </trkpt>
      <trkpt lat="45.08598" lon="5.78833">
        <ele>285.64</ele>
        <time>2020-08-16T09:13:23.000Z</time>
      </trkpt>
      <trkpt lat="45.08582" lon="5.78811">
        <ele>288.23</ele>
        <time>2020-08-16T09:13:28.000Z</time>
      </trkpt>
      <trkpt lat="45.08566" lon="5.78783">
        <ele>291.34</ele>
        <time>2020-08-16T09:13:33.000Z</time>
      </trkpt>
      <trkpt lat="45.08546" lon="5.7876">
        <ele>291.93</ele>
        <time>2020-08-16T09:13:38.000Z</time>
      </trkpt>
      <trkpt lat="45.08527" lon="5.78745">
        <ele>288.53</ele>
        <time>2020-08-16T09:13:43.000Z</time>
      </trkpt>
      <trkpt lat="45.08505" lon="5.78732">
        <ele>288.21</ele>
        <time>2020-08-16T09:13:48.000Z</time>
      </trkpt>
      <trkpt lat="45.08481" lon="5.78717">
        <ele>291.72</ele>
        <time>2020-08-16T09:13:53.000Z</time>
      </trkpt>
      <trkpt lat="45.08452" lon="5.78704">
        <ele>290.32</ele>
        <time>2020-08-16T09:13:58.000Z</time>
      </trkpt>
      <trkpt lat="45.08431" lon="5.78683">
        <ele>291.78</ele>
        <time>2020-08-16T09:14:03.000Z</time>
      </trkpt>
      <trkpt lat="45.08414" lon="5.78657">
        <ele>291.29</ele>
        <time>2020-08-16T09:14:08.000Z</time>
      </trkpt>
      <trkpt lat="45.08414" lon="5.78622">
        <ele>288.09</ele>
        <time>2020-08-16T09:14:13.000Z</time>
      </trkpt>
      <trkpt lat="45.08399" lon="5.78592">
        <ele>290.31</ele>
        <time>2020-08-16T09:14:18.000Z</time>
      </trkpt>
      <trkpt lat="45.08377" lon="5.78575">
        <ele>288.33</ele>
        <time>2020-08-16T09:14:23.000Z</time>
      </trkpt>
      <trkpt lat="45.0835" lon="5.78555">
        <ele>288.41</ele>
        <time>2020-08-16T09:14:28.000Z</time>
      </trkpt>
      <trkpt lat="45.08328" lon="5.7853">
        <ele>290.9</ele>
        <time>2020-08-16T09:14:33.000Z</time>
      </trkpt>
      <trkpt lat="45.0831" lon="5.78505">
        <ele>292.96</ele>
        <time>2020-08-16T09:14:38.000Z</time>
      </trkpt>
      <trkpt lat="45.08294" lon="5.7849">
        <ele>290.92</ele>
        <time>2020-08-16T09:14:43.000Z</time>
      </trkpt>
      <trkpt lat="45.08281" lon="5.7847">
        <ele>290.44</ele>
        <time>2020-08-16T09:14:48.000Z</time>
      </trkpt>
      <trkpt lat="45.08264" lon="5.78448">
        <ele>287.28</ele>
        <time>2020-08-16T09:14:53.000Z</time>
      </trkpt>
      <trkpt lat="45.08248" lon="5.78429">
        <ele>287.61</ele>
        <time>2020-08-16T09:14:58.000Z</time>
      </trkpt>
      <trkpt lat="45.08234" lon="5.78409">
        <ele>290.81</ele>
        <time>2020-08-16T09:15:03.000Z</time>
      </trkpt>
      <trkpt lat="45.08219" lon="5.78387">
        <ele>287.43</ele>
        <time>2020-08-16T09:15:08.000Z</time>
      </trkpt>
      <trkpt lat="45.08201" lon="5.78361">
        <ele>290.8</ele>
        <time>2020-08-16T09:15:13.000Z</time>
      </trkpt>
      <trkpt lat="45.08184" lon="5.78337">
        <ele>295.81</ele>
        <time>2020-08-16T09:15:18.000Z</time>
      </trkpt>
      <trkpt lat="45.08164" lon="5.78312">
        <ele>297.64</ele>
        <time>2020-08-16T09:15:23.000Z</time>
      </trkpt>
      <trkpt lat="45.08144" lon="5.78299">
        <ele>293.79</ele>
        <time>2020-08-16T09:15:28.000Z</time>
      </trkpt>
      <trkpt lat="45.08122" lon="5.78276">
        <ele>294.16</ele>
        <time>2020-08-16T09:15:33.000Z</time>
      </trkpt>
      <trkpt lat="45.08095" lon="5.78258">
        <ele>291.6</ele>
        <time>2020-08-16T09:15:38.000Z</time>
      </trkpt>
      <trkpt lat="45.0807" lon="5.78241">
        <ele>290.92</ele>
        <time>2020-08-16T09:15:43.000Z</time>
      </trkpt>
      <trkpt lat="45.08045" lon="5.78231">
        <ele>289.06</ele>
        <time>2020-08-16T09:15:48.000Z</time>
      </trkpt>
      <trkpt lat="45.08027" lon="5.78215">
        <ele>291.85</ele>
        <time>2020-08-16T09:15:53.000Z</time>
      </trkpt>
      <trkpt lat="45.08003" lon="5.78193">
        <ele>290.51</ele>
        <time>2020-08-16T09:15:58.000Z</time>
      </trkpt>
      <trkpt lat="45.07994" lon="5.7816">
        <ele>289</ele>
        <time>2020-08-16T09:16:03.000Z</time>
      </trkpt>
      <trkpt lat="45.07983" lon="5.78128">
        <ele>288.07</ele>
        <time>2020-08-16T09:16:08.000Z</time>
      </trkpt>
      <trkpt lat="45.07972" lon="5.78097">
        <ele>285.78</ele>
        <time>2020-08-16T09:16:13.000Z</time>
      </trkpt>
      <trkpt lat="45.07959" lon="5.78067">
        <ele>284.49</ele>
        <time>2020-08-16T09:16:18.000Z</time>
      </trkpt>
      <trkpt lat="45.07952" lon="5.78037">
        <ele>282.74</ele>
        <time>2020-08-16T09:16:23.000Z</time>
      </trkpt>
      <trkpt lat="45.07954" lon="5.77997">
        <ele>280.83</ele>
        <time>2020-08-16T09:16:28.000Z</time>
      </trkpt>
      <trkpt lat="45.07957" lon="5.77968">
        <ele>280.1</ele>
        <time>2020-08-16T09:16:33.000Z</time>
      </trkpt>
      <trkpt lat="45.07961" lon="5.7793">
        <ele>279.26</ele>
        <time>2020-08-16T09:16:38.000Z</time>
      </trkpt>
      <trkpt lat="45.07967" lon="5.77904">
        <ele>276.48</ele>
        <time>2020-08-16T09:16:43.000Z</time>
      </trkpt>
      <trkpt lat="45.07956" lon="5.77869">
        <ele>276.68</ele>
        <time>2020-08-16T09:16:48.000Z</time>
      </trkpt>
      <trkpt lat="45.07946" lon="5.77837">
        <ele>282.2</ele>
        <time>2020-08-16T09:16:53.000Z</time>
      </trkpt>
      <trkpt lat="45.07944" lon="5.77803">
        <ele>284.98</ele>
        <time>2020-08-16T09:16:58.000Z</time>
      </trkpt>
      <trkpt lat="45.07949" lon="5.77764">
        <ele>287.51</ele>
        <time>2020-08-16T09:17:03.000Z</time>
      </trkpt>
      <trkpt lat="45.07958" lon="5.77733">
        <ele>285.89</ele>
        <time>2020-08-16T09:17:08.000Z</time>
      </trkpt>
      <trkpt lat="45.07971" lon="5.7771">
        <ele>284.57</ele>
        <time>2020-08-16T09:17:13.000Z</time>
      </trkpt>
      <trkpt lat="45.07979" lon="5.77683">
        <ele>282.81</ele>
        <time>2020-08-16T09:17:18.000Z</time>
      </trkpt>
      <trkpt lat="45.07967" lon="5.77649">
        <ele>281.35</ele>
        <time>2020-08-16T09:17:23.000Z</time>
      </trkpt>
      <trkpt lat="45.0796" lon="5.77636">
        <ele>279.99</ele>
        <time>2020-08-16T09:17:28.000Z</time>
      </trkpt>
      <trkpt lat="45.0795" lon="5.77631">
        <ele>278.32</ele>
        <time>2020-08-16T09:17:33.000Z</time>
      </trkpt>
      <trkpt lat="45.0794" lon="5.77616">
        <ele>278.12</ele>
        <time>2020-08-16T09:17:38.000Z</time>
      </trkpt>
      <trkpt lat="45.07928" lon="5.77599">
        <ele>275.59</ele>
        <time>2020-08-16T09:17:43.000Z</time>
      </trkpt>
      <trkpt lat="45.07915" lon="5.77584">
        <ele>277.18</ele>
        <time>2020-08-16T09:17:48.000Z</time>
      </trkpt>
      <trkpt lat="45.07906" lon="5.77565">
        <ele>275.88</ele>
        <time>2020-08-16T09:17:53.000Z</time>
      </trkpt>
      <trkpt lat="45.07911" lon="5.77545">
        <ele>272.52</ele>
        <time>2020-08-16T09:17:58.000Z</time>
      </trkpt>
      <trkpt lat="45.07922" lon="5.77552">
        <ele>273.8</ele>
        <time>2020-08-16T09:18:03.000Z</time>
      </trkpt>
      <trkpt lat="45.07932" lon="5.77548">
        <ele>279.46</ele>
        <time>2020-08-16T09:18:25.000Z</time>
      </trkpt>
      <trkpt lat="45.07948" lon="5.77544">
        <ele>278.96</ele>
        <time>2020-08-16T09:18:30.000Z</time>
      </trkpt>
      <trkpt lat="45.07964" lon="5.77548">
        <ele>280.92</ele>
        <time>2020-08-16T09:18:35.000Z</time>
      </trkpt>
      <trkpt lat="45.07979" lon="5.77553">
        <ele>288.93</ele>
        <time>2020-08-16T09:18:40.000Z</time>
      </trkpt>
      <trkpt lat="45.07994" lon="5.77561">
        <ele>286.75</ele>
        <time>2020-08-16T09:18:45.000Z</time>
      </trkpt>
      <trkpt lat="45.08012" lon="5.77569">
        <ele>288.33</ele>
        <time>2020-08-16T09:18:50.000Z</time>
      </trkpt>
      <trkpt lat="45.0804" lon="5.77572">
        <ele>287.64</ele>
        <time>2020-08-16T09:18:55.000Z</time>
      </trkpt>
      <trkpt lat="45.08058" lon="5.77592">
        <ele>286.68</ele>
        <time>2020-08-16T09:19:00.000Z</time>
      </trkpt>
      <trkpt lat="45.08076" lon="5.77615">
        <ele>290.31</ele>
        <time>2020-08-16T09:19:05.000Z</time>
      </trkpt>
      <trkpt lat="45.08087" lon="5.77637">
        <ele>294.68</ele>
        <time>2020-08-16T09:19:10.000Z</time>
      </trkpt>
      <trkpt lat="45.08101" lon="5.77658">
        <ele>296.03</ele>
        <time>2020-08-16T09:19:15.000Z</time>
      </trkpt>
      <trkpt lat="45.08116" lon="5.77679">
        <ele>298.45</ele>
        <time>2020-08-16T09:19:20.000Z</time>
      </trkpt>
      <trkpt lat="45.08133" lon="5.77691">
        <ele>301.43</ele>
        <time>2020-08-16T09:19:25.000Z</time>
      </trkpt>
      <trkpt lat="45.08137" lon="5.77703">
        <ele>302.28</ele>
        <time>2020-08-16T09:19:31.000Z</time>
      </trkpt>
      <trkpt lat="45.08149" lon="5.77706">
        <ele>300.3</ele>
        <time>2020-08-16T09:19:36.000Z</time>
      </trkpt>
      <trkpt lat="45.08173" lon="5.77704">
        <ele>301.12</ele>
        <time>2020-08-16T09:19:41.000Z</time>
      </trkpt>
      <trkpt lat="45.08198" lon="5.777">
        <ele>305.7</ele>
        <time>2020-08-16T09:19:46.000Z</time>
      </trkpt>
      <trkpt lat="45.08211" lon="5.77688">
        <ele>309.1</ele>
        <time>2020-08-16T09:19:51.000Z</time>
      </trkpt>
      <trkpt lat="45.08222" lon="5.77693">
        <ele>311.42</ele>
        <time>2020-08-16T09:20:15.000Z</time>
      </trkpt>
      <trkpt lat="45.08244" lon="5.777">
        <ele>313.57</ele>
        <time>2020-08-16T09:20:20.000Z</time>
      </trkpt>
      <trkpt lat="45.08263" lon="5.77707">
        <ele>318.83</ele>
        <time>2020-08-16T09:20:25.000Z</time>
      </trkpt>
      <trkpt lat="45.08281" lon="5.77712">
        <ele>321.25</ele>
        <time>2020-08-16T09:20:30.000Z</time>
      </trkpt>
      <trkpt lat="45.0829" lon="5.77709">
        <ele>318.2</ele>
        <time>2020-08-16T09:20:36.000Z</time>
      </trkpt>
      <trkpt lat="45.08294" lon="5.77693">
        <ele>321.87</ele>
        <time>2020-08-16T09:20:41.000Z</time>
      </trkpt>
      <trkpt lat="45.08304" lon="5.77672">
        <ele>324.49</ele>
        <time>2020-08-16T09:20:46.000Z</time>
      </trkpt>
      <trkpt lat="45.08324" lon="5.77675">
        <ele>322.91</ele>
        <time>2020-08-16T09:20:51.000Z</time>
      </trkpt>
      <trkpt lat="45.0835" lon="5.77674">
        <ele>324.9</ele>
        <time>2020-08-16T09:20:56.000Z</time>
      </trkpt>
      <trkpt lat="45.08386" lon="5.77673">
        <ele>324.23</ele>
        <time>2020-08-16T09:21:01.000Z</time>
      </trkpt>
      <trkpt lat="45.08418" lon="5.77673">
        <ele>325.83</ele>
        <time>2020-08-16T09:21:06.000Z</time>
      </trkpt>
      <trkpt lat="45.08438" lon="5.77664">
        <ele>324.49</ele>
        <time>2020-08-16T09:21:11.000Z</time>
      </trkpt>
      <trkpt lat="45.08455" lon="5.77674">
        <ele>323.47</ele>
        <time>2020-08-16T09:21:16.000Z</time>
      </trkpt>
      <trkpt lat="45.08474" lon="5.77685">
        <ele>323.33</ele>
        <time>2020-08-16T09:21:21.000Z</time>
      </trkpt>
      <trkpt lat="45.08488" lon="5.77697">
        <ele>324.63</ele>
        <time>2020-08-16T09:21:26.000Z</time>
      </trkpt>
      <trkpt lat="45.08503" lon="5.77708">
        <ele>325.45</ele>
        <time>2020-08-16T09:21:31.000Z</time>
      </trkpt>
      <trkpt lat="45.08517" lon="5.77722">
        <ele>323.29</ele>
        <time>2020-08-16T09:21:36.000Z</time>
      </trkpt>
      <trkpt lat="45.08531" lon="5.77743">
        <ele>319.91</ele>
        <time>2020-08-16T09:21:41.000Z</time>
      </trkpt>
      <trkpt lat="45.08553" lon="5.77756">
        <ele>319.38</ele>
        <time>2020-08-16T09:21:46.000Z</time>
      </trkpt>
      <trkpt lat="45.08563" lon="5.77764">
        <ele>322</ele>
        <time>2020-08-16T09:21:51.000Z</time>
      </trkpt>
      <trkpt lat="45.08581" lon="5.77768">
        <ele>326.18</ele>
        <time>2020-08-16T09:21:56.000Z</time>
      </trkpt>
      <trkpt lat="45.08591" lon="5.77781">
        <ele>326.97</ele>
        <time>2020-08-16T09:22:01.000Z</time>
      </trkpt>
      <trkpt lat="45.08601" lon="5.77799">
        <ele>327.24</ele>
        <time>2020-08-16T09:22:06.000Z</time>
      </trkpt>
      <trkpt lat="45.08615" lon="5.77812">
        <ele>327.07</ele>
        <time>2020-08-16T09:22:11.000Z</time>
      </trkpt>
      <trkpt lat="45.08622" lon="5.77835">
        <ele>325.94</ele>
        <time>2020-08-16T09:22:16.000Z</time>
      </trkpt>
      <trkpt lat="45.08638" lon="5.77847">
        <ele>325.99</ele>
        <time>2020-08-16T09:22:21.000Z</time>
      </trkpt>
      <trkpt lat="45.0866" lon="5.77859">
        <ele>328.65</ele>
        <time>2020-08-16T09:22:26.000Z</time>
      </trkpt>
      <trkpt lat="45.08676" lon="5.77875">
        <ele>330.06</ele>
        <time>2020-08-16T09:22:31.000Z</time>
      </trkpt>
      <trkpt lat="45.08689" lon="5.77891">
        <ele>329.87</ele>
        <time>2020-08-16T09:22:36.000Z</time>
      </trkpt>
      <trkpt lat="45.08701" lon="5.77904">
        <ele>333.6</ele>
        <time>2020-08-16T09:22:41.000Z</time>
      </trkpt>
      <trkpt lat="45.08718" lon="5.77917">
        <ele>334.01</ele>
        <time>2020-08-16T09:22:46.000Z</time>
      </trkpt>
      <trkpt lat="45.08726" lon="5.77927">
        <ele>336.94</ele>
        <time>2020-08-16T09:22:51.000Z</time>
      </trkpt>
      <trkpt lat="45.08739" lon="5.77938">
        <ele>339.47</ele>
        <time>2020-08-16T09:22:56.000Z</time>
      </trkpt>
      <trkpt lat="45.08756" lon="5.77948">
        <ele>339.39</ele>
        <time>2020-08-16T09:23:01.000Z</time>
      </trkpt>
      <trkpt lat="45.08767" lon="5.77955">
        <ele>338.98</ele>
        <time>2020-08-16T09:23:06.000Z</time>
      </trkpt>
      <trkpt lat="45.08785" lon="5.77959">
        <ele>339.51</ele>
        <time>2020-08-16T09:23:11.000Z</time>
      </trkpt>
      <trkpt lat="45.08803" lon="5.77961">
        <ele>343.21</ele>
        <time>2020-08-16T09:23:16.000Z</time>
      </trkpt>
      <trkpt lat="45.08822" lon="5.77963">
        <ele>345.69</ele>
        <time>2020-08-16T09:23:21.000Z</time>
      </trkpt>
      <trkpt lat="45.08832" lon="5.77969">
        <ele>346.11</ele>
        <time>2020-08-16T09:23:26.000Z</time>
      </trkpt>
      <trkpt lat="45.08848" lon="5.77978">
        <ele>347.76</ele>
        <time>2020-08-16T09:23:31.000Z</time>
      </trkpt>
      <trkpt lat="45.08863" lon="5.77984">
        <ele>348.54</ele>
        <time>2020-08-16T09:23:36.000Z</time>
      </trkpt>
      <trkpt lat="45.08879" lon="5.77992">
        <ele>350.17</ele>
        <time>2020-08-16T09:23:41.000Z</time>
      </trkpt>
      <trkpt lat="45.08895" lon="5.78003">
        <ele>348.92</ele>
        <time>2020-08-16T09:23:46.000Z</time>
      </trkpt>
      <trkpt lat="45.08914" lon="5.78009">
        <ele>350.32</ele>
        <time>2020-08-16T09:23:51.000Z</time>
      </trkpt>
      <trkpt lat="45.08934" lon="5.78006">
        <ele>349.18</ele>
        <time>2020-08-16T09:23:56.000Z</time>
      </trkpt>
      <trkpt lat="45.0895" lon="5.78004">
        <ele>349.79</ele>
        <time>2020-08-16T09:24:01.000Z</time>
      </trkpt>
      <trkpt lat="45.08961" lon="5.77995">
        <ele>349.71</ele>
        <time>2020-08-16T09:24:06.000Z</time>
      </trkpt>
      <trkpt lat="45.08974" lon="5.77983">
        <ele>355.62</ele>
        <time>2020-08-16T09:24:11.000Z</time>
      </trkpt>
      <trkpt lat="45.0899" lon="5.77976">
        <ele>361.23</ele>
        <time>2020-08-16T09:24:16.000Z</time>
      </trkpt>
      <trkpt lat="45.09001" lon="5.77964">
        <ele>365.68</ele>
        <time>2020-08-16T09:24:21.000Z</time>
      </trkpt>
      <trkpt lat="45.09014" lon="5.77958">
        <ele>368.32</ele>
        <time>2020-08-16T09:24:26.000Z</time>
      </trkpt>
      <trkpt lat="45.09034" lon="5.77958">
        <ele>369.71</ele>
        <time>2020-08-16T09:24:31.000Z</time>
      </trkpt>
      <trkpt lat="45.09049" lon="5.7796">
        <ele>368.28</ele>
        <time>2020-08-16T09:24:36.000Z</time>
      </trkpt>
      <trkpt lat="45.09064" lon="5.7796">
        <ele>368.27</ele>
        <time>2020-08-16T09:24:41.000Z</time>
      </trkpt>
      <trkpt lat="45.09079" lon="5.77956">
        <ele>370.5</ele>
        <time>2020-08-16T09:24:46.000Z</time>
      </trkpt>
      <trkpt lat="45.09098" lon="5.77941">
        <ele>373.05</ele>
        <time>2020-08-16T09:24:51.000Z</time>
      </trkpt>
      <trkpt lat="45.09112" lon="5.77919">
        <ele>376.59</ele>
        <time>2020-08-16T09:24:56.000Z</time>
      </trkpt>
      <trkpt lat="45.09122" lon="5.77895">
        <ele>381.59</ele>
        <time>2020-08-16T09:25:01.000Z</time>
      </trkpt>
      <trkpt lat="45.0913" lon="5.77872">
        <ele>382.52</ele>
        <time>2020-08-16T09:25:06.000Z</time>
      </trkpt>
      <trkpt lat="45.09136" lon="5.77851">
        <ele>380.44</ele>
        <time>2020-08-16T09:25:11.000Z</time>
      </trkpt>
      <trkpt lat="45.09143" lon="5.77827">
        <ele>382.54</ele>
        <time>2020-08-16T09:25:16.000Z</time>
      </trkpt>
      <trkpt lat="45.09147" lon="5.77804">
        <ele>386.34</ele>
        <time>2020-08-16T09:25:21.000Z</time>
      </trkpt>
      <trkpt lat="45.09152" lon="5.77784">
        <ele>385.78</ele>
        <time>2020-08-16T09:25:26.000Z</time>
      </trkpt>
      <trkpt lat="45.0916" lon="5.7777">
        <ele>386.52</ele>
        <time>2020-08-16T09:25:31.000Z</time>
      </trkpt>
      <trkpt lat="45.09169" lon="5.77749">
        <ele>385.02</ele>
        <time>2020-08-16T09:25:36.000Z</time>
      </trkpt>
      <trkpt lat="45.09174" lon="5.77728">
        <ele>389.88</ele>
        <time>2020-08-16T09:25:41.000Z</time>
      </trkpt>
      <trkpt lat="45.09175" lon="5.777">
        <ele>391.08</ele>
        <time>2020-08-16T09:25:46.000Z</time>
      </trkpt>
      <trkpt lat="45.09179" lon="5.7768">
        <ele>390</ele>
        <time>2020-08-16T09:25:51.000Z</time>
      </trkpt>
      <trkpt lat="45.09182" lon="5.77697">
        <ele>387.05</ele>
        <time>2020-08-16T09:25:56.000Z</time>
      </trkpt>
      <trkpt lat="45.09177" lon="5.77719">
        <ele>387.67</ele>
        <time>2020-08-16T09:26:01.000Z</time>
      </trkpt>
      <trkpt lat="45.09175" lon="5.77745">
        <ele>388.31</ele>
        <time>2020-08-16T09:26:06.000Z</time>
      </trkpt>
      <trkpt lat="45.09175" lon="5.77769">
        <ele>387.82</ele>
        <time>2020-08-16T09:26:11.000Z</time>
      </trkpt>
      <trkpt lat="45.09177" lon="5.77793">
        <ele>391.13</ele>
        <time>2020-08-16T09:26:16.000Z</time>
      </trkpt>
      <trkpt lat="45.09175" lon="5.77818">
        <ele>387.94</ele>
        <time>2020-08-16T09:26:21.000Z</time>
      </trkpt>
      <trkpt lat="45.09178" lon="5.77842">
        <ele>386.45</ele>
        <time>2020-08-16T09:26:26.000Z</time>
      </trkpt>
      <trkpt lat="45.09182" lon="5.77866">
        <ele>391.59</ele>
        <time>2020-08-16T09:26:31.000Z</time>
      </trkpt>
      <trkpt lat="45.09182" lon="5.77885">
        <ele>398.99</ele>
        <time>2020-08-16T09:26:36.000Z</time>
      </trkpt>
      <trkpt lat="45.09189" lon="5.77905">
        <ele>406.72</ele>
        <time>2020-08-16T09:26:41.000Z</time>
      </trkpt>
      <trkpt lat="45.092" lon="5.77926">
        <ele>410.94</ele>
        <time>2020-08-16T09:26:46.000Z</time>
      </trkpt>
      <trkpt lat="45.09215" lon="5.77943">
        <ele>412.05</ele>
        <time>2020-08-16T09:26:51.000Z</time>
      </trkpt>
      <trkpt lat="45.09231" lon="5.7796">
        <ele>411.56</ele>
        <time>2020-08-16T09:26:56.000Z</time>
      </trkpt>
      <trkpt lat="45.09243" lon="5.77975">
        <ele>410.77</ele>
        <time>2020-08-16T09:27:01.000Z</time>
      </trkpt>
      <trkpt lat="45.09258" lon="5.7799">
        <ele>410.28</ele>
        <time>2020-08-16T09:27:06.000Z</time>
      </trkpt>
      <trkpt lat="45.09275" lon="5.78007">
        <ele>411.87</ele>
        <time>2020-08-16T09:27:11.000Z</time>
      </trkpt>
      <trkpt lat="45.09302" lon="5.78028">
        <ele>413.18</ele>
        <time>2020-08-16T09:27:16.000Z</time>
      </trkpt>
      <trkpt lat="45.09311" lon="5.78043">
        <ele>412.36</ele>
        <time>2020-08-16T09:27:21.000Z</time>
      </trkpt>
      <trkpt lat="45.09313" lon="5.78071">
        <ele>416.69</ele>
        <time>2020-08-16T09:27:26.000Z</time>
      </trkpt>
      <trkpt lat="45.09333" lon="5.78091">
        <ele>425.89</ele>
        <time>2020-08-16T09:27:31.000Z</time>
      </trkpt>
      <trkpt lat="45.09354" lon="5.78111">
        <ele>428.66</ele>
        <time>2020-08-16T09:27:36.000Z</time>
      </trkpt>
      <trkpt lat="45.0937" lon="5.78132">
        <ele>428.91</ele>
        <time>2020-08-16T09:27:41.000Z</time>
      </trkpt>
      <trkpt lat="45.09383" lon="5.78149">
        <ele>427.07</ele>
        <time>2020-08-16T09:27:46.000Z</time>
      </trkpt>
      <trkpt lat="45.09398" lon="5.78164">
        <ele>431.27</ele>
        <time>2020-08-16T09:27:51.000Z</time>
      </trkpt>
      <trkpt lat="45.09417" lon="5.78191">
        <ele>435.53</ele>
        <time>2020-08-16T09:27:56.000Z</time>
      </trkpt>
      <trkpt lat="45.09442" lon="5.7821">
        <ele>438.33</ele>
        <time>2020-08-16T09:28:01.000Z</time>
      </trkpt>
      <trkpt lat="45.09454" lon="5.78237">
        <ele>438.31</ele>
        <time>2020-08-16T09:28:06.000Z</time>
      </trkpt>
      <trkpt lat="45.09468" lon="5.78265">
        <ele>443.97</ele>
        <time>2020-08-16T09:28:11.000Z</time>
      </trkpt>
      <trkpt lat="45.09493" lon="5.78278">
        <ele>445.7</ele>
        <time>2020-08-16T09:28:16.000Z</time>
      </trkpt>
      <trkpt lat="45.09517" lon="5.78294">
        <ele>445.6</ele>
        <time>2020-08-16T09:28:21.000Z</time>
      </trkpt>
      <trkpt lat="45.09536" lon="5.78314">
        <ele>449.31</ele>
        <time>2020-08-16T09:28:26.000Z</time>
      </trkpt>
      <trkpt lat="45.09553" lon="5.78333">
        <ele>447.02</ele>
        <time>2020-08-16T09:28:31.000Z</time>
      </trkpt>
      <trkpt lat="45.09582" lon="5.78348">
        <ele>447.83</ele>
        <time>2020-08-16T09:28:36.000Z</time>
      </trkpt>
      <trkpt lat="45.09601" lon="5.78366">
        <ele>448.97</ele>
        <time>2020-08-16T09:28:41.000Z</time>
      </trkpt>
      <trkpt lat="45.09611" lon="5.7839">
        <ele>449.52</ele>
        <time>2020-08-16T09:28:46.000Z</time>
      </trkpt>
      <trkpt lat="45.09628" lon="5.78414">
        <ele>448.99</ele>
        <time>2020-08-16T09:28:51.000Z</time>
      </trkpt>
      <trkpt lat="45.09641" lon="5.78433">
        <ele>452.14</ele>
        <time>2020-08-16T09:28:56.000Z</time>
      </trkpt>
      <trkpt lat="45.09649" lon="5.7845">
        <ele>452.35</ele>
        <time>2020-08-16T09:29:01.000Z</time>
      </trkpt>
      <trkpt lat="45.09666" lon="5.78469">
        <ele>451.43</ele>
        <time>2020-08-16T09:29:06.000Z</time>
      </trkpt>
      <trkpt lat="45.09685" lon="5.78483">
        <ele>453.12</ele>
        <time>2020-08-16T09:29:11.000Z</time>
      </trkpt>
      <trkpt lat="45.0971" lon="5.78499">
        <ele>454.15</ele>
        <time>2020-08-16T09:29:16.000Z</time>
      </trkpt>
      <trkpt lat="45.09731" lon="5.78516">
        <ele>452.19</ele>
        <time>2020-08-16T09:29:21.000Z</time>
      </trkpt>
      <trkpt lat="45.09748" lon="5.78533">
        <ele>452.48</ele>
        <time>2020-08-16T09:29:26.000Z</time>
      </trkpt>
      <trkpt lat="45.09762" lon="5.78548">
        <ele>451.67</ele>
        <time>2020-08-16T09:29:31.000Z</time>
      </trkpt>
      <trkpt lat="45.09796" lon="5.78562">
        <ele>450.9</ele>
        <time>2020-08-16T09:29:36.000Z</time>
      </trkpt>
      <trkpt lat="45.09812" lon="5.78579">
        <ele>456.19</ele>
        <time>2020-08-16T09:29:41.000Z</time>
      </trkpt>
      <trkpt lat="45.09846" lon="5.78581">
        <ele>459.83</ele>
        <time>2020-08-16T09:29:46.000Z</time>
      </trkpt>
      <trkpt lat="45.09877" lon="5.78592">
        <ele>457.92</ele>
        <time>2020-08-16T09:29:51.000Z</time>
      </trkpt>
      <trkpt lat="45.09902" lon="5.78603">
        <ele>459.32</ele>
        <time>2020-08-16T09:29:56.000Z</time>
      </trkpt>
      <trkpt lat="45.09927" lon="5.78614">
        <ele>458.77</ele>
        <time>2020-08-16T09:30:01.000Z</time>
      </trkpt>
      <trkpt lat="45.0996" lon="5.78633">
        <ele>457.81</ele>
        <time>2020-08-16T09:30:06.000Z</time>
      </trkpt>
      <trkpt lat="45.09981" lon="5.78638">
        <ele>458.98</ele>
        <time>2020-08-16T09:30:11.000Z</time>
      </trkpt>
      <trkpt lat="45.10002" lon="5.78644">
        <ele>458.09</ele>
        <time>2020-08-16T09:30:16.000Z</time>
      </trkpt>
      <trkpt lat="45.10031" lon="5.78668">
        <ele>456.85</ele>
        <time>2020-08-16T09:30:21.000Z</time>
      </trkpt>
      <trkpt lat="45.10055" lon="5.78694">
        <ele>454.76</ele>
        <time>2020-08-16T09:30:26.000Z</time>
      </trkpt>
      <trkpt lat="45.10086" lon="5.78715">
        <ele>455.5</ele>
        <time>2020-08-16T09:30:31.000Z</time>
      </trkpt>
      <trkpt lat="45.10119" lon="5.7874">
        <ele>457.7</ele>
        <time>2020-08-16T09:30:36.000Z</time>
      </trkpt>
      <trkpt lat="45.10152" lon="5.78762">
        <ele>454.96</ele>
        <time>2020-08-16T09:30:41.000Z</time>
      </trkpt>
      <trkpt lat="45.10182" lon="5.78784">
        <ele>453.92</ele>
        <time>2020-08-16T09:30:46.000Z</time>
      </trkpt>
      <trkpt lat="45.10202" lon="5.78812">
        <ele>455.3</ele>
        <time>2020-08-16T09:30:51.000Z</time>
      </trkpt>
      <trkpt lat="45.10235" lon="5.78835">
        <ele>451.25</ele>
        <time>2020-08-16T09:30:56.000Z</time>
      </trkpt>
      <trkpt lat="45.10253" lon="5.78859">
        <ele>449.99</ele>
        <time>2020-08-16T09:31:01.000Z</time>
      </trkpt>
      <trkpt lat="45.10282" lon="5.78876">
        <ele>446.63</ele>
        <time>2020-08-16T09:31:06.000Z</time>
      </trkpt>
      <trkpt lat="45.10311" lon="5.78893">
        <ele>444.21</ele>
        <time>2020-08-16T09:31:11.000Z</time>
      </trkpt>
      <trkpt lat="45.10341" lon="5.78911">
        <ele>445.7</ele>
        <time>2020-08-16T09:31:16.000Z</time>
      </trkpt>
      <trkpt lat="45.10364" lon="5.78923">
        <ele>442.8</ele>
        <time>2020-08-16T09:31:21.000Z</time>
      </trkpt>
      <trkpt lat="45.1039" lon="5.78944">
        <ele>446.26</ele>
        <time>2020-08-16T09:31:26.000Z</time>
      </trkpt>
      <trkpt lat="45.10419" lon="5.7896">
        <ele>448.89</ele>
        <time>2020-08-16T09:31:31.000Z</time>
      </trkpt>
      <trkpt lat="45.10435" lon="5.7898">
        <ele>448.14</ele>
        <time>2020-08-16T09:31:36.000Z</time>
      </trkpt>
      <trkpt lat="45.10467" lon="5.79005">
        <ele>451.79</ele>
        <time>2020-08-16T09:31:41.000Z</time>
      </trkpt>
      <trkpt lat="45.10492" lon="5.79022">
        <ele>450.9</ele>
        <time>2020-08-16T09:31:46.000Z</time>
      </trkpt>
      <trkpt lat="45.1052" lon="5.79041">
        <ele>449.93</ele>
        <time>2020-08-16T09:31:51.000Z</time>
      </trkpt>
      <trkpt lat="45.10546" lon="5.79068">
        <ele>445.72</ele>
        <time>2020-08-16T09:31:56.000Z</time>
      </trkpt>
      <trkpt lat="45.10578" lon="5.79072">
        <ele>442.11</ele>
        <time>2020-08-16T09:32:01.000Z</time>
      </trkpt>
      <trkpt lat="45.1061" lon="5.79084">
        <ele>441.89</ele>
        <time>2020-08-16T09:32:06.000Z</time>
      </trkpt>
      <trkpt lat="45.10633" lon="5.79084">
        <ele>441.86</ele>
        <time>2020-08-16T09:32:11.000Z</time>
      </trkpt>
      <trkpt lat="45.10663" lon="5.79085">
        <ele>442.15</ele>
        <time>2020-08-16T09:32:16.000Z</time>
      </trkpt>
      <trkpt lat="45.10685" lon="5.7909">
        <ele>446.61</ele>
        <time>2020-08-16T09:32:21.000Z</time>
      </trkpt>
      <trkpt lat="45.10706" lon="5.7909">
        <ele>448.19</ele>
        <time>2020-08-16T09:32:26.000Z</time>
      </trkpt>
      <trkpt lat="45.1073" lon="5.7909">
        <ele>443.78</ele>
        <time>2020-08-16T09:32:31.000Z</time>
      </trkpt>
      <trkpt lat="45.10746" lon="5.7909">
        <ele>447.41</ele>
        <time>2020-08-16T09:32:36.000Z</time>
      </trkpt>
      <trkpt lat="45.10766" lon="5.79085">
        <ele>453.4</ele>
        <time>2020-08-16T09:32:41.000Z</time>
      </trkpt>
      <trkpt lat="45.1079" lon="5.79074">
        <ele>454.29</ele>
        <time>2020-08-16T09:32:46.000Z</time>
      </trkpt>
      <trkpt lat="45.10813" lon="5.79047">
        <ele>464.49</ele>
        <time>2020-08-16T09:32:51.000Z</time>
      </trkpt>
      <trkpt lat="45.10832" lon="5.79021">
        <ele>470.08</ele>
        <time>2020-08-16T09:32:56.000Z</time>
      </trkpt>
      <trkpt lat="45.10857" lon="5.78995">
        <ele>472.01</ele>
        <time>2020-08-16T09:33:01.000Z</time>
      </trkpt>
      <trkpt lat="45.10879" lon="5.78971">
        <ele>473.8</ele>
        <time>2020-08-16T09:33:06.000Z</time>
      </trkpt>
      <trkpt lat="45.10894" lon="5.78947">
        <ele>474.54</ele>
        <time>2020-08-16T09:33:11.000Z</time>
      </trkpt>
      <trkpt lat="45.10909" lon="5.78926">
        <ele>473.56</ele>
        <time>2020-08-16T09:33:16.000Z</time>
      </trkpt>
      <trkpt lat="45.10933" lon="5.7891">
        <ele>468.58</ele>
        <time>2020-08-16T09:33:21.000Z</time>
      </trkpt>
      <trkpt lat="45.10952" lon="5.78885">
        <ele>472.06</ele>
        <time>2020-08-16T09:33:26.000Z</time>
      </trkpt>
      <trkpt lat="45.10974" lon="5.78853">
        <ele>476.82</ele>
        <time>2020-08-16T09:33:31.000Z</time>
      </trkpt>
      <trkpt lat="45.10996" lon="5.78822">
        <ele>479.18</ele>
        <time>2020-08-16T09:33:36.000Z</time>
      </trkpt>
      <trkpt lat="45.11013" lon="5.78795">
        <ele>480.9</ele>
        <time>2020-08-16T09:33:41.000Z</time>
      </trkpt>
      <trkpt lat="45.11021" lon="5.78781">
        <ele>480.08</ele>
        <time>2020-08-16T09:33:46.000Z</time>
      </trkpt>
      <trkpt lat="45.11033" lon="5.78786">
        <ele>477.38</ele>
        <time>2020-08-16T09:33:51.000Z</time>
      </trkpt>
      <trkpt lat="45.11037" lon="5.78773">
        <ele>481.59</ele>
        <time>2020-08-16T09:34:08.000Z</time>
      </trkpt>
      <trkpt lat="45.11032" lon="5.78759">
        <ele>486.05</ele>
        <time>2020-08-16T09:34:13.000Z</time>
      </trkpt>
      <trkpt lat="45.11044" lon="5.78751">
        <ele>481.57</ele>
        <time>2020-08-16T09:37:05.000Z</time>
      </trkpt>
      <trkpt lat="45.11068" lon="5.78732">
        <ele>485.51</ele>
        <time>2020-08-16T09:37:10.000Z</time>
      </trkpt>
      <trkpt lat="45.11088" lon="5.78706">
        <ele>485.61</ele>
        <time>2020-08-16T09:37:15.000Z</time>
      </trkpt>
      <trkpt lat="45.11114" lon="5.78668">
        <ele>485.55</ele>
        <time>2020-08-16T09:37:20.000Z</time>
      </trkpt>
      <trkpt lat="45.11132" lon="5.7863">
        <ele>483.9</ele>
        <time>2020-08-16T09:37:25.000Z</time>
      </trkpt>
      <trkpt lat="45.11153" lon="5.78608">
        <ele>486.42</ele>
        <time>2020-08-16T09:37:30.000Z</time>
      </trkpt>
      <trkpt lat="45.11173" lon="5.7859">
        <ele>486.92</ele>
        <time>2020-08-16T09:37:35.000Z</time>
      </trkpt>
      <trkpt lat="45.11193" lon="5.78571">
        <ele>491.54</ele>
        <time>2020-08-16T09:37:40.000Z</time>
      </trkpt>
      <trkpt lat="45.11211" lon="5.78559">
        <ele>491.96</ele>
        <time>2020-08-16T09:37:45.000Z</time>
      </trkpt>
      <trkpt lat="45.11232" lon="5.78549">
        <ele>487.52</ele>
        <time>2020-08-16T09:37:50.000Z</time>
      </trkpt>
      <trkpt lat="45.1125" lon="5.78534">
        <ele>487.67</ele>
        <time>2020-08-16T09:37:55.000Z</time>
      </trkpt>
      <trkpt lat="45.11268" lon="5.78526">
        <ele>484.47</ele>
        <time>2020-08-16T09:38:00.000Z</time>
      </trkpt>
      <trkpt lat="45.11286" lon="5.78514">
        <ele>483.49</ele>
        <time>2020-08-16T09:38:05.000Z</time>
      </trkpt>
      <trkpt lat="45.11309" lon="5.78509">
        <ele>484.45</ele>
        <time>2020-08-16T09:38:10.000Z</time>
      </trkpt>
      <trkpt lat="45.11335" lon="5.78497">
        <ele>485.89</ele>
        <time>2020-08-16T09:38:15.000Z</time>
      </trkpt>
      <trkpt lat="45.11353" lon="5.78483">
        <ele>484.53</ele>
        <time>2020-08-16T09:38:20.000Z</time>
      </trkpt>
      <trkpt lat="45.11377" lon="5.78475">
        <ele>485.98</ele>
        <time>2020-08-16T09:38:25.000Z</time>
      </trkpt>
      <trkpt lat="45.114" lon="5.78463">
        <ele>483.49</ele>
        <time>2020-08-16T09:38:30.000Z</time>
      </trkpt>
      <trkpt lat="45.11428" lon="5.78451">
        <ele>483.46</ele>
        <time>2020-08-16T09:38:35.000Z</time>
      </trkpt>
      <trkpt lat="45.11451" lon="5.78437">
        <ele>486.07</ele>
        <time>2020-08-16T09:38:40.000Z</time>
      </trkpt>
      <trkpt lat="45.11475" lon="5.78425">
        <ele>487.32</ele>
        <time>2020-08-16T09:38:45.000Z</time>
      </trkpt>
      <trkpt lat="45.11502" lon="5.78412">
        <ele>488.5</ele>
        <time>2020-08-16T09:38:50.000Z</time>
      </trkpt>
      <trkpt lat="45.11533" lon="5.78396">
        <ele>484.76</ele>
        <time>2020-08-16T09:38:55.000Z</time>
      </trkpt>
      <trkpt lat="45.11574" lon="5.78378">
        <ele>485.72</ele>
        <time>2020-08-16T09:39:00.000Z</time>
      </trkpt>
      <trkpt lat="45.11612" lon="5.78357">
        <ele>486.09</ele>
        <time>2020-08-16T09:39:05.000Z</time>
      </trkpt>
      <trkpt lat="45.11645" lon="5.78343">
        <ele>487.22</ele>
        <time>2020-08-16T09:39:10.000Z</time>
      </trkpt>
      <trkpt lat="45.11678" lon="5.78331">
        <ele>488.99</ele>
        <time>2020-08-16T09:39:15.000Z</time>
      </trkpt>
      <trkpt lat="45.11708" lon="5.78328">
        <ele>486.61</ele>
        <time>2020-08-16T09:39:20.000Z</time>
      </trkpt>
      <trkpt lat="45.11737" lon="5.78307">
        <ele>486.01</ele>
        <time>2020-08-16T09:39:25.000Z</time>
      </trkpt>
      <trkpt lat="45.11761" lon="5.78295">
        <ele>482.46</ele>
        <time>2020-08-16T09:39:30.000Z</time>
      </trkpt>
      <trkpt lat="45.11793" lon="5.78281">
        <ele>479.25</ele>
        <time>2020-08-16T09:39:35.000Z</time>
      </trkpt>
      <trkpt lat="45.11822" lon="5.78275">
        <ele>476.54</ele>
        <time>2020-08-16T09:39:40.000Z</time>
      </trkpt>
      <trkpt lat="45.11857" lon="5.78263">
        <ele>469.16</ele>
        <time>2020-08-16T09:39:45.000Z</time>
      </trkpt>
      <trkpt lat="45.11894" lon="5.78247">
        <ele>464.42</ele>
        <time>2020-08-16T09:39:50.000Z</time>
      </trkpt>
      <trkpt lat="45.11932" lon="5.78229">
        <ele>464.45</ele>
        <time>2020-08-16T09:39:55.000Z</time>
      </trkpt>
      <trkpt lat="45.11972" lon="5.78211">
        <ele>462.44</ele>
        <time>2020-08-16T09:40:00.000Z</time>
      </trkpt>
      <trkpt lat="45.12014" lon="5.78192">
        <ele>462.69</ele>
        <time>2020-08-16T09:40:05.000Z</time>
      </trkpt>
      <trkpt lat="45.12056" lon="5.78169">
        <ele>461.29</ele>
        <time>2020-08-16T09:40:10.000Z</time>
      </trkpt>
      <trkpt lat="45.12098" lon="5.78147">
        <ele>460.95</ele>
        <time>2020-08-16T09:40:15.000Z</time>
      </trkpt>
      <trkpt lat="45.12138" lon="5.78129">
        <ele>459.15</ele>
        <time>2020-08-16T09:40:20.000Z</time>
      </trkpt>
      <trkpt lat="45.1217" lon="5.78109">
        <ele>457.87</ele>
        <time>2020-08-16T09:40:25.000Z</time>
      </trkpt>
      <trkpt lat="45.12211" lon="5.78089">
        <ele>461.02</ele>
        <time>2020-08-16T09:40:30.000Z</time>
      </trkpt>
      <trkpt lat="45.12248" lon="5.7807">
        <ele>460.85</ele>
        <time>2020-08-16T09:40:35.000Z</time>
      </trkpt>
      <trkpt lat="45.12283" lon="5.78058">
        <ele>457.83</ele>
        <time>2020-08-16T09:40:40.000Z</time>
      </trkpt>
      <trkpt lat="45.12317" lon="5.78039">
        <ele>461.51</ele>
        <time>2020-08-16T09:40:45.000Z</time>
      </trkpt>
      <trkpt lat="45.12353" lon="5.78023">
        <ele>464.12</ele>
        <time>2020-08-16T09:40:50.000Z</time>
      </trkpt>
      <trkpt lat="45.12382" lon="5.78008">
        <ele>467.81</ele>
        <time>2020-08-16T09:40:55.000Z</time>
      </trkpt>
      <trkpt lat="45.12414" lon="5.7799">
        <ele>468.33</ele>
        <time>2020-08-16T09:41:00.000Z</time>
      </trkpt>
      <trkpt lat="45.12446" lon="5.77979">
        <ele>463.46</ele>
        <time>2020-08-16T09:41:05.000Z</time>
      </trkpt>
      <trkpt lat="45.12472" lon="5.77965">
        <ele>465.33</ele>
        <time>2020-08-16T09:41:10.000Z</time>
      </trkpt>
      <trkpt lat="45.12504" lon="5.7795">
        <ele>464.52</ele>
        <time>2020-08-16T09:41:15.000Z</time>
      </trkpt>
      <trkpt lat="45.12536" lon="5.77937">
        <ele>462.63</ele>
        <time>2020-08-16T09:41:20.000Z</time>
      </trkpt>
      <trkpt lat="45.12568" lon="5.77923">
        <ele>462.87</ele>
        <time>2020-08-16T09:41:25.000Z</time>
      </trkpt>
      <trkpt lat="45.12605" lon="5.77908">
        <ele>462.29</ele>
        <time>2020-08-16T09:41:30.000Z</time>
      </trkpt>
      <trkpt lat="45.12648" lon="5.77885">
        <ele>459.44</ele>
        <time>2020-08-16T09:41:35.000Z</time>
      </trkpt>
      <trkpt lat="45.1269" lon="5.7786">
        <ele>457.17</ele>
        <time>2020-08-16T09:41:40.000Z</time>
      </trkpt>
      <trkpt lat="45.1273" lon="5.77844">
        <ele>454.2</ele>
        <time>2020-08-16T09:41:45.000Z</time>
      </trkpt>
      <trkpt lat="45.12771" lon="5.7782">
        <ele>451.82</ele>
        <time>2020-08-16T09:41:50.000Z</time>
      </trkpt>
      <trkpt lat="45.12824" lon="5.77799">
        <ele>447.98</ele>
        <time>2020-08-16T09:41:55.000Z</time>
      </trkpt>
      <trkpt lat="45.12883" lon="5.77771">
        <ele>447.3</ele>
        <time>2020-08-16T09:42:00.000Z</time>
      </trkpt>
      <trkpt lat="45.12938" lon="5.77749">
        <ele>441.61</ele>
        <time>2020-08-16T09:42:05.000Z</time>
      </trkpt>
      <trkpt lat="45.12987" lon="5.77722">
        <ele>436.04</ele>
        <time>2020-08-16T09:42:10.000Z</time>
      </trkpt>
      <trkpt lat="45.13042" lon="5.77698">
        <ele>427.28</ele>
        <time>2020-08-16T09:42:15.000Z</time>
      </trkpt>
      <trkpt lat="45.131" lon="5.7767">
        <ele>423.33</ele>
        <time>2020-08-16T09:42:20.000Z</time>
      </trkpt>
      <trkpt lat="45.13163" lon="5.7764">
        <ele>418.63</ele>
        <time>2020-08-16T09:42:25.000Z</time>
      </trkpt>
      <trkpt lat="45.13227" lon="5.77611">
        <ele>413.47</ele>
        <time>2020-08-16T09:42:30.000Z</time>
      </trkpt>
      <trkpt lat="45.13279" lon="5.77558">
        <ele>408.43</ele>
        <time>2020-08-16T09:42:35.000Z</time>
      </trkpt>
      <trkpt lat="45.13324" lon="5.77493">
        <ele>400.26</ele>
        <time>2020-08-16T09:42:40.000Z</time>
      </trkpt>
      <trkpt lat="45.13371" lon="5.77424">
        <ele>394.26</ele>
        <time>2020-08-16T09:42:45.000Z</time>
      </trkpt>
      <trkpt lat="45.13413" lon="5.77357">
        <ele>389.28</ele>
        <time>2020-08-16T09:42:50.000Z</time>
      </trkpt>
      <trkpt lat="45.13456" lon="5.77298">
        <ele>384.66</ele>
        <time>2020-08-16T09:42:55.000Z</time>
      </trkpt>
      <trkpt lat="45.13493" lon="5.77241">
        <ele>381.48</ele>
        <time>2020-08-16T09:43:00.000Z</time>
      </trkpt>
      <trkpt lat="45.13527" lon="5.77199">
        <ele>379.01</ele>
        <time>2020-08-16T09:43:05.000Z</time>
      </trkpt>
      <trkpt lat="45.13561" lon="5.77201">
        <ele>370.61</ele>
        <time>2020-08-16T09:43:10.000Z</time>
      </trkpt>
      <trkpt lat="45.13584" lon="5.77192">
        <ele>369.16</ele>
        <time>2020-08-16T09:43:15.000Z</time>
      </trkpt>
      <trkpt lat="45.13608" lon="5.77186">
        <ele>368.25</ele>
        <time>2020-08-16T09:43:20.000Z</time>
      </trkpt>
      <trkpt lat="45.13634" lon="5.77184">
        <ele>366.82</ele>
        <time>2020-08-16T09:43:25.000Z</time>
      </trkpt>
      <trkpt lat="45.13662" lon="5.77192">
        <ele>369.78</ele>
        <time>2020-08-16T09:43:30.000Z</time>
      </trkpt>
      <trkpt lat="45.13686" lon="5.77205">
        <ele>368.95</ele>
        <time>2020-08-16T09:43:35.000Z</time>
      </trkpt>
      <trkpt lat="45.13703" lon="5.77226">
        <ele>368.45</ele>
        <time>2020-08-16T09:43:40.000Z</time>
      </trkpt>
      <trkpt lat="45.13713" lon="5.77249">
        <ele>367.9</ele>
        <time>2020-08-16T09:43:45.000Z</time>
      </trkpt>
      <trkpt lat="45.13718" lon="5.77275">
        <ele>368.49</ele>
        <time>2020-08-16T09:43:50.000Z</time>
      </trkpt>
      <trkpt lat="45.13721" lon="5.773">
        <ele>372.31</ele>
        <time>2020-08-16T09:43:55.000Z</time>
      </trkpt>
      <trkpt lat="45.13724" lon="5.77326">
        <ele>369.78</ele>
        <time>2020-08-16T09:44:00.000Z</time>
      </trkpt>
      <trkpt lat="45.13738" lon="5.77345">
        <ele>369.16</ele>
        <time>2020-08-16T09:44:05.000Z</time>
      </trkpt>
      <trkpt lat="45.13756" lon="5.7735">
        <ele>370.37</ele>
        <time>2020-08-16T09:44:10.000Z</time>
      </trkpt>
      <trkpt lat="45.13774" lon="5.77351">
        <ele>375.46</ele>
        <time>2020-08-16T09:44:15.000Z</time>
      </trkpt>
      <trkpt lat="45.13795" lon="5.77352">
        <ele>378.77</ele>
        <time>2020-08-16T09:44:20.000Z</time>
      </trkpt>
      <trkpt lat="45.13814" lon="5.77355">
        <ele>378.15</ele>
        <time>2020-08-16T09:44:25.000Z</time>
      </trkpt>
      <trkpt lat="45.13833" lon="5.77354">
        <ele>377.46</ele>
        <time>2020-08-16T09:44:30.000Z</time>
      </trkpt>
      <trkpt lat="45.13853" lon="5.77353">
        <ele>381.14</ele>
        <time>2020-08-16T09:44:35.000Z</time>
      </trkpt>
      <trkpt lat="45.13877" lon="5.77356">
        <ele>380.5</ele>
        <time>2020-08-16T09:44:40.000Z</time>
      </trkpt>
      <trkpt lat="45.13899" lon="5.7736">
        <ele>381.72</ele>
        <time>2020-08-16T09:44:45.000Z</time>
      </trkpt>
      <trkpt lat="45.13919" lon="5.77363">
        <ele>383.65</ele>
        <time>2020-08-16T09:44:50.000Z</time>
      </trkpt>
      <trkpt lat="45.13934" lon="5.77367">
        <ele>380.39</ele>
        <time>2020-08-16T09:44:55.000Z</time>
      </trkpt>
      <trkpt lat="45.13953" lon="5.77373">
        <ele>378.06</ele>
        <time>2020-08-16T09:45:00.000Z</time>
      </trkpt>
      <trkpt lat="45.13975" lon="5.77376">
        <ele>379.62</ele>
        <time>2020-08-16T09:45:05.000Z</time>
      </trkpt>
      <trkpt lat="45.13991" lon="5.77392">
        <ele>381.75</ele>
        <time>2020-08-16T09:45:10.000Z</time>
      </trkpt>
      <trkpt lat="45.14003" lon="5.77411">
        <ele>382.25</ele>
        <time>2020-08-16T09:45:15.000Z</time>
      </trkpt>
      <trkpt lat="45.14018" lon="5.77431">
        <ele>384.47</ele>
        <time>2020-08-16T09:45:20.000Z</time>
      </trkpt>
      <trkpt lat="45.14027" lon="5.77451">
        <ele>383.33</ele>
        <time>2020-08-16T09:45:25.000Z</time>
      </trkpt>
      <trkpt lat="45.14037" lon="5.77477">
        <ele>379.42</ele>
        <time>2020-08-16T09:45:30.000Z</time>
      </trkpt>
      <trkpt lat="45.14039" lon="5.77506">
        <ele>383.75</ele>
        <time>2020-08-16T09:45:35.000Z</time>
      </trkpt>
      <trkpt lat="45.1403" lon="5.77529">
        <ele>387.12</ele>
        <time>2020-08-16T09:45:40.000Z</time>
      </trkpt>
      <trkpt lat="45.14017" lon="5.77553">
        <ele>390.24</ele>
        <time>2020-08-16T09:45:45.000Z</time>
      </trkpt>
      <trkpt lat="45.14005" lon="5.77575">
        <ele>387.4</ele>
        <time>2020-08-16T09:45:50.000Z</time>
      </trkpt>
      <trkpt lat="45.13993" lon="5.77596">
        <ele>389.97</ele>
        <time>2020-08-16T09:45:55.000Z</time>
      </trkpt>
      <trkpt lat="45.13982" lon="5.77616">
        <ele>392.34</ele>
        <time>2020-08-16T09:46:00.000Z</time>
      </trkpt>
      <trkpt lat="45.13971" lon="5.77636">
        <ele>393.09</ele>
        <time>2020-08-16T09:46:05.000Z</time>
      </trkpt>
      <trkpt lat="45.13962" lon="5.77656">
        <ele>394.36</ele>
        <time>2020-08-16T09:46:10.000Z</time>
      </trkpt>
      <trkpt lat="45.13949" lon="5.77675">
        <ele>397.06</ele>
        <time>2020-08-16T09:46:15.000Z</time>
      </trkpt>
      <trkpt lat="45.13936" lon="5.77693">
        <ele>395.85</ele>
        <time>2020-08-16T09:46:20.000Z</time>
      </trkpt>
      <trkpt lat="45.13924" lon="5.7771">
        <ele>395.84</ele>
        <time>2020-08-16T09:46:25.000Z</time>
      </trkpt>
      <trkpt lat="45.13921" lon="5.7773">
        <ele>400.59</ele>
        <time>2020-08-16T09:46:30.000Z</time>
      </trkpt>
      <trkpt lat="45.13931" lon="5.77753">
        <ele>405.02</ele>
        <time>2020-08-16T09:46:35.000Z</time>
      </trkpt>
      <trkpt lat="45.1395" lon="5.77764">
        <ele>405.36</ele>
        <time>2020-08-16T09:46:40.000Z</time>
      </trkpt>
      <trkpt lat="45.13969" lon="5.77767">
        <ele>407.59</ele>
        <time>2020-08-16T09:46:45.000Z</time>
      </trkpt>
      <trkpt lat="45.1399" lon="5.77772">
        <ele>412.49</ele>
        <time>2020-08-16T09:46:50.000Z</time>
      </trkpt>
      <trkpt lat="45.14006" lon="5.77782">
        <ele>414.06</ele>
        <time>2020-08-16T09:46:55.000Z</time>
      </trkpt>
      <trkpt lat="45.14025" lon="5.77787">
        <ele>416.02</ele>
        <time>2020-08-16T09:47:00.000Z</time>
      </trkpt>
      <trkpt lat="45.14043" lon="5.77795">
        <ele>417.03</ele>
        <time>2020-08-16T09:47:05.000Z</time>
      </trkpt>
      <trkpt lat="45.14061" lon="5.7781">
        <ele>416.91</ele>
        <time>2020-08-16T09:47:10.000Z</time>
      </trkpt>
      <trkpt lat="45.14068" lon="5.77832">
        <ele>418.9</ele>
        <time>2020-08-16T09:47:15.000Z</time>
      </trkpt>
      <trkpt lat="45.14067" lon="5.7785">
        <ele>420.67</ele>
        <time>2020-08-16T09:47:20.000Z</time>
      </trkpt>
      <trkpt lat="45.14052" lon="5.77867">
        <ele>419.5</ele>
        <time>2020-08-16T09:47:25.000Z</time>
      </trkpt>
      <trkpt lat="45.14047" lon="5.77878">
        <ele>418</ele>
        <time>2020-08-16T09:47:37.000Z</time>
      </trkpt>
      <trkpt lat="45.14038" lon="5.77889">
        <ele>419.15</ele>
        <time>2020-08-16T09:47:42.000Z</time>
      </trkpt>
      <trkpt lat="45.14018" lon="5.77912">
        <ele>415.22</ele>
        <time>2020-08-16T09:47:47.000Z</time>
      </trkpt>
      <trkpt lat="45.14008" lon="5.77942">
        <ele>418.01</ele>
        <time>2020-08-16T09:47:52.000Z</time>
      </trkpt>
      <trkpt lat="45.14" lon="5.77976">
        <ele>416.33</ele>
        <time>2020-08-16T09:47:57.000Z</time>
      </trkpt>
      <trkpt lat="45.13993" lon="5.78001">
        <ele>418.06</ele>
        <time>2020-08-16T09:48:02.000Z</time>
      </trkpt>
      <trkpt lat="45.13985" lon="5.78027">
        <ele>419.56</ele>
        <time>2020-08-16T09:48:07.000Z</time>
      </trkpt>
      <trkpt lat="45.1398" lon="5.7805">
        <ele>419.65</ele>
        <time>2020-08-16T09:48:12.000Z</time>
      </trkpt>
      <trkpt lat="45.13974" lon="5.78075">
        <ele>423.35</ele>
        <time>2020-08-16T09:48:17.000Z</time>
      </trkpt>
      <trkpt lat="45.13973" lon="5.78103">
        <ele>424.38</ele>
        <time>2020-08-16T09:48:22.000Z</time>
      </trkpt>
      <trkpt lat="45.13975" lon="5.78136">
        <ele>427.43</ele>
        <time>2020-08-16T09:48:27.000Z</time>
      </trkpt>
      <trkpt lat="45.13979" lon="5.78167">
        <ele>427.84</ele>
        <time>2020-08-16T09:48:32.000Z</time>
      </trkpt>
      <trkpt lat="45.13981" lon="5.78202">
        <ele>428.51</ele>
        <time>2020-08-16T09:48:37.000Z</time>
      </trkpt>
      <trkpt lat="45.1399" lon="5.78232">
        <ele>432.01</ele>
        <time>2020-08-16T09:48:42.000Z</time>
      </trkpt>
      <trkpt lat="45.13994" lon="5.78261">
        <ele>435.05</ele>
        <time>2020-08-16T09:48:47.000Z</time>
      </trkpt>
      <trkpt lat="45.14001" lon="5.78287">
        <ele>438.61</ele>
        <time>2020-08-16T09:48:52.000Z</time>
      </trkpt>
      <trkpt lat="45.1401" lon="5.78314">
        <ele>443.54</ele>
        <time>2020-08-16T09:48:57.000Z</time>
      </trkpt>
      <trkpt lat="45.1402" lon="5.78341">
        <ele>447.22</ele>
        <time>2020-08-16T09:49:02.000Z</time>
      </trkpt>
      <trkpt lat="45.14024" lon="5.78368">
        <ele>449.57</ele>
        <time>2020-08-16T09:49:07.000Z</time>
      </trkpt>
      <trkpt lat="45.14012" lon="5.78395">
        <ele>450.07</ele>
        <time>2020-08-16T09:49:12.000Z</time>
      </trkpt>
      <trkpt lat="45.14001" lon="5.7842">
        <ele>450.41</ele>
        <time>2020-08-16T09:49:17.000Z</time>
      </trkpt>
      <trkpt lat="45.13994" lon="5.78445">
        <ele>450.43</ele>
        <time>2020-08-16T09:49:22.000Z</time>
      </trkpt>
      <trkpt lat="45.1399" lon="5.78469">
        <ele>449.05</ele>
        <time>2020-08-16T09:49:27.000Z</time>
      </trkpt>
      <trkpt lat="45.13986" lon="5.78489">
        <ele>451.45</ele>
        <time>2020-08-16T09:49:32.000Z</time>
      </trkpt>
      <trkpt lat="45.13979" lon="5.78509">
        <ele>451.64</ele>
        <time>2020-08-16T09:49:37.000Z</time>
      </trkpt>
      <trkpt lat="45.1397" lon="5.78534">
        <ele>453.73</ele>
        <time>2020-08-16T09:49:42.000Z</time>
      </trkpt>
      <trkpt lat="45.1396" lon="5.78559">
        <ele>453.06</ele>
        <time>2020-08-16T09:49:47.000Z</time>
      </trkpt>
      <trkpt lat="45.13951" lon="5.78585">
        <ele>456.54</ele>
        <time>2020-08-16T09:49:52.000Z</time>
      </trkpt>
      <trkpt lat="45.13951" lon="5.78614">
        <ele>463.56</ele>
        <time>2020-08-16T09:49:57.000Z</time>
      </trkpt>
      <trkpt lat="45.1395" lon="5.78643">
        <ele>466.42</ele>
        <time>2020-08-16T09:50:02.000Z</time>
      </trkpt>
      <trkpt lat="45.13949" lon="5.78669">
        <ele>469.1</ele>
        <time>2020-08-16T09:50:07.000Z</time>
      </trkpt>
      <trkpt lat="45.13945" lon="5.78694">
        <ele>472.68</ele>
        <time>2020-08-16T09:50:12.000Z</time>
      </trkpt>
      <trkpt lat="45.13939" lon="5.78718">
        <ele>474.19</ele>
        <time>2020-08-16T09:50:17.000Z</time>
      </trkpt>
      <trkpt lat="45.13936" lon="5.78741">
        <ele>478.16</ele>
        <time>2020-08-16T09:50:22.000Z</time>
      </trkpt>
      <trkpt lat="45.13932" lon="5.78768">
        <ele>480.79</ele>
        <time>2020-08-16T09:50:27.000Z</time>
      </trkpt>
      <trkpt lat="45.13934" lon="5.78792">
        <ele>486.18</ele>
        <time>2020-08-16T09:50:32.000Z</time>
      </trkpt>
      <trkpt lat="45.13952" lon="5.78806">
        <ele>488.98</ele>
        <time>2020-08-16T09:50:37.000Z</time>
      </trkpt>
      <trkpt lat="45.13972" lon="5.78811">
        <ele>491.93</ele>
        <time>2020-08-16T09:50:42.000Z</time>
      </trkpt>
      <trkpt lat="45.13989" lon="5.78814">
        <ele>494.58</ele>
        <time>2020-08-16T09:50:47.000Z</time>
      </trkpt>
      <trkpt lat="45.14005" lon="5.78818">
        <ele>493.56</ele>
        <time>2020-08-16T09:50:52.000Z</time>
      </trkpt>
      <trkpt lat="45.14015" lon="5.78843">
        <ele>496.87</ele>
        <time>2020-08-16T09:50:57.000Z</time>
      </trkpt>
      <trkpt lat="45.14016" lon="5.78871">
        <ele>495.44</ele>
        <time>2020-08-16T09:51:02.000Z</time>
      </trkpt>
      <trkpt lat="45.14015" lon="5.78897">
        <ele>494.99</ele>
        <time>2020-08-16T09:51:07.000Z</time>
      </trkpt>
      <trkpt lat="45.1402" lon="5.78924">
        <ele>497.38</ele>
        <time>2020-08-16T09:51:12.000Z</time>
      </trkpt>
      <trkpt lat="45.14024" lon="5.78948">
        <ele>499.05</ele>
        <time>2020-08-16T09:51:17.000Z</time>
      </trkpt>
      <trkpt lat="45.14027" lon="5.78973">
        <ele>499.07</ele>
        <time>2020-08-16T09:51:22.000Z</time>
      </trkpt>
      <trkpt lat="45.14031" lon="5.78998">
        <ele>498.2</ele>
        <time>2020-08-16T09:51:27.000Z</time>
      </trkpt>
      <trkpt lat="45.14035" lon="5.79027">
        <ele>501.42</ele>
        <time>2020-08-16T09:51:32.000Z</time>
      </trkpt>
      <trkpt lat="45.14039" lon="5.79054">
        <ele>505.22</ele>
        <time>2020-08-16T09:51:37.000Z</time>
      </trkpt>
      <trkpt lat="45.14035" lon="5.7908">
        <ele>504.09</ele>
        <time>2020-08-16T09:51:42.000Z</time>
      </trkpt>
      <trkpt lat="45.14017" lon="5.7909">
        <ele>503.89</ele>
        <time>2020-08-16T09:51:47.000Z</time>
      </trkpt>
      <trkpt lat="45.13995" lon="5.791">
        <ele>501.67</ele>
        <time>2020-08-16T09:51:52.000Z</time>
      </trkpt>
      <trkpt lat="45.13978" lon="5.79112">
        <ele>502.53</ele>
        <time>2020-08-16T09:51:57.000Z</time>
      </trkpt>
      <trkpt lat="45.13974" lon="5.79145">
        <ele>502.08</ele>
        <time>2020-08-16T09:52:02.000Z</time>
      </trkpt>
      <trkpt lat="45.13983" lon="5.79174">
        <ele>512.48</ele>
        <time>2020-08-16T09:52:07.000Z</time>
      </trkpt>
      <trkpt lat="45.13983" lon="5.79208">
        <ele>514.41</ele>
        <time>2020-08-16T09:52:12.000Z</time>
      </trkpt>
      <trkpt lat="45.13979" lon="5.79231">
        <ele>516.48</ele>
        <time>2020-08-16T09:52:17.000Z</time>
      </trkpt>
      <trkpt lat="45.13977" lon="5.79244">
        <ele>516.06</ele>
        <time>2020-08-16T09:52:23.000Z</time>
      </trkpt>
      <trkpt lat="45.13963" lon="5.79252">
        <ele>515.09</ele>
        <time>2020-08-16T09:52:28.000Z</time>
      </trkpt>
      <trkpt lat="45.13944" lon="5.79258">
        <ele>514.24</ele>
        <time>2020-08-16T09:52:33.000Z</time>
      </trkpt>
      <trkpt lat="45.13931" lon="5.7927">
        <ele>515</ele>
        <time>2020-08-16T09:52:38.000Z</time>
      </trkpt>
      <trkpt lat="45.13924" lon="5.79288">
        <ele>517</ele>
        <time>2020-08-16T09:52:43.000Z</time>
      </trkpt>
      <trkpt lat="45.13918" lon="5.79301">
        <ele>511.06</ele>
        <time>2020-08-16T09:56:20.000Z</time>
      </trkpt>
      <trkpt lat="45.13907" lon="5.79306">
        <ele>508.69</ele>
        <time>2020-08-16T09:56:25.000Z</time>
      </trkpt>
      <trkpt lat="45.13898" lon="5.79302">
        <ele>506.26</ele>
        <time>2020-08-16T09:56:32.000Z</time>
      </trkpt>
      <trkpt lat="45.13889" lon="5.79299">
        <ele>504.14</ele>
        <time>2020-08-16T09:56:54.000Z</time>
      </trkpt>
      <trkpt lat="45.139" lon="5.79299">
        <ele>506.67</ele>
        <time>2020-08-16T10:00:15.000Z</time>
      </trkpt>
      <trkpt lat="45.13909" lon="5.79303">
        <ele>511.08</ele>
        <time>2020-08-16T10:00:20.000Z</time>
      </trkpt>
      <trkpt lat="45.13917" lon="5.79292">
        <ele>516.62</ele>
        <time>2020-08-16T10:01:07.000Z</time>
      </trkpt>
      <trkpt lat="45.13926" lon="5.79277">
        <ele>516.92</ele>
        <time>2020-08-16T10:01:12.000Z</time>
      </trkpt>
      <trkpt lat="45.13937" lon="5.79265">
        <ele>514.39</ele>
        <time>2020-08-16T10:01:17.000Z</time>
      </trkpt>
      <trkpt lat="45.13955" lon="5.79254">
        <ele>514.9</ele>
        <time>2020-08-16T10:01:22.000Z</time>
      </trkpt>
      <trkpt lat="45.1398" lon="5.7925">
        <ele>514.68</ele>
        <time>2020-08-16T10:01:27.000Z</time>
      </trkpt>
      <trkpt lat="45.14001" lon="5.79239">
        <ele>518.95</ele>
        <time>2020-08-16T10:01:32.000Z</time>
      </trkpt>
      <trkpt lat="45.14014" lon="5.79223">
        <ele>517.88</ele>
        <time>2020-08-16T10:01:37.000Z</time>
      </trkpt>
      <trkpt lat="45.14029" lon="5.79207">
        <ele>513.52</ele>
        <time>2020-08-16T10:01:42.000Z</time>
      </trkpt>
      <trkpt lat="45.14045" lon="5.79191">
        <ele>518.57</ele>
        <time>2020-08-16T10:01:47.000Z</time>
      </trkpt>
      <trkpt lat="45.14061" lon="5.79178">
        <ele>516.3</ele>
        <time>2020-08-16T10:01:52.000Z</time>
      </trkpt>
      <trkpt lat="45.14082" lon="5.79171">
        <ele>515.52</ele>
        <time>2020-08-16T10:01:57.000Z</time>
      </trkpt>
      <trkpt lat="45.14102" lon="5.79166">
        <ele>516.47</ele>
        <time>2020-08-16T10:02:02.000Z</time>
      </trkpt>
      <trkpt lat="45.14128" lon="5.7917">
        <ele>516.62</ele>
        <time>2020-08-16T10:02:07.000Z</time>
      </trkpt>
      <trkpt lat="45.14155" lon="5.79182">
        <ele>515.15</ele>
        <time>2020-08-16T10:02:12.000Z</time>
      </trkpt>
      <trkpt lat="45.14169" lon="5.79197">
        <ele>517.05</ele>
        <time>2020-08-16T10:02:17.000Z</time>
      </trkpt>
      <trkpt lat="45.14178" lon="5.79211">
        <ele>517.93</ele>
        <time>2020-08-16T10:02:22.000Z</time>
      </trkpt>
      <trkpt lat="45.1419" lon="5.79226">
        <ele>519.56</ele>
        <time>2020-08-16T10:02:27.000Z</time>
      </trkpt>
      <trkpt lat="45.14205" lon="5.79241">
        <ele>520.49</ele>
        <time>2020-08-16T10:02:32.000Z</time>
      </trkpt>
      <trkpt lat="45.14222" lon="5.7925">
        <ele>519.72</ele>
        <time>2020-08-16T10:02:37.000Z</time>
      </trkpt>
      <trkpt lat="45.1424" lon="5.79253">
        <ele>523.66</ele>
        <time>2020-08-16T10:02:42.000Z</time>
      </trkpt>
      <trkpt lat="45.14257" lon="5.79249">
        <ele>524.28</ele>
        <time>2020-08-16T10:02:47.000Z</time>
      </trkpt>
      <trkpt lat="45.14276" lon="5.79246">
        <ele>526.14</ele>
        <time>2020-08-16T10:02:52.000Z</time>
      </trkpt>
      <trkpt lat="45.14293" lon="5.79241">
        <ele>526.1</ele>
        <time>2020-08-16T10:02:57.000Z</time>
      </trkpt>
      <trkpt lat="45.14307" lon="5.79236">
        <ele>528.48</ele>
        <time>2020-08-16T10:03:02.000Z</time>
      </trkpt>
      <trkpt lat="45.14321" lon="5.79228">
        <ele>530.24</ele>
        <time>2020-08-16T10:03:07.000Z</time>
      </trkpt>
      <trkpt lat="45.14337" lon="5.79219">
        <ele>532.19</ele>
        <time>2020-08-16T10:03:12.000Z</time>
      </trkpt>
      <trkpt lat="45.14357" lon="5.79211">
        <ele>528.99</ele>
        <time>2020-08-16T10:03:17.000Z</time>
      </trkpt>
      <trkpt lat="45.14374" lon="5.79207">
        <ele>528.74</ele>
        <time>2020-08-16T10:03:22.000Z</time>
      </trkpt>
      <trkpt lat="45.14388" lon="5.79204">
        <ele>529.03</ele>
        <time>2020-08-16T10:03:27.000Z</time>
      </trkpt>
      <trkpt lat="45.14405" lon="5.792">
        <ele>529.19</ele>
        <time>2020-08-16T10:03:32.000Z</time>
      </trkpt>
      <trkpt lat="45.14423" lon="5.79193">
        <ele>532.28</ele>
        <time>2020-08-16T10:03:37.000Z</time>
      </trkpt>
      <trkpt lat="45.14443" lon="5.79186">
        <ele>534.02</ele>
        <time>2020-08-16T10:03:42.000Z</time>
      </trkpt>
      <trkpt lat="45.1446" lon="5.79182">
        <ele>535.55</ele>
        <time>2020-08-16T10:03:47.000Z</time>
      </trkpt>
      <trkpt lat="45.14474" lon="5.79192">
        <ele>538.04</ele>
        <time>2020-08-16T10:03:52.000Z</time>
      </trkpt>
      <trkpt lat="45.14478" lon="5.79217">
        <ele>539.98</ele>
        <time>2020-08-16T10:03:57.000Z</time>
      </trkpt>
      <trkpt lat="45.14468" lon="5.79232">
        <ele>539.5</ele>
        <time>2020-08-16T10:04:02.000Z</time>
      </trkpt>
      <trkpt lat="45.14458" lon="5.79243">
        <ele>539.11</ele>
        <time>2020-08-16T10:04:07.000Z</time>
      </trkpt>
      <trkpt lat="45.14441" lon="5.79252">
        <ele>540.52</ele>
        <time>2020-08-16T10:04:12.000Z</time>
      </trkpt>
      <trkpt lat="45.14428" lon="5.79264">
        <ele>541.52</ele>
        <time>2020-08-16T10:04:17.000Z</time>
      </trkpt>
      <trkpt lat="45.14426" lon="5.79291">
        <ele>543.2</ele>
        <time>2020-08-16T10:04:22.000Z</time>
      </trkpt>
      <trkpt lat="45.14446" lon="5.79307">
        <ele>549.47</ele>
        <time>2020-08-16T10:04:27.000Z</time>
      </trkpt>
      <trkpt lat="45.14462" lon="5.79306">
        <ele>551.52</ele>
        <time>2020-08-16T10:04:32.000Z</time>
      </trkpt>
      <trkpt lat="45.14475" lon="5.79305">
        <ele>554.05</ele>
        <time>2020-08-16T10:04:37.000Z</time>
      </trkpt>
      <trkpt lat="45.14489" lon="5.79295">
        <ele>556.82</ele>
        <time>2020-08-16T10:04:42.000Z</time>
      </trkpt>
      <trkpt lat="45.14503" lon="5.79278">
        <ele>561.18</ele>
        <time>2020-08-16T10:04:47.000Z</time>
      </trkpt>
      <trkpt lat="45.14516" lon="5.79261">
        <ele>561.54</ele>
        <time>2020-08-16T10:04:52.000Z</time>
      </trkpt>
      <trkpt lat="45.1453" lon="5.79248">
        <ele>563.25</ele>
        <time>2020-08-16T10:04:57.000Z</time>
      </trkpt>
      <trkpt lat="45.14544" lon="5.79242">
        <ele>566.27</ele>
        <time>2020-08-16T10:05:02.000Z</time>
      </trkpt>
      <trkpt lat="45.14559" lon="5.79241">
        <ele>567</ele>
        <time>2020-08-16T10:05:07.000Z</time>
      </trkpt>
      <trkpt lat="45.14575" lon="5.79228">
        <ele>567.27</ele>
        <time>2020-08-16T10:05:12.000Z</time>
      </trkpt>
      <trkpt lat="45.14588" lon="5.79209">
        <ele>566.84</ele>
        <time>2020-08-16T10:05:17.000Z</time>
      </trkpt>
      <trkpt lat="45.14604" lon="5.79191">
        <ele>567.38</ele>
        <time>2020-08-16T10:05:22.000Z</time>
      </trkpt>
      <trkpt lat="45.14617" lon="5.79172">
        <ele>569.08</ele>
        <time>2020-08-16T10:05:27.000Z</time>
      </trkpt>
      <trkpt lat="45.1463" lon="5.79154">
        <ele>569.93</ele>
        <time>2020-08-16T10:05:32.000Z</time>
      </trkpt>
      <trkpt lat="45.14641" lon="5.79134">
        <ele>574.44</ele>
        <time>2020-08-16T10:05:37.000Z</time>
      </trkpt>
      <trkpt lat="45.14654" lon="5.79115">
        <ele>576.54</ele>
        <time>2020-08-16T10:05:42.000Z</time>
      </trkpt>
      <trkpt lat="45.14667" lon="5.79096">
        <ele>578.14</ele>
        <time>2020-08-16T10:05:47.000Z</time>
      </trkpt>
      <trkpt lat="45.1468" lon="5.7908">
        <ele>580.52</ele>
        <time>2020-08-16T10:05:52.000Z</time>
      </trkpt>
      <trkpt lat="45.14695" lon="5.79071">
        <ele>581.85</ele>
        <time>2020-08-16T10:05:57.000Z</time>
      </trkpt>
      <trkpt lat="45.14704" lon="5.79093">
        <ele>582.03</ele>
        <time>2020-08-16T10:06:02.000Z</time>
      </trkpt>
      <trkpt lat="45.14701" lon="5.79118">
        <ele>581.35</ele>
        <time>2020-08-16T10:06:07.000Z</time>
      </trkpt>
      <trkpt lat="45.14699" lon="5.79141">
        <ele>584.28</ele>
        <time>2020-08-16T10:06:12.000Z</time>
      </trkpt>
      <trkpt lat="45.14699" lon="5.79161">
        <ele>583.27</ele>
        <time>2020-08-16T10:06:17.000Z</time>
      </trkpt>
      <trkpt lat="45.147" lon="5.79182">
        <ele>585.83</ele>
        <time>2020-08-16T10:06:22.000Z</time>
      </trkpt>
      <trkpt lat="45.14697" lon="5.79206">
        <ele>585.63</ele>
        <time>2020-08-16T10:06:27.000Z</time>
      </trkpt>
      <trkpt lat="45.14696" lon="5.79231">
        <ele>588.06</ele>
        <time>2020-08-16T10:06:32.000Z</time>
      </trkpt>
      <trkpt lat="45.14693" lon="5.79255">
        <ele>589.77</ele>
        <time>2020-08-16T10:06:37.000Z</time>
      </trkpt>
      <trkpt lat="45.14691" lon="5.79278">
        <ele>590.58</ele>
        <time>2020-08-16T10:06:42.000Z</time>
      </trkpt>
      <trkpt lat="45.14686" lon="5.79301">
        <ele>593.51</ele>
        <time>2020-08-16T10:06:47.000Z</time>
      </trkpt>
      <trkpt lat="45.14682" lon="5.79326">
        <ele>593.92</ele>
        <time>2020-08-16T10:06:52.000Z</time>
      </trkpt>
      <trkpt lat="45.14677" lon="5.7935">
        <ele>596.54</ele>
        <time>2020-08-16T10:06:57.000Z</time>
      </trkpt>
      <trkpt lat="45.14677" lon="5.79377">
        <ele>600.2</ele>
        <time>2020-08-16T10:07:02.000Z</time>
      </trkpt>
      <trkpt lat="45.14682" lon="5.79401">
        <ele>603.28</ele>
        <time>2020-08-16T10:07:07.000Z</time>
      </trkpt>
      <trkpt lat="45.14701" lon="5.79399">
        <ele>603.3</ele>
        <time>2020-08-16T10:07:12.000Z</time>
      </trkpt>
      <trkpt lat="45.14712" lon="5.79382">
        <ele>604.34</ele>
        <time>2020-08-16T10:07:17.000Z</time>
      </trkpt>
      <trkpt lat="45.14723" lon="5.79364">
        <ele>608.84</ele>
        <time>2020-08-16T10:07:22.000Z</time>
      </trkpt>
      <trkpt lat="45.14736" lon="5.79345">
        <ele>610.99</ele>
        <time>2020-08-16T10:07:27.000Z</time>
      </trkpt>
      <trkpt lat="45.1475" lon="5.79331">
        <ele>613.38</ele>
        <time>2020-08-16T10:07:32.000Z</time>
      </trkpt>
      <trkpt lat="45.14764" lon="5.79344">
        <ele>617.2</ele>
        <time>2020-08-16T10:07:37.000Z</time>
      </trkpt>
      <trkpt lat="45.14764" lon="5.79367">
        <ele>616.92</ele>
        <time>2020-08-16T10:07:42.000Z</time>
      </trkpt>
      <trkpt lat="45.14764" lon="5.79389">
        <ele>616.01</ele>
        <time>2020-08-16T10:07:47.000Z</time>
      </trkpt>
      <trkpt lat="45.1476" lon="5.79412">
        <ele>613.52</ele>
        <time>2020-08-16T10:07:52.000Z</time>
      </trkpt>
      <trkpt lat="45.14759" lon="5.79434">
        <ele>615.53</ele>
        <time>2020-08-16T10:07:57.000Z</time>
      </trkpt>
      <trkpt lat="45.14757" lon="5.79458">
        <ele>617.92</ele>
        <time>2020-08-16T10:08:02.000Z</time>
      </trkpt>
      <trkpt lat="45.14757" lon="5.79483">
        <ele>620.71</ele>
        <time>2020-08-16T10:08:07.000Z</time>
      </trkpt>
      <trkpt lat="45.14756" lon="5.79509">
        <ele>620.77</ele>
        <time>2020-08-16T10:08:12.000Z</time>
      </trkpt>
      <trkpt lat="45.14752" lon="5.79534">
        <ele>622.6</ele>
        <time>2020-08-16T10:08:17.000Z</time>
      </trkpt>
      <trkpt lat="45.14752" lon="5.79557">
        <ele>622.27</ele>
        <time>2020-08-16T10:08:22.000Z</time>
      </trkpt>
      <trkpt lat="45.14768" lon="5.79565">
        <ele>623.73</ele>
        <time>2020-08-16T10:08:27.000Z</time>
      </trkpt>
      <trkpt lat="45.14781" lon="5.79549">
        <ele>625.07</ele>
        <time>2020-08-16T10:08:32.000Z</time>
      </trkpt>
      <trkpt lat="45.1479" lon="5.79528">
        <ele>624.67</ele>
        <time>2020-08-16T10:08:37.000Z</time>
      </trkpt>
      <trkpt lat="45.14799" lon="5.79507">
        <ele>629.14</ele>
        <time>2020-08-16T10:08:42.000Z</time>
      </trkpt>
      <trkpt lat="45.14812" lon="5.79492">
        <ele>632.6</ele>
        <time>2020-08-16T10:08:47.000Z</time>
      </trkpt>
      <trkpt lat="45.14826" lon="5.7948">
        <ele>634</ele>
        <time>2020-08-16T10:08:52.000Z</time>
      </trkpt>
      <trkpt lat="45.14841" lon="5.79471">
        <ele>636.97</ele>
        <time>2020-08-16T10:08:57.000Z</time>
      </trkpt>
      <trkpt lat="45.14859" lon="5.79466">
        <ele>640.2</ele>
        <time>2020-08-16T10:09:02.000Z</time>
      </trkpt>
      <trkpt lat="45.14876" lon="5.79475">
        <ele>639.9</ele>
        <time>2020-08-16T10:09:07.000Z</time>
      </trkpt>
      <trkpt lat="45.14879" lon="5.79502">
        <ele>638.25</ele>
        <time>2020-08-16T10:09:12.000Z</time>
      </trkpt>
      <trkpt lat="45.14869" lon="5.79523">
        <ele>637.27</ele>
        <time>2020-08-16T10:09:17.000Z</time>
      </trkpt>
      <trkpt lat="45.14862" lon="5.79544">
        <ele>641.42</ele>
        <time>2020-08-16T10:09:22.000Z</time>
      </trkpt>
      <trkpt lat="45.14857" lon="5.79565">
        <ele>644.18</ele>
        <time>2020-08-16T10:09:27.000Z</time>
      </trkpt>
      <trkpt lat="45.14855" lon="5.79588">
        <ele>644.51</ele>
        <time>2020-08-16T10:09:32.000Z</time>
      </trkpt>
      <trkpt lat="45.14855" lon="5.79612">
        <ele>642.22</ele>
        <time>2020-08-16T10:09:37.000Z</time>
      </trkpt>
      <trkpt lat="45.14853" lon="5.79637">
        <ele>642.19</ele>
        <time>2020-08-16T10:09:42.000Z</time>
      </trkpt>
      <trkpt lat="45.14849" lon="5.79659">
        <ele>643.9</ele>
        <time>2020-08-16T10:09:47.000Z</time>
      </trkpt>
      <trkpt lat="45.14844" lon="5.79681">
        <ele>648.29</ele>
        <time>2020-08-16T10:09:52.000Z</time>
      </trkpt>
      <trkpt lat="45.14845" lon="5.79707">
        <ele>652.84</ele>
        <time>2020-08-16T10:09:57.000Z</time>
      </trkpt>
      <trkpt lat="45.1486" lon="5.79713">
        <ele>654.39</ele>
        <time>2020-08-16T10:10:02.000Z</time>
      </trkpt>
      <trkpt lat="45.14876" lon="5.79693">
        <ele>659.58</ele>
        <time>2020-08-16T10:10:07.000Z</time>
      </trkpt>
      <trkpt lat="45.14887" lon="5.79678">
        <ele>660.61</ele>
        <time>2020-08-16T10:10:12.000Z</time>
      </trkpt>
      <trkpt lat="45.14902" lon="5.79663">
        <ele>664.97</ele>
        <time>2020-08-16T10:10:17.000Z</time>
      </trkpt>
      <trkpt lat="45.14916" lon="5.79647">
        <ele>666.75</ele>
        <time>2020-08-16T10:10:22.000Z</time>
      </trkpt>
      <trkpt lat="45.14927" lon="5.7963">
        <ele>668.17</ele>
        <time>2020-08-16T10:10:27.000Z</time>
      </trkpt>
      <trkpt lat="45.14939" lon="5.79619">
        <ele>673.98</ele>
        <time>2020-08-16T10:10:32.000Z</time>
      </trkpt>
      <trkpt lat="45.14955" lon="5.79618">
        <ele>675.3</ele>
        <time>2020-08-16T10:10:37.000Z</time>
      </trkpt>
      <trkpt lat="45.14958" lon="5.79643">
        <ele>674.05</ele>
        <time>2020-08-16T10:10:42.000Z</time>
      </trkpt>
      <trkpt lat="45.14951" lon="5.79667">
        <ele>675.84</ele>
        <time>2020-08-16T10:10:47.000Z</time>
      </trkpt>
      <trkpt lat="45.14947" lon="5.79691">
        <ele>678.13</ele>
        <time>2020-08-16T10:10:52.000Z</time>
      </trkpt>
      <trkpt lat="45.14942" lon="5.79717">
        <ele>679.16</ele>
        <time>2020-08-16T10:10:57.000Z</time>
      </trkpt>
      <trkpt lat="45.14935" lon="5.79744">
        <ele>682.72</ele>
        <time>2020-08-16T10:11:02.000Z</time>
      </trkpt>
      <trkpt lat="45.14932" lon="5.79769">
        <ele>682.31</ele>
        <time>2020-08-16T10:11:07.000Z</time>
      </trkpt>
      <trkpt lat="45.1493" lon="5.7979">
        <ele>684.67</ele>
        <time>2020-08-16T10:11:12.000Z</time>
      </trkpt>
      <trkpt lat="45.14926" lon="5.79811">
        <ele>686.43</ele>
        <time>2020-08-16T10:11:17.000Z</time>
      </trkpt>
      <trkpt lat="45.14935" lon="5.79835">
        <ele>688.73</ele>
        <time>2020-08-16T10:11:22.000Z</time>
      </trkpt>
      <trkpt lat="45.14958" lon="5.79832">
        <ele>688.75</ele>
        <time>2020-08-16T10:11:27.000Z</time>
      </trkpt>
      <trkpt lat="45.14968" lon="5.79812">
        <ele>690.53</ele>
        <time>2020-08-16T10:11:32.000Z</time>
      </trkpt>
      <trkpt lat="45.14974" lon="5.79785">
        <ele>692.81</ele>
        <time>2020-08-16T10:11:37.000Z</time>
      </trkpt>
      <trkpt lat="45.14981" lon="5.79761">
        <ele>696.36</ele>
        <time>2020-08-16T10:11:42.000Z</time>
      </trkpt>
      <trkpt lat="45.1499" lon="5.79742">
        <ele>696.95</ele>
        <time>2020-08-16T10:11:47.000Z</time>
      </trkpt>
      <trkpt lat="45.14998" lon="5.79722">
        <ele>697.74</ele>
        <time>2020-08-16T10:11:52.000Z</time>
      </trkpt>
      <trkpt lat="45.15008" lon="5.79702">
        <ele>697.05</ele>
        <time>2020-08-16T10:11:57.000Z</time>
      </trkpt>
      <trkpt lat="45.1502" lon="5.79682">
        <ele>698.58</ele>
        <time>2020-08-16T10:12:02.000Z</time>
      </trkpt>
      <trkpt lat="45.1503" lon="5.79662">
        <ele>703.55</ele>
        <time>2020-08-16T10:12:07.000Z</time>
      </trkpt>
      <trkpt lat="45.15041" lon="5.7964">
        <ele>707.91</ele>
        <time>2020-08-16T10:12:12.000Z</time>
      </trkpt>
      <trkpt lat="45.15051" lon="5.7962">
        <ele>705.38</ele>
        <time>2020-08-16T10:12:17.000Z</time>
      </trkpt>
      <trkpt lat="45.15063" lon="5.79602">
        <ele>707.51</ele>
        <time>2020-08-16T10:12:22.000Z</time>
      </trkpt>
      <trkpt lat="45.15068" lon="5.7958">
        <ele>708.87</ele>
        <time>2020-08-16T10:12:27.000Z</time>
      </trkpt>
      <trkpt lat="45.15075" lon="5.79561">
        <ele>706.14</ele>
        <time>2020-08-16T10:12:32.000Z</time>
      </trkpt>
      <trkpt lat="45.15085" lon="5.79541">
        <ele>710.02</ele>
        <time>2020-08-16T10:12:37.000Z</time>
      </trkpt>
      <trkpt lat="45.15096" lon="5.79518">
        <ele>714.41</ele>
        <time>2020-08-16T10:12:42.000Z</time>
      </trkpt>
      <trkpt lat="45.15106" lon="5.79497">
        <ele>715.28</ele>
        <time>2020-08-16T10:12:47.000Z</time>
      </trkpt>
      <trkpt lat="45.15117" lon="5.79481">
        <ele>712.79</ele>
        <time>2020-08-16T10:12:52.000Z</time>
      </trkpt>
      <trkpt lat="45.1513" lon="5.79459">
        <ele>712.41</ele>
        <time>2020-08-16T10:12:57.000Z</time>
      </trkpt>
      <trkpt lat="45.1514" lon="5.79434">
        <ele>716.87</ele>
        <time>2020-08-16T10:13:02.000Z</time>
      </trkpt>
      <trkpt lat="45.15147" lon="5.7941">
        <ele>719.72</ele>
        <time>2020-08-16T10:13:07.000Z</time>
      </trkpt>
      <trkpt lat="45.1516" lon="5.79392">
        <ele>719.58</ele>
        <time>2020-08-16T10:13:12.000Z</time>
      </trkpt>
      <trkpt lat="45.15174" lon="5.79378">
        <ele>721.27</ele>
        <time>2020-08-16T10:13:17.000Z</time>
      </trkpt>
      <trkpt lat="45.15191" lon="5.79374">
        <ele>721.81</ele>
        <time>2020-08-16T10:13:22.000Z</time>
      </trkpt>
      <trkpt lat="45.15208" lon="5.79364">
        <ele>724.41</ele>
        <time>2020-08-16T10:13:27.000Z</time>
      </trkpt>
      <trkpt lat="45.15225" lon="5.79356">
        <ele>725.9</ele>
        <time>2020-08-16T10:13:32.000Z</time>
      </trkpt>
      <trkpt lat="45.1524" lon="5.79356">
        <ele>733.24</ele>
        <time>2020-08-16T10:13:37.000Z</time>
      </trkpt>
      <trkpt lat="45.15251" lon="5.79378">
        <ele>736.59</ele>
        <time>2020-08-16T10:13:42.000Z</time>
      </trkpt>
      <trkpt lat="45.15249" lon="5.794">
        <ele>739.9</ele>
        <time>2020-08-16T10:13:47.000Z</time>
      </trkpt>
      <trkpt lat="45.1524" lon="5.79419">
        <ele>741.05</ele>
        <time>2020-08-16T10:13:52.000Z</time>
      </trkpt>
      <trkpt lat="45.15231" lon="5.79439">
        <ele>742.02</ele>
        <time>2020-08-16T10:13:57.000Z</time>
      </trkpt>
      <trkpt lat="45.15224" lon="5.79462">
        <ele>743.38</ele>
        <time>2020-08-16T10:14:02.000Z</time>
      </trkpt>
      <trkpt lat="45.15218" lon="5.79486">
        <ele>740.13</ele>
        <time>2020-08-16T10:14:07.000Z</time>
      </trkpt>
      <trkpt lat="45.15209" lon="5.79511">
        <ele>740.67</ele>
        <time>2020-08-16T10:14:12.000Z</time>
      </trkpt>
      <trkpt lat="45.15204" lon="5.79535">
        <ele>745.18</ele>
        <time>2020-08-16T10:14:17.000Z</time>
      </trkpt>
      <trkpt lat="45.15203" lon="5.79548">
        <ele>747.81</ele>
        <time>2020-08-16T10:15:26.000Z</time>
      </trkpt>
      <trkpt lat="45.15214" lon="5.79552">
        <ele>758.03</ele>
        <time>2020-08-16T10:20:42.000Z</time>
      </trkpt>
      <trkpt lat="45.1523" lon="5.79544">
        <ele>763.91</ele>
        <time>2020-08-16T10:20:47.000Z</time>
      </trkpt>
      <trkpt lat="45.15245" lon="5.79529">
        <ele>765.37</ele>
        <time>2020-08-16T10:20:52.000Z</time>
      </trkpt>
      <trkpt lat="45.15261" lon="5.7952">
        <ele>764.64</ele>
        <time>2020-08-16T10:20:57.000Z</time>
      </trkpt>
      <trkpt lat="45.15278" lon="5.79512">
        <ele>762.52</ele>
        <time>2020-08-16T10:21:02.000Z</time>
      </trkpt>
      <trkpt lat="45.15292" lon="5.79502">
        <ele>766.28</ele>
        <time>2020-08-16T10:21:07.000Z</time>
      </trkpt>
      <trkpt lat="45.15308" lon="5.7949">
        <ele>768.5</ele>
        <time>2020-08-16T10:21:12.000Z</time>
      </trkpt>
      <trkpt lat="45.15323" lon="5.79476">
        <ele>768.9</ele>
        <time>2020-08-16T10:21:17.000Z</time>
      </trkpt>
      <trkpt lat="45.1534" lon="5.79464">
        <ele>768.92</ele>
        <time>2020-08-16T10:21:22.000Z</time>
      </trkpt>
      <trkpt lat="45.15356" lon="5.7945">
        <ele>769.64</ele>
        <time>2020-08-16T10:21:27.000Z</time>
      </trkpt>
      <trkpt lat="45.15372" lon="5.79437">
        <ele>770.08</ele>
        <time>2020-08-16T10:21:32.000Z</time>
      </trkpt>
      <trkpt lat="45.15386" lon="5.79422">
        <ele>771.15</ele>
        <time>2020-08-16T10:21:37.000Z</time>
      </trkpt>
      <trkpt lat="45.154" lon="5.79405">
        <ele>773.92</ele>
        <time>2020-08-16T10:21:42.000Z</time>
      </trkpt>
      <trkpt lat="45.15415" lon="5.79391">
        <ele>775.36</ele>
        <time>2020-08-16T10:21:47.000Z</time>
      </trkpt>
      <trkpt lat="45.15429" lon="5.79373">
        <ele>778.43</ele>
        <time>2020-08-16T10:21:52.000Z</time>
      </trkpt>
      <trkpt lat="45.15444" lon="5.79357">
        <ele>779.51</ele>
        <time>2020-08-16T10:21:57.000Z</time>
      </trkpt>
      <trkpt lat="45.15456" lon="5.79339">
        <ele>780.78</ele>
        <time>2020-08-16T10:22:02.000Z</time>
      </trkpt>
      <trkpt lat="45.15465" lon="5.79318">
        <ele>782.17</ele>
        <time>2020-08-16T10:22:07.000Z</time>
      </trkpt>
      <trkpt lat="45.15469" lon="5.79292">
        <ele>786.38</ele>
        <time>2020-08-16T10:22:12.000Z</time>
      </trkpt>
      <trkpt lat="45.15475" lon="5.79272">
        <ele>785.37</ele>
        <time>2020-08-16T10:22:17.000Z</time>
      </trkpt>
      <trkpt lat="45.15484" lon="5.79254">
        <ele>784.52</ele>
        <time>2020-08-16T10:22:22.000Z</time>
      </trkpt>
      <trkpt lat="45.15486" lon="5.79237">
        <ele>786.83</ele>
        <time>2020-08-16T10:22:29.000Z</time>
      </trkpt>
      <trkpt lat="45.15476" lon="5.79233">
        <ele>789.08</ele>
        <time>2020-08-16T10:22:34.000Z</time>
      </trkpt>
      <trkpt lat="45.15481" lon="5.79213">
        <ele>797.68</ele>
        <time>2020-08-16T10:22:51.000Z</time>
      </trkpt>
      <trkpt lat="45.15484" lon="5.79198">
        <ele>797.76</ele>
        <time>2020-08-16T10:23:07.000Z</time>
      </trkpt>
      <trkpt lat="45.15484" lon="5.79183">
        <ele>800.95</ele>
        <time>2020-08-16T10:23:12.000Z</time>
      </trkpt>
      <trkpt lat="45.15484" lon="5.79165">
        <ele>800.93</ele>
        <time>2020-08-16T10:23:17.000Z</time>
      </trkpt>
      <trkpt lat="45.15486" lon="5.79149">
        <ele>798.11</ele>
        <time>2020-08-16T10:23:22.000Z</time>
      </trkpt>
      <trkpt lat="45.15488" lon="5.79131">
        <ele>796.11</ele>
        <time>2020-08-16T10:23:27.000Z</time>
      </trkpt>
      <trkpt lat="45.15486" lon="5.79117">
        <ele>796.92</ele>
        <time>2020-08-16T10:24:03.000Z</time>
      </trkpt>
      <trkpt lat="45.15488" lon="5.79103">
        <ele>796.61</ele>
        <time>2020-08-16T10:24:08.000Z</time>
      </trkpt>
      <trkpt lat="45.15486" lon="5.7909">
        <ele>797.26</ele>
        <time>2020-08-16T10:24:15.000Z</time>
      </trkpt>
      <trkpt lat="45.15473" lon="5.79078">
        <ele>794.31</ele>
        <time>2020-08-16T10:24:26.000Z</time>
      </trkpt>
      <trkpt lat="45.1548" lon="5.79046">
        <ele>789.41</ele>
        <time>2020-08-16T10:24:38.000Z</time>
      </trkpt>
      <trkpt lat="45.15476" lon="5.79059">
        <ele>790.44</ele>
        <time>2020-08-16T10:24:44.000Z</time>
      </trkpt>
      <trkpt lat="45.15469" lon="5.7905">
        <ele>789.04</ele>
        <time>2020-08-16T10:24:49.000Z</time>
      </trkpt>
      <trkpt lat="45.15458" lon="5.7903">
        <ele>788.61</ele>
        <time>2020-08-16T10:24:54.000Z</time>
      </trkpt>
      <trkpt lat="45.15449" lon="5.79017">
        <ele>783.98</ele>
        <time>2020-08-16T10:24:59.000Z</time>
      </trkpt>
      <trkpt lat="45.15445" lon="5.79005">
        <ele>779.47</ele>
        <time>2020-08-16T10:25:04.000Z</time>
      </trkpt>
      <trkpt lat="45.15437" lon="5.78993">
        <ele>787.08</ele>
        <time>2020-08-16T10:25:09.000Z</time>
      </trkpt>
      <trkpt lat="45.15435" lon="5.7898">
        <ele>792.95</ele>
        <time>2020-08-16T10:25:34.000Z</time>
      </trkpt>
      <trkpt lat="45.15443" lon="5.78988">
        <ele>790.02</ele>
        <time>2020-08-16T10:53:01.000Z</time>
      </trkpt>
      <trkpt lat="45.15447" lon="5.78999">
        <ele>792.62</ele>
        <time>2020-08-16T10:53:11.000Z</time>
      </trkpt>
      <trkpt lat="45.15452" lon="5.79011">
        <ele>793.18</ele>
        <time>2020-08-16T10:53:23.000Z</time>
      </trkpt>
      <trkpt lat="45.15459" lon="5.79021">
        <ele>791.6</ele>
        <time>2020-08-16T10:53:33.000Z</time>
      </trkpt>
      <trkpt lat="45.15463" lon="5.79032">
        <ele>791.44</ele>
        <time>2020-08-16T10:53:41.000Z</time>
      </trkpt>
      <trkpt lat="45.15468" lon="5.79045">
        <ele>793.11</ele>
        <time>2020-08-16T10:53:51.000Z</time>
      </trkpt>
      <trkpt lat="45.15467" lon="5.79063">
        <ele>793.17</ele>
        <time>2020-08-16T10:54:09.000Z</time>
      </trkpt>
      <trkpt lat="45.15458" lon="5.79063">
        <ele>795.66</ele>
        <time>2020-08-16T10:54:20.000Z</time>
      </trkpt>
      <trkpt lat="45.15447" lon="5.79062">
        <ele>788.22</ele>
        <time>2020-08-16T10:54:30.000Z</time>
      </trkpt>
      <trkpt lat="45.15431" lon="5.7907">
        <ele>787.89</ele>
        <time>2020-08-16T10:54:45.000Z</time>
      </trkpt>
      <trkpt lat="45.15422" lon="5.79077">
        <ele>785.51</ele>
        <time>2020-08-16T10:54:53.000Z</time>
      </trkpt>
      <trkpt lat="45.15413" lon="5.79078">
        <ele>783.28</ele>
        <time>2020-08-16T10:55:00.000Z</time>
      </trkpt>
      <trkpt lat="45.15401" lon="5.79071">
        <ele>776.62</ele>
        <time>2020-08-16T10:55:55.000Z</time>
      </trkpt>
      <trkpt lat="45.15374" lon="5.79047">
        <ele>772.06</ele>
        <time>2020-08-16T10:56:00.000Z</time>
      </trkpt>
      <trkpt lat="45.15343" lon="5.79016">
        <ele>772.86</ele>
        <time>2020-08-16T10:56:05.000Z</time>
      </trkpt>
      <trkpt lat="45.15306" lon="5.7902">
        <ele>772.25</ele>
        <time>2020-08-16T10:56:10.000Z</time>
      </trkpt>
      <trkpt lat="45.15262" lon="5.79029">
        <ele>772.73</ele>
        <time>2020-08-16T10:56:15.000Z</time>
      </trkpt>
      <trkpt lat="45.15232" lon="5.78987">
        <ele>766.1</ele>
        <time>2020-08-16T10:56:20.000Z</time>
      </trkpt>
      <trkpt lat="45.15219" lon="5.78914">
        <ele>760.03</ele>
        <time>2020-08-16T10:56:25.000Z</time>
      </trkpt>
      <trkpt lat="45.15195" lon="5.78844">
        <ele>752.45</ele>
        <time>2020-08-16T10:56:30.000Z</time>
      </trkpt>
      <trkpt lat="45.15162" lon="5.78771">
        <ele>749.97</ele>
        <time>2020-08-16T10:56:35.000Z</time>
      </trkpt>
      <trkpt lat="45.15133" lon="5.78692">
        <ele>745.61</ele>
        <time>2020-08-16T10:56:40.000Z</time>
      </trkpt>
      <trkpt lat="45.1509" lon="5.78626">
        <ele>741.28</ele>
        <time>2020-08-16T10:56:45.000Z</time>
      </trkpt>
      <trkpt lat="45.15047" lon="5.78553">
        <ele>739.21</ele>
        <time>2020-08-16T10:56:50.000Z</time>
      </trkpt>
      <trkpt lat="45.14999" lon="5.78509">
        <ele>736.63</ele>
        <time>2020-08-16T10:56:55.000Z</time>
      </trkpt>
      <trkpt lat="45.14964" lon="5.78437">
        <ele>730.63</ele>
        <time>2020-08-16T10:57:00.000Z</time>
      </trkpt>
      <trkpt lat="45.14944" lon="5.78371">
        <ele>726.99</ele>
        <time>2020-08-16T10:57:05.000Z</time>
      </trkpt>
      <trkpt lat="45.14933" lon="5.78339">
        <ele>723.65</ele>
        <time>2020-08-16T10:57:10.000Z</time>
      </trkpt>
      <trkpt lat="45.14922" lon="5.78304">
        <ele>721.35</ele>
        <time>2020-08-16T10:57:15.000Z</time>
      </trkpt>
      <trkpt lat="45.14926" lon="5.78271">
        <ele>706.95</ele>
        <time>2020-08-16T10:57:20.000Z</time>
      </trkpt>
      <trkpt lat="45.14933" lon="5.78262">
        <ele>701.85</ele>
        <time>2020-08-16T10:57:26.000Z</time>
      </trkpt>
      <trkpt lat="45.14943" lon="5.78248">
        <ele>699.55</ele>
        <time>2020-08-16T10:57:31.000Z</time>
      </trkpt>
      <trkpt lat="45.1496" lon="5.78227">
        <ele>697.78</ele>
        <time>2020-08-16T10:57:36.000Z</time>
      </trkpt>
      <trkpt lat="45.14992" lon="5.78207">
        <ele>695.35</ele>
        <time>2020-08-16T10:57:41.000Z</time>
      </trkpt>
      <trkpt lat="45.15039" lon="5.782">
        <ele>689.43</ele>
        <time>2020-08-16T10:57:46.000Z</time>
      </trkpt>
      <trkpt lat="45.15089" lon="5.78205">
        <ele>683.55</ele>
        <time>2020-08-16T10:57:51.000Z</time>
      </trkpt>
      <trkpt lat="45.15147" lon="5.78156">
        <ele>678.89</ele>
        <time>2020-08-16T10:57:56.000Z</time>
      </trkpt>
      <trkpt lat="45.15195" lon="5.78125">
        <ele>677.57</ele>
        <time>2020-08-16T10:58:01.000Z</time>
      </trkpt>
      <trkpt lat="45.15192" lon="5.78044">
        <ele>678.92</ele>
        <time>2020-08-16T10:58:06.000Z</time>
      </trkpt>
      <trkpt lat="45.15187" lon="5.77976">
        <ele>677.27</ele>
        <time>2020-08-16T10:58:11.000Z</time>
      </trkpt>
      <trkpt lat="45.15176" lon="5.77884">
        <ele>670.18</ele>
        <time>2020-08-16T10:58:16.000Z</time>
      </trkpt>
      <trkpt lat="45.15177" lon="5.77825">
        <ele>650.44</ele>
        <time>2020-08-16T10:58:21.000Z</time>
      </trkpt>
      <trkpt lat="45.1521" lon="5.77768">
        <ele>642.77</ele>
        <time>2020-08-16T10:58:26.000Z</time>
      </trkpt>
      <trkpt lat="45.15252" lon="5.77727">
        <ele>632.15</ele>
        <time>2020-08-16T10:58:31.000Z</time>
      </trkpt>
      <trkpt lat="45.15295" lon="5.77677">
        <ele>626.39</ele>
        <time>2020-08-16T10:58:36.000Z</time>
      </trkpt>
      <trkpt lat="45.15314" lon="5.77622">
        <ele>620.76</ele>
        <time>2020-08-16T10:58:41.000Z</time>
      </trkpt>
      <trkpt lat="45.15316" lon="5.77603">
        <ele>617.82</ele>
        <time>2020-08-16T10:58:46.000Z</time>
      </trkpt>
      <trkpt lat="45.15316" lon="5.7759">
        <ele>621.23</ele>
        <time>2020-08-16T11:00:27.000Z</time>
      </trkpt>
      <trkpt lat="45.15331" lon="5.77569">
        <ele>614.6</ele>
        <time>2020-08-16T11:00:32.000Z</time>
      </trkpt>
      <trkpt lat="45.15355" lon="5.77541">
        <ele>612.81</ele>
        <time>2020-08-16T11:00:37.000Z</time>
      </trkpt>
      <trkpt lat="45.15389" lon="5.77518">
        <ele>613.3</ele>
        <time>2020-08-16T11:00:42.000Z</time>
      </trkpt>
      <trkpt lat="45.15434" lon="5.77507">
        <ele>610.28</ele>
        <time>2020-08-16T11:00:47.000Z</time>
      </trkpt>
      <trkpt lat="45.15482" lon="5.77503">
        <ele>609.55</ele>
        <time>2020-08-16T11:00:52.000Z</time>
      </trkpt>
      <trkpt lat="45.15529" lon="5.77519">
        <ele>603.21</ele>
        <time>2020-08-16T11:00:57.000Z</time>
      </trkpt>
      <trkpt lat="45.15585" lon="5.7754">
        <ele>597.11</ele>
        <time>2020-08-16T11:01:02.000Z</time>
      </trkpt>
      <trkpt lat="45.15634" lon="5.77545">
        <ele>594.94</ele>
        <time>2020-08-16T11:01:07.000Z</time>
      </trkpt>
      <trkpt lat="45.15688" lon="5.77557">
        <ele>589.81</ele>
        <time>2020-08-16T11:01:12.000Z</time>
      </trkpt>
      <trkpt lat="45.15708" lon="5.77572">
        <ele>590.76</ele>
        <time>2020-08-16T11:01:17.000Z</time>
      </trkpt>
      <trkpt lat="45.15717" lon="5.77593">
        <ele>588.13</ele>
        <time>2020-08-16T11:01:22.000Z</time>
      </trkpt>
      <trkpt lat="45.15738" lon="5.77621">
        <ele>585.41</ele>
        <time>2020-08-16T11:01:27.000Z</time>
      </trkpt>
      <trkpt lat="45.15784" lon="5.77652">
        <ele>583.04</ele>
        <time>2020-08-16T11:01:32.000Z</time>
      </trkpt>
      <trkpt lat="45.15825" lon="5.7769">
        <ele>578.55</ele>
        <time>2020-08-16T11:01:37.000Z</time>
      </trkpt>
      <trkpt lat="45.15871" lon="5.77716">
        <ele>575.58</ele>
        <time>2020-08-16T11:01:42.000Z</time>
      </trkpt>
      <trkpt lat="45.15913" lon="5.77756">
        <ele>572.57</ele>
        <time>2020-08-16T11:01:47.000Z</time>
      </trkpt>
      <trkpt lat="45.15936" lon="5.77794">
        <ele>572.62</ele>
        <time>2020-08-16T11:01:52.000Z</time>
      </trkpt>
      <trkpt lat="45.1596" lon="5.77819">
        <ele>570.42</ele>
        <time>2020-08-16T11:01:57.000Z</time>
      </trkpt>
      <trkpt lat="45.15992" lon="5.77859">
        <ele>569.8</ele>
        <time>2020-08-16T11:02:02.000Z</time>
      </trkpt>
      <trkpt lat="45.16021" lon="5.77904">
        <ele>565.09</ele>
        <time>2020-08-16T11:02:07.000Z</time>
      </trkpt>
      <trkpt lat="45.16035" lon="5.77964">
        <ele>563.69</ele>
        <time>2020-08-16T11:02:12.000Z</time>
      </trkpt>
      <trkpt lat="45.16048" lon="5.78028">
        <ele>563.45</ele>
        <time>2020-08-16T11:02:17.000Z</time>
      </trkpt>
      <trkpt lat="45.16046" lon="5.78088">
        <ele>558.72</ele>
        <time>2020-08-16T11:02:22.000Z</time>
      </trkpt>
      <trkpt lat="45.16034" lon="5.78142">
        <ele>557.58</ele>
        <time>2020-08-16T11:02:27.000Z</time>
      </trkpt>
      <trkpt lat="45.16025" lon="5.78194">
        <ele>558.18</ele>
        <time>2020-08-16T11:02:32.000Z</time>
      </trkpt>
      <trkpt lat="45.16031" lon="5.78248">
        <ele>559.9</ele>
        <time>2020-08-16T11:02:37.000Z</time>
      </trkpt>
      <trkpt lat="45.16047" lon="5.78292">
        <ele>559.75</ele>
        <time>2020-08-16T11:02:42.000Z</time>
      </trkpt>
      <trkpt lat="45.16045" lon="5.78347">
        <ele>558.87</ele>
        <time>2020-08-16T11:02:47.000Z</time>
      </trkpt>
      <trkpt lat="45.16045" lon="5.78394">
        <ele>560.64</ele>
        <time>2020-08-16T11:02:52.000Z</time>
      </trkpt>
      <trkpt lat="45.16072" lon="5.78406">
        <ele>560.88</ele>
        <time>2020-08-16T11:02:57.000Z</time>
      </trkpt>
      <trkpt lat="45.16096" lon="5.78425">
        <ele>555.72</ele>
        <time>2020-08-16T11:03:02.000Z</time>
      </trkpt>
      <trkpt lat="45.1612" lon="5.78459">
        <ele>550.46</ele>
        <time>2020-08-16T11:03:07.000Z</time>
      </trkpt>
      <trkpt lat="45.16138" lon="5.78503">
        <ele>547.56</ele>
        <time>2020-08-16T11:03:12.000Z</time>
      </trkpt>
      <trkpt lat="45.16155" lon="5.78548">
        <ele>546.96</ele>
        <time>2020-08-16T11:03:17.000Z</time>
      </trkpt>
      <trkpt lat="45.16176" lon="5.78595">
        <ele>548.33</ele>
        <time>2020-08-16T11:03:22.000Z</time>
      </trkpt>
      <trkpt lat="45.16175" lon="5.78647">
        <ele>544.45</ele>
        <time>2020-08-16T11:03:27.000Z</time>
      </trkpt>
      <trkpt lat="45.16175" lon="5.78695">
        <ele>540.8</ele>
        <time>2020-08-16T11:03:32.000Z</time>
      </trkpt>
      <trkpt lat="45.1619" lon="5.78743">
        <ele>539.01</ele>
        <time>2020-08-16T11:03:37.000Z</time>
      </trkpt>
      <trkpt lat="45.16223" lon="5.78767">
        <ele>536.92</ele>
        <time>2020-08-16T11:03:42.000Z</time>
      </trkpt>
      <trkpt lat="45.16254" lon="5.78748">
        <ele>534.5</ele>
        <time>2020-08-16T11:03:47.000Z</time>
      </trkpt>
      <trkpt lat="45.16288" lon="5.78718">
        <ele>533.28</ele>
        <time>2020-08-16T11:03:52.000Z</time>
      </trkpt>
      <trkpt lat="45.16303" lon="5.78667">
        <ele>529.9</ele>
        <time>2020-08-16T11:03:57.000Z</time>
      </trkpt>
      <trkpt lat="45.16317" lon="5.78623">
        <ele>527.24</ele>
        <time>2020-08-16T11:04:02.000Z</time>
      </trkpt>
      <trkpt lat="45.16326" lon="5.78582">
        <ele>524.51</ele>
        <time>2020-08-16T11:04:07.000Z</time>
      </trkpt>
      <trkpt lat="45.16337" lon="5.78533">
        <ele>526.05</ele>
        <time>2020-08-16T11:04:12.000Z</time>
      </trkpt>
      <trkpt lat="45.16351" lon="5.7849">
        <ele>529.07</ele>
        <time>2020-08-16T11:04:17.000Z</time>
      </trkpt>
      <trkpt lat="45.16365" lon="5.78445">
        <ele>527.9</ele>
        <time>2020-08-16T11:04:22.000Z</time>
      </trkpt>
      <trkpt lat="45.16377" lon="5.78404">
        <ele>526.49</ele>
        <time>2020-08-16T11:04:27.000Z</time>
      </trkpt>
      <trkpt lat="45.16382" lon="5.78376">
        <ele>523.81</ele>
        <time>2020-08-16T11:04:32.000Z</time>
      </trkpt>
      <trkpt lat="45.16383" lon="5.78363">
        <ele>525.95</ele>
        <time>2020-08-16T11:04:51.000Z</time>
      </trkpt>
      <trkpt lat="45.16375" lon="5.78354">
        <ele>521.22</ele>
        <time>2020-08-16T11:05:31.000Z</time>
      </trkpt>
      <trkpt lat="45.16371" lon="5.78338">
        <ele>518.21</ele>
        <time>2020-08-16T11:05:36.000Z</time>
      </trkpt>
      <trkpt lat="45.16371" lon="5.78304">
        <ele>517.64</ele>
        <time>2020-08-16T11:05:41.000Z</time>
      </trkpt>
      <trkpt lat="45.16382" lon="5.78264">
        <ele>517.42</ele>
        <time>2020-08-16T11:05:46.000Z</time>
      </trkpt>
      <trkpt lat="45.16403" lon="5.78217">
        <ele>513.39</ele>
        <time>2020-08-16T11:05:51.000Z</time>
      </trkpt>
      <trkpt lat="45.16438" lon="5.78182">
        <ele>506.37</ele>
        <time>2020-08-16T11:05:56.000Z</time>
      </trkpt>
      <trkpt lat="45.16475" lon="5.78166">
        <ele>500.8</ele>
        <time>2020-08-16T11:06:01.000Z</time>
      </trkpt>
      <trkpt lat="45.16485" lon="5.78141">
        <ele>497.73</ele>
        <time>2020-08-16T11:06:06.000Z</time>
      </trkpt>
      <trkpt lat="45.16492" lon="5.78105">
        <ele>496.36</ele>
        <time>2020-08-16T11:06:11.000Z</time>
      </trkpt>
      <trkpt lat="45.16508" lon="5.78055">
        <ele>496.11</ele>
        <time>2020-08-16T11:06:16.000Z</time>
      </trkpt>
      <trkpt lat="45.16528" lon="5.77997">
        <ele>495.51</ele>
        <time>2020-08-16T11:06:21.000Z</time>
      </trkpt>
      <trkpt lat="45.16578" lon="5.77977">
        <ele>491.65</ele>
        <time>2020-08-16T11:06:26.000Z</time>
      </trkpt>
      <trkpt lat="45.16622" lon="5.77954">
        <ele>485.8</ele>
        <time>2020-08-16T11:06:31.000Z</time>
      </trkpt>
      <trkpt lat="45.16653" lon="5.77989">
        <ele>482.83</ele>
        <time>2020-08-16T11:06:36.000Z</time>
      </trkpt>
      <trkpt lat="45.16677" lon="5.78014">
        <ele>479.93</ele>
        <time>2020-08-16T11:06:41.000Z</time>
      </trkpt>
      <trkpt lat="45.16683" lon="5.78003">
        <ele>476.15</ele>
        <time>2020-08-16T11:06:46.000Z</time>
      </trkpt>
      <trkpt lat="45.16707" lon="5.77988">
        <ele>475.92</ele>
        <time>2020-08-16T11:06:51.000Z</time>
      </trkpt>
      <trkpt lat="45.16747" lon="5.78016">
        <ele>472.33</ele>
        <time>2020-08-16T11:06:56.000Z</time>
      </trkpt>
      <trkpt lat="45.1679" lon="5.78059">
        <ele>469.5</ele>
        <time>2020-08-16T11:07:01.000Z</time>
      </trkpt>
      <trkpt lat="45.1683" lon="5.78105">
        <ele>465.1</ele>
        <time>2020-08-16T11:07:06.000Z</time>
      </trkpt>
      <trkpt lat="45.16872" lon="5.78111">
        <ele>463.79</ele>
        <time>2020-08-16T11:07:11.000Z</time>
      </trkpt>
      <trkpt lat="45.16913" lon="5.78142">
        <ele>459.96</ele>
        <time>2020-08-16T11:07:16.000Z</time>
      </trkpt>
      <trkpt lat="45.16957" lon="5.78183">
        <ele>454.05</ele>
        <time>2020-08-16T11:07:21.000Z</time>
      </trkpt>
      <trkpt lat="45.17005" lon="5.78201">
        <ele>445.19</ele>
        <time>2020-08-16T11:07:26.000Z</time>
      </trkpt>
      <trkpt lat="45.17044" lon="5.78212">
        <ele>439.47</ele>
        <time>2020-08-16T11:07:31.000Z</time>
      </trkpt>
      <trkpt lat="45.17079" lon="5.78189">
        <ele>434.68</ele>
        <time>2020-08-16T11:07:36.000Z</time>
      </trkpt>
      <trkpt lat="45.17099" lon="5.78175">
        <ele>432.72</ele>
        <time>2020-08-16T11:07:41.000Z</time>
      </trkpt>
      <trkpt lat="45.17116" lon="5.78177">
        <ele>431.25</ele>
        <time>2020-08-16T11:07:46.000Z</time>
      </trkpt>
      <trkpt lat="45.17133" lon="5.78191">
        <ele>426.53</ele>
        <time>2020-08-16T11:07:51.000Z</time>
      </trkpt>
      <trkpt lat="45.17152" lon="5.78225">
        <ele>425.88</ele>
        <time>2020-08-16T11:07:56.000Z</time>
      </trkpt>
      <trkpt lat="45.17184" lon="5.7826">
        <ele>422.13</ele>
        <time>2020-08-16T11:08:01.000Z</time>
      </trkpt>
      <trkpt lat="45.17223" lon="5.78257">
        <ele>421.37</ele>
        <time>2020-08-16T11:08:06.000Z</time>
      </trkpt>
      <trkpt lat="45.17251" lon="5.7824">
        <ele>421.8</ele>
        <time>2020-08-16T11:08:11.000Z</time>
      </trkpt>
      <trkpt lat="45.17269" lon="5.78219">
        <ele>423.82</ele>
        <time>2020-08-16T11:08:16.000Z</time>
      </trkpt>
      <trkpt lat="45.17274" lon="5.78205">
        <ele>427.72</ele>
        <time>2020-08-16T11:08:21.000Z</time>
      </trkpt>
      <trkpt lat="45.17285" lon="5.78198">
        <ele>429.04</ele>
        <time>2020-08-16T11:08:26.000Z</time>
      </trkpt>
      <trkpt lat="45.17297" lon="5.78191">
        <ele>428.37</ele>
        <time>2020-08-16T11:08:31.000Z</time>
      </trkpt>
      <trkpt lat="45.17308" lon="5.78192">
        <ele>427.76</ele>
        <time>2020-08-16T11:08:36.000Z</time>
      </trkpt>
      <trkpt lat="45.1732" lon="5.78181">
        <ele>427.11</ele>
        <time>2020-08-16T11:08:41.000Z</time>
      </trkpt>
      <trkpt lat="45.17333" lon="5.78173">
        <ele>425.4</ele>
        <time>2020-08-16T11:08:46.000Z</time>
      </trkpt>
      <trkpt lat="45.17345" lon="5.78165">
        <ele>422.56</ele>
        <time>2020-08-16T11:08:51.000Z</time>
      </trkpt>
      <trkpt lat="45.17353" lon="5.78151">
        <ele>425.7</ele>
        <time>2020-08-16T11:08:56.000Z</time>
      </trkpt>
      <trkpt lat="45.17363" lon="5.78142">
        <ele>428.16</ele>
        <time>2020-08-16T11:09:01.000Z</time>
      </trkpt>
      <trkpt lat="45.17372" lon="5.78129">
        <ele>431.41</ele>
        <time>2020-08-16T11:09:06.000Z</time>
      </trkpt>
      <trkpt lat="45.17378" lon="5.78117">
        <ele>430.18</ele>
        <time>2020-08-16T11:09:11.000Z</time>
      </trkpt>
      <trkpt lat="45.17384" lon="5.78097">
        <ele>428.24</ele>
        <time>2020-08-16T11:09:16.000Z</time>
      </trkpt>
      <trkpt lat="45.17385" lon="5.78078">
        <ele>429.42</ele>
        <time>2020-08-16T11:09:21.000Z</time>
      </trkpt>
      <trkpt lat="45.17381" lon="5.78052">
        <ele>431.59</ele>
        <time>2020-08-16T11:09:26.000Z</time>
      </trkpt>
      <trkpt lat="45.17371" lon="5.78016">
        <ele>431.82</ele>
        <time>2020-08-16T11:09:31.000Z</time>
      </trkpt>
      <trkpt lat="45.17369" lon="5.77984">
        <ele>430.19</ele>
        <time>2020-08-16T11:09:36.000Z</time>
      </trkpt>
      <trkpt lat="45.17359" lon="5.77958">
        <ele>428.5</ele>
        <time>2020-08-16T11:09:41.000Z</time>
      </trkpt>
      <trkpt lat="45.1735" lon="5.77922">
        <ele>428.82</ele>
        <time>2020-08-16T11:09:46.000Z</time>
      </trkpt>
      <trkpt lat="45.17317" lon="5.77859">
        <ele>426.36</ele>
        <time>2020-08-16T11:09:51.000Z</time>
      </trkpt>
      <trkpt lat="45.17296" lon="5.77798">
        <ele>424.16</ele>
        <time>2020-08-16T11:09:56.000Z</time>
      </trkpt>
      <trkpt lat="45.17285" lon="5.77723">
        <ele>423.54</ele>
        <time>2020-08-16T11:10:01.000Z</time>
      </trkpt>
      <trkpt lat="45.17272" lon="5.77661">
        <ele>421.82</ele>
        <time>2020-08-16T11:10:06.000Z</time>
      </trkpt>
      <trkpt lat="45.17243" lon="5.77624">
        <ele>421.84</ele>
        <time>2020-08-16T11:10:11.000Z</time>
      </trkpt>
      <trkpt lat="45.17195" lon="5.77593">
        <ele>412.78</ele>
        <time>2020-08-16T11:10:16.000Z</time>
      </trkpt>
      <trkpt lat="45.1717" lon="5.77554">
        <ele>410.51</ele>
        <time>2020-08-16T11:10:21.000Z</time>
      </trkpt>
      <trkpt lat="45.17128" lon="5.77508">
        <ele>409.93</ele>
        <time>2020-08-16T11:10:26.000Z</time>
      </trkpt>
      <trkpt lat="45.17098" lon="5.77457">
        <ele>409.57</ele>
        <time>2020-08-16T11:10:31.000Z</time>
      </trkpt>
      <trkpt lat="45.17066" lon="5.77401">
        <ele>408.29</ele>
        <time>2020-08-16T11:10:36.000Z</time>
      </trkpt>
      <trkpt lat="45.17015" lon="5.77342">
        <ele>400.16</ele>
        <time>2020-08-16T11:10:41.000Z</time>
      </trkpt>
      <trkpt lat="45.16978" lon="5.77306">
        <ele>387.85</ele>
        <time>2020-08-16T11:10:46.000Z</time>
      </trkpt>
      <trkpt lat="45.16945" lon="5.7727">
        <ele>383.4</ele>
        <time>2020-08-16T11:10:51.000Z</time>
      </trkpt>
      <trkpt lat="45.16956" lon="5.77264">
        <ele>372.58</ele>
        <time>2020-08-16T11:10:56.000Z</time>
      </trkpt>
      <trkpt lat="45.16988" lon="5.773">
        <ele>364.32</ele>
        <time>2020-08-16T11:11:01.000Z</time>
      </trkpt>
      <trkpt lat="45.17021" lon="5.77333">
        <ele>355.87</ele>
        <time>2020-08-16T11:11:06.000Z</time>
      </trkpt>
      <trkpt lat="45.17057" lon="5.77369">
        <ele>355.49</ele>
        <time>2020-08-16T11:11:11.000Z</time>
      </trkpt>
      <trkpt lat="45.17092" lon="5.77405">
        <ele>352.65</ele>
        <time>2020-08-16T11:11:16.000Z</time>
      </trkpt>
      <trkpt lat="45.17129" lon="5.77441">
        <ele>353.54</ele>
        <time>2020-08-16T11:11:21.000Z</time>
      </trkpt>
      <trkpt lat="45.17164" lon="5.77467">
        <ele>350.05</ele>
        <time>2020-08-16T11:11:26.000Z</time>
      </trkpt>
      <trkpt lat="45.17189" lon="5.77488">
        <ele>341.35</ele>
        <time>2020-08-16T11:11:31.000Z</time>
      </trkpt>
      <trkpt lat="45.17199" lon="5.77467">
        <ele>338.45</ele>
        <time>2020-08-16T11:11:36.000Z</time>
      </trkpt>
      <trkpt lat="45.17175" lon="5.77429">
        <ele>336.76</ele>
        <time>2020-08-16T11:11:41.000Z</time>
      </trkpt>
      <trkpt lat="45.17146" lon="5.77406">
        <ele>341.25</ele>
        <time>2020-08-16T11:11:46.000Z</time>
      </trkpt>
      <trkpt lat="45.17132" lon="5.77355">
        <ele>340.63</ele>
        <time>2020-08-16T11:11:51.000Z</time>
      </trkpt>
      <trkpt lat="45.17129" lon="5.7734">
        <ele>340.4</ele>
        <time>2020-08-16T11:11:56.000Z</time>
      </trkpt>
      <trkpt lat="45.17126" lon="5.77325">
        <ele>337.83</ele>
        <time>2020-08-16T11:12:01.000Z</time>
      </trkpt>
      <trkpt lat="45.17109" lon="5.77301">
        <ele>332.49</ele>
        <time>2020-08-16T11:12:06.000Z</time>
      </trkpt>
      <trkpt lat="45.17106" lon="5.77254">
        <ele>331.89</ele>
        <time>2020-08-16T11:12:11.000Z</time>
      </trkpt>
      <trkpt lat="45.17098" lon="5.77209">
        <ele>329.57</ele>
        <time>2020-08-16T11:12:16.000Z</time>
      </trkpt>
      <trkpt lat="45.17123" lon="5.77216">
        <ele>325.29</ele>
        <time>2020-08-16T11:12:21.000Z</time>
      </trkpt>
      <trkpt lat="45.17147" lon="5.77251">
        <ele>317.01</ele>
        <time>2020-08-16T11:12:26.000Z</time>
      </trkpt>
      <trkpt lat="45.17177" lon="5.77296">
        <ele>304.93</ele>
        <time>2020-08-16T11:12:31.000Z</time>
      </trkpt>
      <trkpt lat="45.17219" lon="5.77313">
        <ele>302.26</ele>
        <time>2020-08-16T11:12:36.000Z</time>
      </trkpt>
      <trkpt lat="45.17256" lon="5.77304">
        <ele>300.19</ele>
        <time>2020-08-16T11:12:41.000Z</time>
      </trkpt>
      <trkpt lat="45.17296" lon="5.77335">
        <ele>297.18</ele>
        <time>2020-08-16T11:12:46.000Z</time>
      </trkpt>
      <trkpt lat="45.17335" lon="5.77366">
        <ele>296.73</ele>
        <time>2020-08-16T11:12:51.000Z</time>
      </trkpt>
      <trkpt lat="45.17372" lon="5.7741">
        <ele>291.57</ele>
        <time>2020-08-16T11:12:56.000Z</time>
      </trkpt>
      <trkpt lat="45.17409" lon="5.77453">
        <ele>287.98</ele>
        <time>2020-08-16T11:13:01.000Z</time>
      </trkpt>
      <trkpt lat="45.17439" lon="5.77516">
        <ele>278.92</ele>
        <time>2020-08-16T11:13:06.000Z</time>
      </trkpt>
      <trkpt lat="45.1748" lon="5.77564">
        <ele>275.4</ele>
        <time>2020-08-16T11:13:11.000Z</time>
      </trkpt>
      <trkpt lat="45.17508" lon="5.77612">
        <ele>275.87</ele>
        <time>2020-08-16T11:13:16.000Z</time>
      </trkpt>
      <trkpt lat="45.17542" lon="5.77653">
        <ele>274.09</ele>
        <time>2020-08-16T11:13:21.000Z</time>
      </trkpt>
      <trkpt lat="45.1758" lon="5.77691">
        <ele>273.56</ele>
        <time>2020-08-16T11:13:26.000Z</time>
      </trkpt>
      <trkpt lat="45.17597" lon="5.77748">
        <ele>267.72</ele>
        <time>2020-08-16T11:13:31.000Z</time>
      </trkpt>
      <trkpt lat="45.17612" lon="5.7781">
        <ele>267.1</ele>
        <time>2020-08-16T11:13:36.000Z</time>
      </trkpt>
      <trkpt lat="45.17636" lon="5.77859">
        <ele>266.49</ele>
        <time>2020-08-16T11:13:41.000Z</time>
      </trkpt>
      <trkpt lat="45.17669" lon="5.77896">
        <ele>269.34</ele>
        <time>2020-08-16T11:13:46.000Z</time>
      </trkpt>
      <trkpt lat="45.17689" lon="5.7795">
        <ele>263.59</ele>
        <time>2020-08-16T11:13:51.000Z</time>
      </trkpt>
      <trkpt lat="45.17702" lon="5.78016">
        <ele>263.49</ele>
        <time>2020-08-16T11:13:56.000Z</time>
      </trkpt>
      <trkpt lat="45.17724" lon="5.78075">
        <ele>258.83</ele>
        <time>2020-08-16T11:14:01.000Z</time>
      </trkpt>
      <trkpt lat="45.17759" lon="5.78113">
        <ele>253.24</ele>
        <time>2020-08-16T11:14:06.000Z</time>
      </trkpt>
      <trkpt lat="45.17796" lon="5.78147">
        <ele>252.45</ele>
        <time>2020-08-16T11:14:11.000Z</time>
      </trkpt>
      <trkpt lat="45.17806" lon="5.7821">
        <ele>247.4</ele>
        <time>2020-08-16T11:14:16.000Z</time>
      </trkpt>
      <trkpt lat="45.17811" lon="5.78246">
        <ele>245.48</ele>
        <time>2020-08-16T11:14:21.000Z</time>
      </trkpt>
      <trkpt lat="45.17818" lon="5.78258">
        <ele>241.93</ele>
        <time>2020-08-16T11:14:26.000Z</time>
      </trkpt>
      <trkpt lat="45.17828" lon="5.78288">
        <ele>239.14</ele>
        <time>2020-08-16T11:14:31.000Z</time>
      </trkpt>
      <trkpt lat="45.17838" lon="5.78324">
        <ele>235.78</ele>
        <time>2020-08-16T11:14:36.000Z</time>
      </trkpt>
      <trkpt lat="45.17841" lon="5.78356">
        <ele>233.45</ele>
        <time>2020-08-16T11:14:41.000Z</time>
      </trkpt>
      <trkpt lat="45.17843" lon="5.78383">
        <ele>228.17</ele>
        <time>2020-08-16T11:14:46.000Z</time>
      </trkpt>
      <trkpt lat="45.17856" lon="5.78411">
        <ele>229.93</ele>
        <time>2020-08-16T11:14:51.000Z</time>
      </trkpt>
      <trkpt lat="45.17865" lon="5.78441">
        <ele>228.3</ele>
        <time>2020-08-16T11:14:56.000Z</time>
      </trkpt>
      <trkpt lat="45.17875" lon="5.78474">
        <ele>227.85</ele>
        <time>2020-08-16T11:15:01.000Z</time>
      </trkpt>
      <trkpt lat="45.17875" lon="5.7851">
        <ele>229.88</ele>
        <time>2020-08-16T11:15:06.000Z</time>
      </trkpt>
      <trkpt lat="45.17875" lon="5.78536">
        <ele>232.85</ele>
        <time>2020-08-16T11:15:11.000Z</time>
      </trkpt>
      <trkpt lat="45.17876" lon="5.78563">
        <ele>232.04</ele>
        <time>2020-08-16T11:15:16.000Z</time>
      </trkpt>
      <trkpt lat="45.17867" lon="5.78568">
        <ele>217.44</ele>
        <time>2020-08-16T11:17:28.000Z</time>
      </trkpt>
      <trkpt lat="45.17865" lon="5.78581">
        <ele>217.81</ele>
        <time>2020-08-16T11:20:11.000Z</time>
      </trkpt>
      <trkpt lat="45.17869" lon="5.78608">
        <ele>218.92</ele>
        <time>2020-08-16T11:20:16.000Z</time>
      </trkpt>
      <trkpt lat="45.17872" lon="5.78633">
        <ele>219.69</ele>
        <time>2020-08-16T11:20:21.000Z</time>
      </trkpt>
      <trkpt lat="45.17875" lon="5.78657">
        <ele>222.99</ele>
        <time>2020-08-16T11:20:26.000Z</time>
      </trkpt>
      <trkpt lat="45.17876" lon="5.78681">
        <ele>223.24</ele>
        <time>2020-08-16T11:20:31.000Z</time>
      </trkpt>
      <trkpt lat="45.17871" lon="5.787">
        <ele>219.5</ele>
        <time>2020-08-16T11:20:36.000Z</time>
      </trkpt>
      <trkpt lat="45.17871" lon="5.78722">
        <ele>218.92</ele>
        <time>2020-08-16T11:20:41.000Z</time>
      </trkpt>
      <trkpt lat="45.17874" lon="5.78744">
        <ele>222.74</ele>
        <time>2020-08-16T11:20:46.000Z</time>
      </trkpt>
      <trkpt lat="45.17876" lon="5.78758">
        <ele>225.33</ele>
        <time>2020-08-16T11:20:51.000Z</time>
      </trkpt>
      <trkpt lat="45.17877" lon="5.78779">
        <ele>220.44</ele>
        <time>2020-08-16T11:20:56.000Z</time>
      </trkpt>
      <trkpt lat="45.17873" lon="5.78795">
        <ele>220.35</ele>
        <time>2020-08-16T11:21:01.000Z</time>
      </trkpt>
      <trkpt lat="45.17872" lon="5.78814">
        <ele>219.28</ele>
        <time>2020-08-16T11:21:06.000Z</time>
      </trkpt>
      <trkpt lat="45.17873" lon="5.78834">
        <ele>220.35</ele>
        <time>2020-08-16T11:21:11.000Z</time>
      </trkpt>
      <trkpt lat="45.17872" lon="5.78852">
        <ele>221.82</ele>
        <time>2020-08-16T11:21:16.000Z</time>
      </trkpt>
      <trkpt lat="45.17871" lon="5.78872">
        <ele>220.19</ele>
        <time>2020-08-16T11:21:21.000Z</time>
      </trkpt>
      <trkpt lat="45.17875" lon="5.7889">
        <ele>226.18</ele>
        <time>2020-08-16T11:21:26.000Z</time>
      </trkpt>
      <trkpt lat="45.17882" lon="5.78901">
        <ele>228.95</ele>
        <time>2020-08-16T11:21:31.000Z</time>
      </trkpt>
      <trkpt lat="45.17891" lon="5.78897">
        <ele>227.97</ele>
        <time>2020-08-16T11:21:49.000Z</time>
      </trkpt>
      <trkpt lat="45.17895" lon="5.78909">
        <ele>241.55</ele>
        <time>2020-08-16T11:46:09.000Z</time>
      </trkpt>
      <trkpt lat="45.17897" lon="5.78921">
        <ele>242.74</ele>
        <time>2020-08-16T11:46:21.000Z</time>
      </trkpt>
      <trkpt lat="45.17903" lon="5.78932">
        <ele>245.44</ele>
        <time>2020-08-16T11:46:43.000Z</time>
      </trkpt>
      <trkpt lat="45.1791" lon="5.78949">
        <ele>242.49</ele>
        <time>2020-08-16T11:46:48.000Z</time>
      </trkpt>
      <trkpt lat="45.17916" lon="5.78968">
        <ele>240.01</ele>
        <time>2020-08-16T11:46:53.000Z</time>
      </trkpt>
      <trkpt lat="45.17922" lon="5.78994">
        <ele>238.83</ele>
        <time>2020-08-16T11:46:58.000Z</time>
      </trkpt>
      <trkpt lat="45.17928" lon="5.79015">
        <ele>239.94</ele>
        <time>2020-08-16T11:47:03.000Z</time>
      </trkpt>
      <trkpt lat="45.17929" lon="5.79029">
        <ele>238.83</ele>
        <time>2020-08-16T11:47:08.000Z</time>
      </trkpt>
      <trkpt lat="45.17943" lon="5.79046">
        <ele>239.5</ele>
        <time>2020-08-16T11:47:13.000Z</time>
      </trkpt>
      <trkpt lat="45.1796" lon="5.79065">
        <ele>239.29</ele>
        <time>2020-08-16T11:47:18.000Z</time>
      </trkpt>
      <trkpt lat="45.1798" lon="5.79075">
        <ele>234.65</ele>
        <time>2020-08-16T11:47:23.000Z</time>
      </trkpt>
      <trkpt lat="45.17992" lon="5.79093">
        <ele>230.81</ele>
        <time>2020-08-16T11:47:28.000Z</time>
      </trkpt>
      <trkpt lat="45.1801" lon="5.79096">
        <ele>228.61</ele>
        <time>2020-08-16T11:47:33.000Z</time>
      </trkpt>
      <trkpt lat="45.18028" lon="5.79103">
        <ele>232.76</ele>
        <time>2020-08-16T11:47:38.000Z</time>
      </trkpt>
      <trkpt lat="45.18053" lon="5.79121">
        <ele>233.64</ele>
        <time>2020-08-16T11:47:43.000Z</time>
      </trkpt>
      <trkpt lat="45.18074" lon="5.79129">
        <ele>231.65</ele>
        <time>2020-08-16T11:47:48.000Z</time>
      </trkpt>
      <trkpt lat="45.18097" lon="5.79139">
        <ele>232.8</ele>
        <time>2020-08-16T11:47:53.000Z</time>
      </trkpt>
      <trkpt lat="45.18122" lon="5.79144">
        <ele>233.53</ele>
        <time>2020-08-16T11:47:58.000Z</time>
      </trkpt>
      <trkpt lat="45.18145" lon="5.79156">
        <ele>232.94</ele>
        <time>2020-08-16T11:48:03.000Z</time>
      </trkpt>
      <trkpt lat="45.18156" lon="5.79164">
        <ele>230.99</ele>
        <time>2020-08-16T11:48:08.000Z</time>
      </trkpt>
      <trkpt lat="45.18168" lon="5.79168">
        <ele>227.28</ele>
        <time>2020-08-16T11:48:13.000Z</time>
      </trkpt>
      <trkpt lat="45.18177" lon="5.79169">
        <ele>225.83</ele>
        <time>2020-08-16T11:48:19.000Z</time>
      </trkpt>
      <trkpt lat="45.18183" lon="5.7918">
        <ele>227.14</ele>
        <time>2020-08-16T11:48:26.000Z</time>
      </trkpt>
      <trkpt lat="45.1819" lon="5.79199">
        <ele>228.97</ele>
        <time>2020-08-16T11:48:31.000Z</time>
      </trkpt>
      <trkpt lat="45.18203" lon="5.79217">
        <ele>231.92</ele>
        <time>2020-08-16T11:48:36.000Z</time>
      </trkpt>
      <trkpt lat="45.18209" lon="5.79239">
        <ele>234.25</ele>
        <time>2020-08-16T11:48:41.000Z</time>
      </trkpt>
      <trkpt lat="45.18219" lon="5.79249">
        <ele>230.48</ele>
        <time>2020-08-16T11:48:46.000Z</time>
      </trkpt>
      <trkpt lat="45.1823" lon="5.7924">
        <ele>227.13</ele>
        <time>2020-08-16T11:48:51.000Z</time>
      </trkpt>
      <trkpt lat="45.18231" lon="5.79224">
        <ele>229.01</ele>
        <time>2020-08-16T11:48:56.000Z</time>
      </trkpt>
      <trkpt lat="45.18229" lon="5.7921">
        <ele>228.29</ele>
        <time>2020-08-16T11:49:01.000Z</time>
      </trkpt>
      <trkpt lat="45.18236" lon="5.792">
        <ele>230.49</ele>
        <time>2020-08-16T11:49:06.000Z</time>
      </trkpt>
      <trkpt lat="45.18246" lon="5.79194">
        <ele>229.88</ele>
        <time>2020-08-16T11:49:12.000Z</time>
      </trkpt>
      <trkpt lat="45.18262" lon="5.79195">
        <ele>230.01</ele>
        <time>2020-08-16T11:49:17.000Z</time>
      </trkpt>
      <trkpt lat="45.18272" lon="5.79193">
        <ele>228.84</ele>
        <time>2020-08-16T11:49:22.000Z</time>
      </trkpt>
      <trkpt lat="45.18287" lon="5.7918">
        <ele>223.69</ele>
        <time>2020-08-16T11:49:27.000Z</time>
      </trkpt>
      <trkpt lat="45.18311" lon="5.79166">
        <ele>222.8</ele>
        <time>2020-08-16T11:49:32.000Z</time>
      </trkpt>
      <trkpt lat="45.18331" lon="5.79152">
        <ele>222.24</ele>
        <time>2020-08-16T11:49:37.000Z</time>
      </trkpt>
      <trkpt lat="45.18352" lon="5.79126">
        <ele>220.64</ele>
        <time>2020-08-16T11:49:42.000Z</time>
      </trkpt>
      <trkpt lat="45.18368" lon="5.791">
        <ele>220.81</ele>
        <time>2020-08-16T11:49:47.000Z</time>
      </trkpt>
      <trkpt lat="45.18389" lon="5.7908">
        <ele>221.53</ele>
        <time>2020-08-16T11:49:52.000Z</time>
      </trkpt>
      <trkpt lat="45.18413" lon="5.79066">
        <ele>224.45</ele>
        <time>2020-08-16T11:49:57.000Z</time>
      </trkpt>
      <trkpt lat="45.18433" lon="5.79061">
        <ele>226.02</ele>
        <time>2020-08-16T11:50:02.000Z</time>
      </trkpt>
      <trkpt lat="45.18459" lon="5.79055">
        <ele>224</ele>
        <time>2020-08-16T11:50:07.000Z</time>
      </trkpt>
      <trkpt lat="45.18478" lon="5.79054">
        <ele>224.27</ele>
        <time>2020-08-16T11:50:12.000Z</time>
      </trkpt>
      <trkpt lat="45.18495" lon="5.79059">
        <ele>225.72</ele>
        <time>2020-08-16T11:50:17.000Z</time>
      </trkpt>
      <trkpt lat="45.18505" lon="5.79078">
        <ele>226.59</ele>
        <time>2020-08-16T11:50:22.000Z</time>
      </trkpt>
      <trkpt lat="45.18509" lon="5.79095">
        <ele>225.14</ele>
        <time>2020-08-16T11:50:27.000Z</time>
      </trkpt>
      <trkpt lat="45.1851" lon="5.79112">
        <ele>224.21</ele>
        <time>2020-08-16T11:50:32.000Z</time>
      </trkpt>
      <trkpt lat="45.18514" lon="5.79128">
        <ele>222.31</ele>
        <time>2020-08-16T11:50:37.000Z</time>
      </trkpt>
      <trkpt lat="45.1852" lon="5.79144">
        <ele>220</ele>
        <time>2020-08-16T11:50:42.000Z</time>
      </trkpt>
      <trkpt lat="45.1853" lon="5.7916">
        <ele>219.72</ele>
        <time>2020-08-16T11:50:47.000Z</time>
      </trkpt>
      <trkpt lat="45.18541" lon="5.79178">
        <ele>221.43</ele>
        <time>2020-08-16T11:50:52.000Z</time>
      </trkpt>
      <trkpt lat="45.1855" lon="5.79191">
        <ele>222.21</ele>
        <time>2020-08-16T11:50:57.000Z</time>
      </trkpt>
      <trkpt lat="45.18557" lon="5.79203">
        <ele>220.25</ele>
        <time>2020-08-16T11:51:02.000Z</time>
      </trkpt>
      <trkpt lat="45.18557" lon="5.79218">
        <ele>221.39</ele>
        <time>2020-08-16T11:51:07.000Z</time>
      </trkpt>
      <trkpt lat="45.1855" lon="5.79237">
        <ele>219.93</ele>
        <time>2020-08-16T11:51:12.000Z</time>
      </trkpt>
      <trkpt lat="45.18544" lon="5.79259">
        <ele>219.07</ele>
        <time>2020-08-16T11:51:17.000Z</time>
      </trkpt>
      <trkpt lat="45.18539" lon="5.79285">
        <ele>220</ele>
        <time>2020-08-16T11:51:22.000Z</time>
      </trkpt>
      <trkpt lat="45.18534" lon="5.79315">
        <ele>217.53</ele>
        <time>2020-08-16T11:51:27.000Z</time>
      </trkpt>
      <trkpt lat="45.18525" lon="5.79342">
        <ele>217.93</ele>
        <time>2020-08-16T11:51:32.000Z</time>
      </trkpt>
      <trkpt lat="45.18522" lon="5.79373">
        <ele>221.99</ele>
        <time>2020-08-16T11:51:37.000Z</time>
      </trkpt>
      <trkpt lat="45.18523" lon="5.79405">
        <ele>219.82</ele>
        <time>2020-08-16T11:51:42.000Z</time>
      </trkpt>
      <trkpt lat="45.18525" lon="5.79433">
        <ele>219.09</ele>
        <time>2020-08-16T11:51:47.000Z</time>
      </trkpt>
      <trkpt lat="45.18527" lon="5.7946">
        <ele>218.2</ele>
        <time>2020-08-16T11:51:52.000Z</time>
      </trkpt>
      <trkpt lat="45.1853" lon="5.79489">
        <ele>217.94</ele>
        <time>2020-08-16T11:51:57.000Z</time>
      </trkpt>
      <trkpt lat="45.18535" lon="5.79515">
        <ele>215.05</ele>
        <time>2020-08-16T11:52:02.000Z</time>
      </trkpt>
      <trkpt lat="45.18546" lon="5.79538">
        <ele>217.21</ele>
        <time>2020-08-16T11:52:07.000Z</time>
      </trkpt>
      <trkpt lat="45.18553" lon="5.79565">
        <ele>217.61</ele>
        <time>2020-08-16T11:52:12.000Z</time>
      </trkpt>
      <trkpt lat="45.18557" lon="5.79595">
        <ele>219.42</ele>
        <time>2020-08-16T11:52:17.000Z</time>
      </trkpt>
      <trkpt lat="45.18559" lon="5.79627">
        <ele>220.55</ele>
        <time>2020-08-16T11:52:22.000Z</time>
      </trkpt>
      <trkpt lat="45.18557" lon="5.79661">
        <ele>221.14</ele>
        <time>2020-08-16T11:52:27.000Z</time>
      </trkpt>
      <trkpt lat="45.18555" lon="5.79694">
        <ele>222.62</ele>
        <time>2020-08-16T11:52:32.000Z</time>
      </trkpt>
      <trkpt lat="45.18551" lon="5.79729">
        <ele>219.84</ele>
        <time>2020-08-16T11:52:37.000Z</time>
      </trkpt>
      <trkpt lat="45.1855" lon="5.79764">
        <ele>220.24</ele>
        <time>2020-08-16T11:52:42.000Z</time>
      </trkpt>
      <trkpt lat="45.18548" lon="5.79798">
        <ele>217.62</ele>
        <time>2020-08-16T11:52:47.000Z</time>
      </trkpt>
      <trkpt lat="45.18548" lon="5.79832">
        <ele>217.81</ele>
        <time>2020-08-16T11:52:52.000Z</time>
      </trkpt>
      <trkpt lat="45.18544" lon="5.79865">
        <ele>216.83</ele>
        <time>2020-08-16T11:52:57.000Z</time>
      </trkpt>
      <trkpt lat="45.18546" lon="5.79886">
        <ele>215.49</ele>
        <time>2020-08-16T11:53:02.000Z</time>
      </trkpt>
      <trkpt lat="45.18557" lon="5.79894">
        <ele>216.48</ele>
        <time>2020-08-16T11:53:07.000Z</time>
      </trkpt>
      <trkpt lat="45.18574" lon="5.79902">
        <ele>215.87</ele>
        <time>2020-08-16T11:53:12.000Z</time>
      </trkpt>
      <trkpt lat="45.18599" lon="5.79915">
        <ele>213.79</ele>
        <time>2020-08-16T11:53:17.000Z</time>
      </trkpt>
      <trkpt lat="45.1862" lon="5.79924">
        <ele>212.11</ele>
        <time>2020-08-16T11:53:22.000Z</time>
      </trkpt>
      <trkpt lat="45.18643" lon="5.79937">
        <ele>215.49</ele>
        <time>2020-08-16T11:53:27.000Z</time>
      </trkpt>
      <trkpt lat="45.18656" lon="5.79962">
        <ele>214.27</ele>
        <time>2020-08-16T11:53:32.000Z</time>
      </trkpt>
      <trkpt lat="45.18666" lon="5.79996">
        <ele>212.9</ele>
        <time>2020-08-16T11:53:37.000Z</time>
      </trkpt>
      <trkpt lat="45.18677" lon="5.80027">
        <ele>211.18</ele>
        <time>2020-08-16T11:53:42.000Z</time>
      </trkpt>
      <trkpt lat="45.18688" lon="5.80058">
        <ele>211.08</ele>
        <time>2020-08-16T11:53:47.000Z</time>
      </trkpt>
      <trkpt lat="45.18702" lon="5.80084">
        <ele>213.39</ele>
        <time>2020-08-16T11:53:52.000Z</time>
      </trkpt>
      <trkpt lat="45.18698" lon="5.80106">
        <ele>213.37</ele>
        <time>2020-08-16T11:53:57.000Z</time>
      </trkpt>
      <trkpt lat="45.18695" lon="5.80134">
        <ele>215.54</ele>
        <time>2020-08-16T11:54:02.000Z</time>
      </trkpt>
      <trkpt lat="45.18691" lon="5.80165">
        <ele>214.05</ele>
        <time>2020-08-16T11:54:07.000Z</time>
      </trkpt>
      <trkpt lat="45.1868" lon="5.80194">
        <ele>211.67</ele>
        <time>2020-08-16T11:54:12.000Z</time>
      </trkpt>
      <trkpt lat="45.18668" lon="5.80225">
        <ele>212.66</ele>
        <time>2020-08-16T11:54:17.000Z</time>
      </trkpt>
      <trkpt lat="45.18661" lon="5.80258">
        <ele>214.37</ele>
        <time>2020-08-16T11:54:22.000Z</time>
      </trkpt>
      <trkpt lat="45.18656" lon="5.80293">
        <ele>214.5</ele>
        <time>2020-08-16T11:54:27.000Z</time>
      </trkpt>
      <trkpt lat="45.18655" lon="5.80331">
        <ele>214.72</ele>
        <time>2020-08-16T11:54:32.000Z</time>
      </trkpt>
      <trkpt lat="45.18659" lon="5.80366">
        <ele>215.02</ele>
        <time>2020-08-16T11:54:37.000Z</time>
      </trkpt>
      <trkpt lat="45.18668" lon="5.80401">
        <ele>215.43</ele>
        <time>2020-08-16T11:54:42.000Z</time>
      </trkpt>
      <trkpt lat="45.18671" lon="5.80437">
        <ele>213.65</ele>
        <time>2020-08-16T11:54:47.000Z</time>
      </trkpt>
      <trkpt lat="45.18673" lon="5.80467">
        <ele>212.78</ele>
        <time>2020-08-16T11:54:52.000Z</time>
      </trkpt>
      <trkpt lat="45.18677" lon="5.80482">
        <ele>216.86</ele>
        <time>2020-08-16T11:55:28.000Z</time>
      </trkpt>
      <trkpt lat="45.18687" lon="5.80502">
        <ele>217.5</ele>
        <time>2020-08-16T11:55:33.000Z</time>
      </trkpt>
      <trkpt lat="45.18696" lon="5.80526">
        <ele>217.58</ele>
        <time>2020-08-16T11:55:38.000Z</time>
      </trkpt>
      <trkpt lat="45.18705" lon="5.80547">
        <ele>216.57</ele>
        <time>2020-08-16T11:55:43.000Z</time>
      </trkpt>
      <trkpt lat="45.18708" lon="5.80561">
        <ele>215</ele>
        <time>2020-08-16T11:55:49.000Z</time>
      </trkpt>
      <trkpt lat="45.18716" lon="5.80576">
        <ele>217.4</ele>
        <time>2020-08-16T11:55:54.000Z</time>
      </trkpt>
      <trkpt lat="45.18727" lon="5.80598">
        <ele>217.73</ele>
        <time>2020-08-16T11:55:59.000Z</time>
      </trkpt>
      <trkpt lat="45.18745" lon="5.80615">
        <ele>216.06</ele>
        <time>2020-08-16T11:56:04.000Z</time>
      </trkpt>
      <trkpt lat="45.18765" lon="5.80627">
        <ele>216.62</ele>
        <time>2020-08-16T11:56:09.000Z</time>
      </trkpt>
      <trkpt lat="45.18787" lon="5.80643">
        <ele>213.72</ele>
        <time>2020-08-16T11:56:14.000Z</time>
      </trkpt>
      <trkpt lat="45.18812" lon="5.80657">
        <ele>211.6</ele>
        <time>2020-08-16T11:56:19.000Z</time>
      </trkpt>
      <trkpt lat="45.18829" lon="5.80665">
        <ele>210.37</ele>
        <time>2020-08-16T11:56:24.000Z</time>
      </trkpt>
      <trkpt lat="45.18851" lon="5.80677">
        <ele>208.27</ele>
        <time>2020-08-16T11:56:29.000Z</time>
      </trkpt>
      <trkpt lat="45.18847" lon="5.80698">
        <ele>210.19</ele>
        <time>2020-08-16T11:56:34.000Z</time>
      </trkpt>
      <trkpt lat="45.18827" lon="5.80706">
        <ele>211.49</ele>
        <time>2020-08-16T11:56:39.000Z</time>
      </trkpt>
      <trkpt lat="45.18807" lon="5.80714">
        <ele>216.86</ele>
        <time>2020-08-16T11:56:44.000Z</time>
      </trkpt>
      <trkpt lat="45.18786" lon="5.80715">
        <ele>217.88</ele>
        <time>2020-08-16T11:56:49.000Z</time>
      </trkpt>
      <trkpt lat="45.18776" lon="5.80726">
        <ele>220.53</ele>
        <time>2020-08-16T11:56:54.000Z</time>
      </trkpt>
      <trkpt lat="45.1877" lon="5.80738">
        <ele>228.28</ele>
        <time>2020-08-16T11:57:34.000Z</time>
      </trkpt>
      <trkpt lat="45.18769" lon="5.80757">
        <ele>223.88</ele>
        <time>2020-08-16T11:57:39.000Z</time>
      </trkpt>
      <trkpt lat="45.1878" lon="5.80777">
        <ele>219.18</ele>
        <time>2020-08-16T11:57:44.000Z</time>
      </trkpt>
      <trkpt lat="45.18797" lon="5.80798">
        <ele>219.62</ele>
        <time>2020-08-16T11:57:49.000Z</time>
      </trkpt>
      <trkpt lat="45.18814" lon="5.80821">
        <ele>220.47</ele>
        <time>2020-08-16T11:57:54.000Z</time>
      </trkpt>
      <trkpt lat="45.18828" lon="5.80856">
        <ele>220.38</ele>
        <time>2020-08-16T11:57:59.000Z</time>
      </trkpt>
      <trkpt lat="45.18841" lon="5.80886">
        <ele>222.43</ele>
        <time>2020-08-16T11:58:04.000Z</time>
      </trkpt>
      <trkpt lat="45.18853" lon="5.80914">
        <ele>222.58</ele>
        <time>2020-08-16T11:58:09.000Z</time>
      </trkpt>
      <trkpt lat="45.18867" lon="5.80941">
        <ele>221.42</ele>
        <time>2020-08-16T11:58:14.000Z</time>
      </trkpt>
      <trkpt lat="45.18879" lon="5.80969">
        <ele>223.13</ele>
        <time>2020-08-16T11:58:19.000Z</time>
      </trkpt>
      <trkpt lat="45.1889" lon="5.81001">
        <ele>222.89</ele>
        <time>2020-08-16T11:58:24.000Z</time>
      </trkpt>
      <trkpt lat="45.18903" lon="5.8103">
        <ele>219.91</ele>
        <time>2020-08-16T11:58:29.000Z</time>
      </trkpt>
      <trkpt lat="45.18914" lon="5.81057">
        <ele>221.93</ele>
        <time>2020-08-16T11:58:34.000Z</time>
      </trkpt>
      <trkpt lat="45.18929" lon="5.81085">
        <ele>221.59</ele>
        <time>2020-08-16T11:58:39.000Z</time>
      </trkpt>
      <trkpt lat="45.18942" lon="5.81114">
        <ele>221.82</ele>
        <time>2020-08-16T11:58:44.000Z</time>
      </trkpt>
      <trkpt lat="45.18955" lon="5.81146">
        <ele>223.52</ele>
        <time>2020-08-16T11:58:49.000Z</time>
      </trkpt>
      <trkpt lat="45.18963" lon="5.81181">
        <ele>221.11</ele>
        <time>2020-08-16T11:58:54.000Z</time>
      </trkpt>
      <trkpt lat="45.18979" lon="5.81206">
        <ele>220.52</ele>
        <time>2020-08-16T11:58:59.000Z</time>
      </trkpt>
      <trkpt lat="45.18995" lon="5.81233">
        <ele>221.84</ele>
        <time>2020-08-16T11:59:04.000Z</time>
      </trkpt>
      <trkpt lat="45.19003" lon="5.81262">
        <ele>217.58</ele>
        <time>2020-08-16T11:59:09.000Z</time>
      </trkpt>
      <trkpt lat="45.19017" lon="5.81291">
        <ele>218.1</ele>
        <time>2020-08-16T11:59:14.000Z</time>
      </trkpt>
      <trkpt lat="45.19035" lon="5.81322">
        <ele>220.42</ele>
        <time>2020-08-16T11:59:19.000Z</time>
      </trkpt>
      <trkpt lat="45.19052" lon="5.81352">
        <ele>223.19</ele>
        <time>2020-08-16T11:59:24.000Z</time>
      </trkpt>
      <trkpt lat="45.19067" lon="5.81382">
        <ele>225.37</ele>
        <time>2020-08-16T11:59:29.000Z</time>
      </trkpt>
      <trkpt lat="45.19079" lon="5.81408">
        <ele>222.85</ele>
        <time>2020-08-16T11:59:34.000Z</time>
      </trkpt>
      <trkpt lat="45.19091" lon="5.81443">
        <ele>221.39</ele>
        <time>2020-08-16T11:59:39.000Z</time>
      </trkpt>
      <trkpt lat="45.19105" lon="5.81477">
        <ele>222.35</ele>
        <time>2020-08-16T11:59:44.000Z</time>
      </trkpt>
      <trkpt lat="45.19118" lon="5.81504">
        <ele>218.84</ele>
        <time>2020-08-16T11:59:49.000Z</time>
      </trkpt>
      <trkpt lat="45.19133" lon="5.81532">
        <ele>219.27</ele>
        <time>2020-08-16T11:59:54.000Z</time>
      </trkpt>
      <trkpt lat="45.19143" lon="5.81556">
        <ele>220.89</ele>
        <time>2020-08-16T11:59:59.000Z</time>
      </trkpt>
      <trkpt lat="45.19152" lon="5.8158">
        <ele>222.97</ele>
        <time>2020-08-16T12:00:04.000Z</time>
      </trkpt>
      <trkpt lat="45.19162" lon="5.816">
        <ele>224.45</ele>
        <time>2020-08-16T12:00:09.000Z</time>
      </trkpt>
      <trkpt lat="45.19174" lon="5.81624">
        <ele>224.83</ele>
        <time>2020-08-16T12:00:14.000Z</time>
      </trkpt>
      <trkpt lat="45.19184" lon="5.81647">
        <ele>225.18</ele>
        <time>2020-08-16T12:00:19.000Z</time>
      </trkpt>
      <trkpt lat="45.19192" lon="5.81668">
        <ele>224.24</ele>
        <time>2020-08-16T12:00:24.000Z</time>
      </trkpt>
      <trkpt lat="45.19202" lon="5.81688">
        <ele>225.86</ele>
        <time>2020-08-16T12:00:29.000Z</time>
      </trkpt>
      <trkpt lat="45.19209" lon="5.8171">
        <ele>229.06</ele>
        <time>2020-08-16T12:00:34.000Z</time>
      </trkpt>
      <trkpt lat="45.19204" lon="5.81731">
        <ele>231.95</ele>
        <time>2020-08-16T12:00:39.000Z</time>
      </trkpt>
      <trkpt lat="45.19192" lon="5.81746">
        <ele>232.59</ele>
        <time>2020-08-16T12:00:44.000Z</time>
      </trkpt>
      <trkpt lat="45.19178" lon="5.81763">
        <ele>233.26</ele>
        <time>2020-08-16T12:00:49.000Z</time>
      </trkpt>
      <trkpt lat="45.19168" lon="5.81776">
        <ele>234.84</ele>
        <time>2020-08-16T12:00:54.000Z</time>
      </trkpt>
      <trkpt lat="45.19157" lon="5.81789">
        <ele>235.7</ele>
        <time>2020-08-16T12:00:59.000Z</time>
      </trkpt>
      <trkpt lat="45.19147" lon="5.8181">
        <ele>236.61</ele>
        <time>2020-08-16T12:01:04.000Z</time>
      </trkpt>
      <trkpt lat="45.19135" lon="5.81828">
        <ele>247.49</ele>
        <time>2020-08-16T12:01:09.000Z</time>
      </trkpt>
      <trkpt lat="45.19125" lon="5.81843">
        <ele>247.46</ele>
        <time>2020-08-16T12:01:14.000Z</time>
      </trkpt>
      <trkpt lat="45.19114" lon="5.81863">
        <ele>248.69</ele>
        <time>2020-08-16T12:01:19.000Z</time>
      </trkpt>
      <trkpt lat="45.19097" lon="5.81878">
        <ele>250.74</ele>
        <time>2020-08-16T12:01:24.000Z</time>
      </trkpt>
      <trkpt lat="45.1908" lon="5.81895">
        <ele>247.95</ele>
        <time>2020-08-16T12:01:29.000Z</time>
      </trkpt>
      <trkpt lat="45.1906" lon="5.81907">
        <ele>243.42</ele>
        <time>2020-08-16T12:01:34.000Z</time>
      </trkpt>
      <trkpt lat="45.19044" lon="5.81916">
        <ele>243.34</ele>
        <time>2020-08-16T12:01:39.000Z</time>
      </trkpt>
      <trkpt lat="45.19029" lon="5.81919">
        <ele>240.53</ele>
        <time>2020-08-16T12:01:44.000Z</time>
      </trkpt>
      <trkpt lat="45.19015" lon="5.81907">
        <ele>244.35</ele>
        <time>2020-08-16T12:01:49.000Z</time>
      </trkpt>
      <trkpt lat="45.18997" lon="5.81895">
        <ele>240.51</ele>
        <time>2020-08-16T12:01:54.000Z</time>
      </trkpt>
      <trkpt lat="45.18984" lon="5.81891">
        <ele>240.07</ele>
        <time>2020-08-16T12:01:59.000Z</time>
      </trkpt>
      <trkpt lat="45.18973" lon="5.8188">
        <ele>239.57</ele>
        <time>2020-08-16T12:02:04.000Z</time>
      </trkpt>
      <trkpt lat="45.1896" lon="5.81869">
        <ele>240.21</ele>
        <time>2020-08-16T12:02:09.000Z</time>
      </trkpt>
      <trkpt lat="45.18946" lon="5.81854">
        <ele>241.53</ele>
        <time>2020-08-16T12:02:14.000Z</time>
      </trkpt>
      <trkpt lat="45.18933" lon="5.81835">
        <ele>238.34</ele>
        <time>2020-08-16T12:02:19.000Z</time>
      </trkpt>
      <trkpt lat="45.18922" lon="5.81815">
        <ele>237.83</ele>
        <time>2020-08-16T12:02:24.000Z</time>
      </trkpt>
      <trkpt lat="45.18912" lon="5.81802">
        <ele>236.6</ele>
        <time>2020-08-16T12:02:29.000Z</time>
      </trkpt>
      <trkpt lat="45.18901" lon="5.81784">
        <ele>237.08</ele>
        <time>2020-08-16T12:02:34.000Z</time>
      </trkpt>
      <trkpt lat="45.18895" lon="5.81766">
        <ele>239.93</ele>
        <time>2020-08-16T12:02:39.000Z</time>
      </trkpt>
      <trkpt lat="45.18881" lon="5.8174">
        <ele>238.1</ele>
        <time>2020-08-16T12:02:44.000Z</time>
      </trkpt>
      <trkpt lat="45.18869" lon="5.81722">
        <ele>243.07</ele>
        <time>2020-08-16T12:02:49.000Z</time>
      </trkpt>
      <trkpt lat="45.18859" lon="5.8171">
        <ele>246.32</ele>
        <time>2020-08-16T12:02:54.000Z</time>
      </trkpt>
      <trkpt lat="45.18845" lon="5.81691">
        <ele>249.56</ele>
        <time>2020-08-16T12:02:59.000Z</time>
      </trkpt>
      <trkpt lat="45.18833" lon="5.81672">
        <ele>251.66</ele>
        <time>2020-08-16T12:03:04.000Z</time>
      </trkpt>
      <trkpt lat="45.18823" lon="5.81663">
        <ele>251.13</ele>
        <time>2020-08-16T12:03:09.000Z</time>
      </trkpt>
      <trkpt lat="45.18812" lon="5.81647">
        <ele>251.35</ele>
        <time>2020-08-16T12:03:14.000Z</time>
      </trkpt>
      <trkpt lat="45.1881" lon="5.81617">
        <ele>251.79</ele>
        <time>2020-08-16T12:03:19.000Z</time>
      </trkpt>
      <trkpt lat="45.18808" lon="5.81603">
        <ele>251.41</ele>
        <time>2020-08-16T12:03:24.000Z</time>
      </trkpt>
      <trkpt lat="45.18795" lon="5.81586">
        <ele>247.08</ele>
        <time>2020-08-16T12:03:29.000Z</time>
      </trkpt>
      <trkpt lat="45.18783" lon="5.81558">
        <ele>250.06</ele>
        <time>2020-08-16T12:03:34.000Z</time>
      </trkpt>
      <trkpt lat="45.18774" lon="5.81529">
        <ele>250.73</ele>
        <time>2020-08-16T12:03:39.000Z</time>
      </trkpt>
      <trkpt lat="45.18758" lon="5.81509">
        <ele>250.64</ele>
        <time>2020-08-16T12:03:44.000Z</time>
      </trkpt>
      <trkpt lat="45.18748" lon="5.8149">
        <ele>249.73</ele>
        <time>2020-08-16T12:03:49.000Z</time>
      </trkpt>
      <trkpt lat="45.18738" lon="5.81464">
        <ele>253.8</ele>
        <time>2020-08-16T12:03:54.000Z</time>
      </trkpt>
      <trkpt lat="45.18728" lon="5.81438">
        <ele>256</ele>
        <time>2020-08-16T12:03:59.000Z</time>
      </trkpt>
      <trkpt lat="45.18718" lon="5.8142">
        <ele>263.27</ele>
        <time>2020-08-16T12:04:04.000Z</time>
      </trkpt>
      <trkpt lat="45.18707" lon="5.81401">
        <ele>266.42</ele>
        <time>2020-08-16T12:04:09.000Z</time>
      </trkpt>
      <trkpt lat="45.18697" lon="5.81385">
        <ele>265.56</ele>
        <time>2020-08-16T12:04:14.000Z</time>
      </trkpt>
      <trkpt lat="45.18679" lon="5.81392">
        <ele>264.07</ele>
        <time>2020-08-16T12:04:37.000Z</time>
      </trkpt>
      <trkpt lat="45.18673" lon="5.8138">
        <ele>265.41</ele>
        <time>2020-08-16T12:04:42.000Z</time>
      </trkpt>
      <trkpt lat="45.18676" lon="5.81368">
        <ele>268.62</ele>
        <time>2020-08-16T12:04:48.000Z</time>
      </trkpt>
      <trkpt lat="45.18678" lon="5.81355">
        <ele>270.82</ele>
        <time>2020-08-16T12:04:53.000Z</time>
      </trkpt>
      <trkpt lat="45.18681" lon="5.81369">
        <ele>278.33</ele>
        <time>2020-08-16T12:04:59.000Z</time>
      </trkpt>
      <trkpt lat="45.18691" lon="5.81376">
        <ele>282.66</ele>
        <time>2020-08-16T12:05:04.000Z</time>
      </trkpt>
      <trkpt lat="45.18693" lon="5.81389">
        <ele>299.1</ele>
        <time>2020-08-16T12:06:48.000Z</time>
      </trkpt>
      <trkpt lat="45.18706" lon="5.8141">
        <ele>295.61</ele>
        <time>2020-08-16T12:06:53.000Z</time>
      </trkpt>
      <trkpt lat="45.18721" lon="5.81427">
        <ele>299.65</ele>
        <time>2020-08-16T12:06:58.000Z</time>
      </trkpt>
      <trkpt lat="45.18726" lon="5.81452">
        <ele>301.17</ele>
        <time>2020-08-16T12:07:03.000Z</time>
      </trkpt>
      <trkpt lat="45.18726" lon="5.81478">
        <ele>306.11</ele>
        <time>2020-08-16T12:07:08.000Z</time>
      </trkpt>
      <trkpt lat="45.18722" lon="5.81499">
        <ele>303.32</ele>
        <time>2020-08-16T12:07:13.000Z</time>
      </trkpt>
      <trkpt lat="45.18717" lon="5.8152">
        <ele>304.07</ele>
        <time>2020-08-16T12:07:18.000Z</time>
      </trkpt>
      <trkpt lat="45.18717" lon="5.81541">
        <ele>303.46</ele>
        <time>2020-08-16T12:07:23.000Z</time>
      </trkpt>
      <trkpt lat="45.18717" lon="5.81561">
        <ele>303.65</ele>
        <time>2020-08-16T12:07:28.000Z</time>
      </trkpt>
      <trkpt lat="45.18718" lon="5.81582">
        <ele>305.1</ele>
        <time>2020-08-16T12:07:33.000Z</time>
      </trkpt>
      <trkpt lat="45.18723" lon="5.81606">
        <ele>308.04</ele>
        <time>2020-08-16T12:07:38.000Z</time>
      </trkpt>
      <trkpt lat="45.18726" lon="5.81625">
        <ele>306.86</ele>
        <time>2020-08-16T12:07:43.000Z</time>
      </trkpt>
      <trkpt lat="45.1873" lon="5.81646">
        <ele>304.35</ele>
        <time>2020-08-16T12:07:48.000Z</time>
      </trkpt>
      <trkpt lat="45.18728" lon="5.81671">
        <ele>302.62</ele>
        <time>2020-08-16T12:07:53.000Z</time>
      </trkpt>
      <trkpt lat="45.18729" lon="5.817">
        <ele>302.99</ele>
        <time>2020-08-16T12:07:58.000Z</time>
      </trkpt>
      <trkpt lat="45.18731" lon="5.81727">
        <ele>306.87</ele>
        <time>2020-08-16T12:08:03.000Z</time>
      </trkpt>
      <trkpt lat="45.18722" lon="5.81735">
        <ele>309.87</ele>
        <time>2020-08-16T12:08:08.000Z</time>
      </trkpt>
      <trkpt lat="45.18721" lon="5.81716">
        <ele>313.78</ele>
        <time>2020-08-16T12:08:13.000Z</time>
      </trkpt>
      <trkpt lat="45.18719" lon="5.81695">
        <ele>312.39</ele>
        <time>2020-08-16T12:08:18.000Z</time>
      </trkpt>
      <trkpt lat="45.18709" lon="5.81673">
        <ele>312.77</ele>
        <time>2020-08-16T12:08:23.000Z</time>
      </trkpt>
      <trkpt lat="45.18699" lon="5.81658">
        <ele>311.5</ele>
        <time>2020-08-16T12:08:28.000Z</time>
      </trkpt>
      <trkpt lat="45.1869" lon="5.81641">
        <ele>312.35</ele>
        <time>2020-08-16T12:08:33.000Z</time>
      </trkpt>
      <trkpt lat="45.18684" lon="5.81621">
        <ele>314.56</ele>
        <time>2020-08-16T12:08:38.000Z</time>
      </trkpt>
      <trkpt lat="45.1868" lon="5.81596">
        <ele>316.23</ele>
        <time>2020-08-16T12:08:43.000Z</time>
      </trkpt>
      <trkpt lat="45.18673" lon="5.81575">
        <ele>318.92</ele>
        <time>2020-08-16T12:08:48.000Z</time>
      </trkpt>
      <trkpt lat="45.18663" lon="5.81557">
        <ele>316.58</ele>
        <time>2020-08-16T12:08:53.000Z</time>
      </trkpt>
      <trkpt lat="45.18654" lon="5.81539">
        <ele>315.4</ele>
        <time>2020-08-16T12:08:58.000Z</time>
      </trkpt>
      <trkpt lat="45.18646" lon="5.81521">
        <ele>316.58</ele>
        <time>2020-08-16T12:09:03.000Z</time>
      </trkpt>
      <trkpt lat="45.18636" lon="5.81504">
        <ele>315.79</ele>
        <time>2020-08-16T12:09:08.000Z</time>
      </trkpt>
      <trkpt lat="45.18627" lon="5.81487">
        <ele>313.89</ele>
        <time>2020-08-16T12:09:13.000Z</time>
      </trkpt>
      <trkpt lat="45.18619" lon="5.8147">
        <ele>313.57</ele>
        <time>2020-08-16T12:09:18.000Z</time>
      </trkpt>
      <trkpt lat="45.18614" lon="5.81451">
        <ele>317.13</ele>
        <time>2020-08-16T12:09:23.000Z</time>
      </trkpt>
      <trkpt lat="45.18603" lon="5.81433">
        <ele>316.78</ele>
        <time>2020-08-16T12:09:28.000Z</time>
      </trkpt>
      <trkpt lat="45.18592" lon="5.8141">
        <ele>317.32</ele>
        <time>2020-08-16T12:09:33.000Z</time>
      </trkpt>
      <trkpt lat="45.18581" lon="5.81389">
        <ele>319.36</ele>
        <time>2020-08-16T12:09:38.000Z</time>
      </trkpt>
      <trkpt lat="45.18569" lon="5.81367">
        <ele>321.9</ele>
        <time>2020-08-16T12:09:43.000Z</time>
      </trkpt>
      <trkpt lat="45.18554" lon="5.81344">
        <ele>328.08</ele>
        <time>2020-08-16T12:09:48.000Z</time>
      </trkpt>
      <trkpt lat="45.18542" lon="5.81342">
        <ele>331.22</ele>
        <time>2020-08-16T12:09:53.000Z</time>
      </trkpt>
      <trkpt lat="45.18548" lon="5.81359">
        <ele>331.46</ele>
        <time>2020-08-16T12:09:58.000Z</time>
      </trkpt>
      <trkpt lat="45.18564" lon="5.8137">
        <ele>334.92</ele>
        <time>2020-08-16T12:10:03.000Z</time>
      </trkpt>
      <trkpt lat="45.18572" lon="5.81391">
        <ele>336.85</ele>
        <time>2020-08-16T12:10:08.000Z</time>
      </trkpt>
      <trkpt lat="45.18574" lon="5.81412">
        <ele>336.48</ele>
        <time>2020-08-16T12:10:13.000Z</time>
      </trkpt>
      <trkpt lat="45.18575" lon="5.81432">
        <ele>341.42</ele>
        <time>2020-08-16T12:10:18.000Z</time>
      </trkpt>
      <trkpt lat="45.18579" lon="5.81457">
        <ele>347.36</ele>
        <time>2020-08-16T12:10:23.000Z</time>
      </trkpt>
      <trkpt lat="45.18583" lon="5.81479">
        <ele>353.75</ele>
        <time>2020-08-16T12:10:28.000Z</time>
      </trkpt>
      <trkpt lat="45.18585" lon="5.81502">
        <ele>353.8</ele>
        <time>2020-08-16T12:10:33.000Z</time>
      </trkpt>
      <trkpt lat="45.18586" lon="5.81525">
        <ele>355.6</ele>
        <time>2020-08-16T12:10:38.000Z</time>
      </trkpt>
      <trkpt lat="45.18589" lon="5.8155">
        <ele>355.43</ele>
        <time>2020-08-16T12:10:43.000Z</time>
      </trkpt>
      <trkpt lat="45.18596" lon="5.81573">
        <ele>356.4</ele>
        <time>2020-08-16T12:10:48.000Z</time>
      </trkpt>
      <trkpt lat="45.18603" lon="5.81595">
        <ele>363.67</ele>
        <time>2020-08-16T12:10:53.000Z</time>
      </trkpt>
      <trkpt lat="45.18606" lon="5.81619">
        <ele>366.09</ele>
        <time>2020-08-16T12:10:58.000Z</time>
      </trkpt>
      <trkpt lat="45.1861" lon="5.81646">
        <ele>367.41</ele>
        <time>2020-08-16T12:11:03.000Z</time>
      </trkpt>
      <trkpt lat="45.18613" lon="5.81671">
        <ele>370.31</ele>
        <time>2020-08-16T12:11:08.000Z</time>
      </trkpt>
      <trkpt lat="45.18615" lon="5.81696">
        <ele>369.31</ele>
        <time>2020-08-16T12:11:13.000Z</time>
      </trkpt>
      <trkpt lat="45.18616" lon="5.8172">
        <ele>366.88</ele>
        <time>2020-08-16T12:11:18.000Z</time>
      </trkpt>
      <trkpt lat="45.18618" lon="5.81743">
        <ele>367.22</ele>
        <time>2020-08-16T12:11:23.000Z</time>
      </trkpt>
      <trkpt lat="45.18619" lon="5.81768">
        <ele>369.86</ele>
        <time>2020-08-16T12:11:28.000Z</time>
      </trkpt>
      <trkpt lat="45.18612" lon="5.81786">
        <ele>367.98</ele>
        <time>2020-08-16T12:11:33.000Z</time>
      </trkpt>
      <trkpt lat="45.18599" lon="5.81797">
        <ele>369.27</ele>
        <time>2020-08-16T12:11:38.000Z</time>
      </trkpt>
      <trkpt lat="45.1859" lon="5.81811">
        <ele>368.81</ele>
        <time>2020-08-16T12:11:43.000Z</time>
      </trkpt>
      <trkpt lat="45.18592" lon="5.81833">
        <ele>369.44</ele>
        <time>2020-08-16T12:11:48.000Z</time>
      </trkpt>
      <trkpt lat="45.18606" lon="5.81848">
        <ele>369.65</ele>
        <time>2020-08-16T12:11:53.000Z</time>
      </trkpt>
      <trkpt lat="45.18621" lon="5.81856">
        <ele>373.27</ele>
        <time>2020-08-16T12:11:58.000Z</time>
      </trkpt>
      <trkpt lat="45.18637" lon="5.8187">
        <ele>373.82</ele>
        <time>2020-08-16T12:12:03.000Z</time>
      </trkpt>
      <trkpt lat="45.18646" lon="5.81892">
        <ele>372.51</ele>
        <time>2020-08-16T12:12:08.000Z</time>
      </trkpt>
      <trkpt lat="45.18651" lon="5.81916">
        <ele>375.4</ele>
        <time>2020-08-16T12:12:13.000Z</time>
      </trkpt>
      <trkpt lat="45.18659" lon="5.8194">
        <ele>380.23</ele>
        <time>2020-08-16T12:12:18.000Z</time>
      </trkpt>
      <trkpt lat="45.18666" lon="5.81963">
        <ele>386.1</ele>
        <time>2020-08-16T12:12:23.000Z</time>
      </trkpt>
      <trkpt lat="45.1867" lon="5.81989">
        <ele>388.47</ele>
        <time>2020-08-16T12:12:28.000Z</time>
      </trkpt>
      <trkpt lat="45.18671" lon="5.82016">
        <ele>394.14</ele>
        <time>2020-08-16T12:12:33.000Z</time>
      </trkpt>
      <trkpt lat="45.18664" lon="5.82043">
        <ele>394.2</ele>
        <time>2020-08-16T12:12:38.000Z</time>
      </trkpt>
      <trkpt lat="45.18654" lon="5.82067">
        <ele>392.12</ele>
        <time>2020-08-16T12:12:43.000Z</time>
      </trkpt>
      <trkpt lat="45.18639" lon="5.82074">
        <ele>391.94</ele>
        <time>2020-08-16T12:12:48.000Z</time>
      </trkpt>
      <trkpt lat="45.18632" lon="5.82046">
        <ele>395.13</ele>
        <time>2020-08-16T12:12:53.000Z</time>
      </trkpt>
      <trkpt lat="45.18625" lon="5.82022">
        <ele>395.85</ele>
        <time>2020-08-16T12:12:58.000Z</time>
      </trkpt>
      <trkpt lat="45.18613" lon="5.82006">
        <ele>400.29</ele>
        <time>2020-08-16T12:13:03.000Z</time>
      </trkpt>
      <trkpt lat="45.186" lon="5.8199">
        <ele>402.65</ele>
        <time>2020-08-16T12:13:08.000Z</time>
      </trkpt>
      <trkpt lat="45.18588" lon="5.81974">
        <ele>404.27</ele>
        <time>2020-08-16T12:13:13.000Z</time>
      </trkpt>
      <trkpt lat="45.18575" lon="5.81957">
        <ele>406.19</ele>
        <time>2020-08-16T12:13:18.000Z</time>
      </trkpt>
      <trkpt lat="45.18561" lon="5.8194">
        <ele>406.24</ele>
        <time>2020-08-16T12:13:23.000Z</time>
      </trkpt>
      <trkpt lat="45.18549" lon="5.8192">
        <ele>407.37</ele>
        <time>2020-08-16T12:13:28.000Z</time>
      </trkpt>
      <trkpt lat="45.18537" lon="5.81902">
        <ele>412.33</ele>
        <time>2020-08-16T12:13:33.000Z</time>
      </trkpt>
      <trkpt lat="45.18525" lon="5.81884">
        <ele>413.34</ele>
        <time>2020-08-16T12:13:38.000Z</time>
      </trkpt>
      <trkpt lat="45.18514" lon="5.81867">
        <ele>416.04</ele>
        <time>2020-08-16T12:13:43.000Z</time>
      </trkpt>
      <trkpt lat="45.18504" lon="5.81847">
        <ele>415.35</ele>
        <time>2020-08-16T12:13:48.000Z</time>
      </trkpt>
      <trkpt lat="45.18491" lon="5.81826">
        <ele>416.59</ele>
        <time>2020-08-16T12:13:53.000Z</time>
      </trkpt>
      <trkpt lat="45.18475" lon="5.81832">
        <ele>417.38</ele>
        <time>2020-08-16T12:13:58.000Z</time>
      </trkpt>
      <trkpt lat="45.18481" lon="5.8186">
        <ele>425.44</ele>
        <time>2020-08-16T12:14:03.000Z</time>
      </trkpt>
      <trkpt lat="45.18493" lon="5.81881">
        <ele>424.86</ele>
        <time>2020-08-16T12:14:08.000Z</time>
      </trkpt>
      <trkpt lat="45.18501" lon="5.81901">
        <ele>422.44</ele>
        <time>2020-08-16T12:14:13.000Z</time>
      </trkpt>
      <trkpt lat="45.18509" lon="5.81924">
        <ele>427.35</ele>
        <time>2020-08-16T12:14:18.000Z</time>
      </trkpt>
      <trkpt lat="45.1852" lon="5.81946">
        <ele>431.57</ele>
        <time>2020-08-16T12:14:23.000Z</time>
      </trkpt>
      <trkpt lat="45.18532" lon="5.81967">
        <ele>432.69</ele>
        <time>2020-08-16T12:14:28.000Z</time>
      </trkpt>
      <trkpt lat="45.18536" lon="5.81987">
        <ele>430.57</ele>
        <time>2020-08-16T12:14:33.000Z</time>
      </trkpt>
      <trkpt lat="45.18544" lon="5.82009">
        <ele>430.65</ele>
        <time>2020-08-16T12:14:38.000Z</time>
      </trkpt>
      <trkpt lat="45.18554" lon="5.82028">
        <ele>430.95</ele>
        <time>2020-08-16T12:14:43.000Z</time>
      </trkpt>
      <trkpt lat="45.18558" lon="5.82052">
        <ele>433.1</ele>
        <time>2020-08-16T12:14:48.000Z</time>
      </trkpt>
      <trkpt lat="45.18547" lon="5.82071">
        <ele>434</ele>
        <time>2020-08-16T12:14:53.000Z</time>
      </trkpt>
      <trkpt lat="45.18537" lon="5.82091">
        <ele>436.27</ele>
        <time>2020-08-16T12:14:58.000Z</time>
      </trkpt>
      <trkpt lat="45.18537" lon="5.82115">
        <ele>437.49</ele>
        <time>2020-08-16T12:15:03.000Z</time>
      </trkpt>
      <trkpt lat="45.18541" lon="5.82136">
        <ele>439.7</ele>
        <time>2020-08-16T12:15:08.000Z</time>
      </trkpt>
      <trkpt lat="45.18547" lon="5.82159">
        <ele>438.98</ele>
        <time>2020-08-16T12:15:13.000Z</time>
      </trkpt>
      <trkpt lat="45.18541" lon="5.82185">
        <ele>439.66</ele>
        <time>2020-08-16T12:15:18.000Z</time>
      </trkpt>
      <trkpt lat="45.18534" lon="5.82204">
        <ele>439.1</ele>
        <time>2020-08-16T12:15:23.000Z</time>
      </trkpt>
      <trkpt lat="45.18531" lon="5.82223">
        <ele>438.34</ele>
        <time>2020-08-16T12:15:28.000Z</time>
      </trkpt>
      <trkpt lat="45.18533" lon="5.82248">
        <ele>442.99</ele>
        <time>2020-08-16T12:15:33.000Z</time>
      </trkpt>
      <trkpt lat="45.18533" lon="5.82273">
        <ele>443.67</ele>
        <time>2020-08-16T12:15:38.000Z</time>
      </trkpt>
      <trkpt lat="45.1853" lon="5.823">
        <ele>446.8</ele>
        <time>2020-08-16T12:15:43.000Z</time>
      </trkpt>
      <trkpt lat="45.18524" lon="5.8232">
        <ele>447.07</ele>
        <time>2020-08-16T12:15:48.000Z</time>
      </trkpt>
      <trkpt lat="45.18522" lon="5.82337">
        <ele>450.37</ele>
        <time>2020-08-16T12:15:53.000Z</time>
      </trkpt>
      <trkpt lat="45.18514" lon="5.8235">
        <ele>456.69</ele>
        <time>2020-08-16T12:17:52.000Z</time>
      </trkpt>
      <trkpt lat="45.18497" lon="5.82367">
        <ele>458.11</ele>
        <time>2020-08-16T12:17:57.000Z</time>
      </trkpt>
      <trkpt lat="45.18473" lon="5.82397">
        <ele>457.24</ele>
        <time>2020-08-16T12:18:02.000Z</time>
      </trkpt>
      <trkpt lat="45.18451" lon="5.82412">
        <ele>455.32</ele>
        <time>2020-08-16T12:18:07.000Z</time>
      </trkpt>
      <trkpt lat="45.18447" lon="5.82458">
        <ele>456.93</ele>
        <time>2020-08-16T12:18:12.000Z</time>
      </trkpt>
      <trkpt lat="45.18437" lon="5.82507">
        <ele>460.48</ele>
        <time>2020-08-16T12:18:17.000Z</time>
      </trkpt>
      <trkpt lat="45.18422" lon="5.82552">
        <ele>459.79</ele>
        <time>2020-08-16T12:18:22.000Z</time>
      </trkpt>
      <trkpt lat="45.18403" lon="5.82591">
        <ele>460.02</ele>
        <time>2020-08-16T12:18:27.000Z</time>
      </trkpt>
      <trkpt lat="45.18409" lon="5.82635">
        <ele>457.95</ele>
        <time>2020-08-16T12:18:32.000Z</time>
      </trkpt>
      <trkpt lat="45.18431" lon="5.82628">
        <ele>454.45</ele>
        <time>2020-08-16T12:18:37.000Z</time>
      </trkpt>
      <trkpt lat="45.18445" lon="5.82618">
        <ele>454.49</ele>
        <time>2020-08-16T12:18:42.000Z</time>
      </trkpt>
      <trkpt lat="45.18461" lon="5.82603">
        <ele>453.1</ele>
        <time>2020-08-16T12:18:47.000Z</time>
      </trkpt>
      <trkpt lat="45.18472" lon="5.8259">
        <ele>449.84</ele>
        <time>2020-08-16T12:18:52.000Z</time>
      </trkpt>
      <trkpt lat="45.18485" lon="5.82579">
        <ele>446.64</ele>
        <time>2020-08-16T12:18:57.000Z</time>
      </trkpt>
      <trkpt lat="45.18499" lon="5.82566">
        <ele>444.82</ele>
        <time>2020-08-16T12:19:02.000Z</time>
      </trkpt>
      <trkpt lat="45.18514" lon="5.8256">
        <ele>443.35</ele>
        <time>2020-08-16T12:19:07.000Z</time>
      </trkpt>
      <trkpt lat="45.18528" lon="5.8255">
        <ele>447.91</ele>
        <time>2020-08-16T12:19:12.000Z</time>
      </trkpt>
      <trkpt lat="45.18553" lon="5.82547">
        <ele>457.91</ele>
        <time>2020-08-16T12:19:20.000Z</time>
      </trkpt>
      <trkpt lat="45.18565" lon="5.82561">
        <ele>457.5</ele>
        <time>2020-08-16T12:19:25.000Z</time>
      </trkpt>
      <trkpt lat="45.18581" lon="5.82572">
        <ele>460.29</ele>
        <time>2020-08-16T12:19:30.000Z</time>
      </trkpt>
      <trkpt lat="45.18594" lon="5.82584">
        <ele>460.76</ele>
        <time>2020-08-16T12:19:35.000Z</time>
      </trkpt>
      <trkpt lat="45.18611" lon="5.82597">
        <ele>460.38</ele>
        <time>2020-08-16T12:19:40.000Z</time>
      </trkpt>
      <trkpt lat="45.18625" lon="5.82615">
        <ele>461.34</ele>
        <time>2020-08-16T12:19:45.000Z</time>
      </trkpt>
      <trkpt lat="45.18636" lon="5.82636">
        <ele>461.76</ele>
        <time>2020-08-16T12:19:50.000Z</time>
      </trkpt>
      <trkpt lat="45.18648" lon="5.82655">
        <ele>462.16</ele>
        <time>2020-08-16T12:19:55.000Z</time>
      </trkpt>
      <trkpt lat="45.18662" lon="5.82667">
        <ele>461.41</ele>
        <time>2020-08-16T12:20:00.000Z</time>
      </trkpt>
      <trkpt lat="45.18678" lon="5.82672">
        <ele>462.75</ele>
        <time>2020-08-16T12:20:05.000Z</time>
      </trkpt>
      <trkpt lat="45.18695" lon="5.82674">
        <ele>463.49</ele>
        <time>2020-08-16T12:20:10.000Z</time>
      </trkpt>
      <trkpt lat="45.18712" lon="5.82674">
        <ele>469.63</ele>
        <time>2020-08-16T12:20:15.000Z</time>
      </trkpt>
      <trkpt lat="45.18729" lon="5.82672">
        <ele>475.08</ele>
        <time>2020-08-16T12:20:20.000Z</time>
      </trkpt>
      <trkpt lat="45.18748" lon="5.82666">
        <ele>481.77</ele>
        <time>2020-08-16T12:20:25.000Z</time>
      </trkpt>
      <trkpt lat="45.18768" lon="5.82663">
        <ele>480.22</ele>
        <time>2020-08-16T12:20:30.000Z</time>
      </trkpt>
      <trkpt lat="45.18787" lon="5.82672">
        <ele>478.3</ele>
        <time>2020-08-16T12:20:35.000Z</time>
      </trkpt>
      <trkpt lat="45.18802" lon="5.82696">
        <ele>476.04</ele>
        <time>2020-08-16T12:20:40.000Z</time>
      </trkpt>
      <trkpt lat="45.18816" lon="5.82716">
        <ele>476.23</ele>
        <time>2020-08-16T12:20:45.000Z</time>
      </trkpt>
      <trkpt lat="45.18827" lon="5.82734">
        <ele>478.73</ele>
        <time>2020-08-16T12:20:50.000Z</time>
      </trkpt>
      <trkpt lat="45.18837" lon="5.82752">
        <ele>479.11</ele>
        <time>2020-08-16T12:20:55.000Z</time>
      </trkpt>
      <trkpt lat="45.18845" lon="5.82775">
        <ele>480.83</ele>
        <time>2020-08-16T12:21:00.000Z</time>
      </trkpt>
      <trkpt lat="45.18853" lon="5.828">
        <ele>481.29</ele>
        <time>2020-08-16T12:21:05.000Z</time>
      </trkpt>
      <trkpt lat="45.18862" lon="5.82826">
        <ele>483.03</ele>
        <time>2020-08-16T12:21:10.000Z</time>
      </trkpt>
      <trkpt lat="45.18871" lon="5.82852">
        <ele>485.89</ele>
        <time>2020-08-16T12:21:15.000Z</time>
      </trkpt>
      <trkpt lat="45.18878" lon="5.82877">
        <ele>485.45</ele>
        <time>2020-08-16T12:21:20.000Z</time>
      </trkpt>
      <trkpt lat="45.18885" lon="5.82902">
        <ele>488.98</ele>
        <time>2020-08-16T12:21:25.000Z</time>
      </trkpt>
      <trkpt lat="45.18893" lon="5.82923">
        <ele>491.41</ele>
        <time>2020-08-16T12:21:30.000Z</time>
      </trkpt>
      <trkpt lat="45.18899" lon="5.82949">
        <ele>493.97</ele>
        <time>2020-08-16T12:21:35.000Z</time>
      </trkpt>
      <trkpt lat="45.18896" lon="5.82975">
        <ele>491.09</ele>
        <time>2020-08-16T12:21:40.000Z</time>
      </trkpt>
      <trkpt lat="45.18889" lon="5.83">
        <ele>492.31</ele>
        <time>2020-08-16T12:21:45.000Z</time>
      </trkpt>
      <trkpt lat="45.18884" lon="5.83028">
        <ele>492.82</ele>
        <time>2020-08-16T12:21:50.000Z</time>
      </trkpt>
      <trkpt lat="45.18879" lon="5.83049">
        <ele>497.1</ele>
        <time>2020-08-16T12:21:55.000Z</time>
      </trkpt>
      <trkpt lat="45.18877" lon="5.83072">
        <ele>496.5</ele>
        <time>2020-08-16T12:22:00.000Z</time>
      </trkpt>
      <trkpt lat="45.1888" lon="5.831">
        <ele>502.4</ele>
        <time>2020-08-16T12:22:05.000Z</time>
      </trkpt>
      <trkpt lat="45.18884" lon="5.83129">
        <ele>504.77</ele>
        <time>2020-08-16T12:22:10.000Z</time>
      </trkpt>
      <trkpt lat="45.18882" lon="5.83157">
        <ele>506.17</ele>
        <time>2020-08-16T12:22:15.000Z</time>
      </trkpt>
      <trkpt lat="45.18871" lon="5.8318">
        <ele>507.02</ele>
        <time>2020-08-16T12:22:20.000Z</time>
      </trkpt>
      <trkpt lat="45.18856" lon="5.83199">
        <ele>503.69</ele>
        <time>2020-08-16T12:22:25.000Z</time>
      </trkpt>
      <trkpt lat="45.18845" lon="5.83222">
        <ele>503.71</ele>
        <time>2020-08-16T12:22:30.000Z</time>
      </trkpt>
      <trkpt lat="45.18838" lon="5.83245">
        <ele>504.39</ele>
        <time>2020-08-16T12:22:35.000Z</time>
      </trkpt>
      <trkpt lat="45.18825" lon="5.83262">
        <ele>505.78</ele>
        <time>2020-08-16T12:22:40.000Z</time>
      </trkpt>
      <trkpt lat="45.18817" lon="5.83283">
        <ele>504.35</ele>
        <time>2020-08-16T12:22:45.000Z</time>
      </trkpt>
      <trkpt lat="45.18813" lon="5.83312">
        <ele>506.05</ele>
        <time>2020-08-16T12:22:50.000Z</time>
      </trkpt>
      <trkpt lat="45.1882" lon="5.8334">
        <ele>511.21</ele>
        <time>2020-08-16T12:22:55.000Z</time>
      </trkpt>
      <trkpt lat="45.18821" lon="5.83364">
        <ele>514.91</ele>
        <time>2020-08-16T12:23:00.000Z</time>
      </trkpt>
      <trkpt lat="45.18813" lon="5.83386">
        <ele>519.29</ele>
        <time>2020-08-16T12:23:05.000Z</time>
      </trkpt>
      <trkpt lat="45.18803" lon="5.83402">
        <ele>518.4</ele>
        <time>2020-08-16T12:23:10.000Z</time>
      </trkpt>
      <trkpt lat="45.18791" lon="5.83419">
        <ele>521.18</ele>
        <time>2020-08-16T12:23:15.000Z</time>
      </trkpt>
      <trkpt lat="45.18774" lon="5.8343">
        <ele>523.92</ele>
        <time>2020-08-16T12:23:20.000Z</time>
      </trkpt>
      <trkpt lat="45.18757" lon="5.83439">
        <ele>527.61</ele>
        <time>2020-08-16T12:23:25.000Z</time>
      </trkpt>
      <trkpt lat="45.18743" lon="5.83452">
        <ele>527.18</ele>
        <time>2020-08-16T12:23:30.000Z</time>
      </trkpt>
      <trkpt lat="45.18731" lon="5.83466">
        <ele>525.72</ele>
        <time>2020-08-16T12:23:35.000Z</time>
      </trkpt>
      <trkpt lat="45.18731" lon="5.83494">
        <ele>528.04</ele>
        <time>2020-08-16T12:23:40.000Z</time>
      </trkpt>
      <trkpt lat="45.18737" lon="5.83523">
        <ele>530.86</ele>
        <time>2020-08-16T12:23:45.000Z</time>
      </trkpt>
      <trkpt lat="45.1873" lon="5.83545">
        <ele>526.71</ele>
        <time>2020-08-16T12:23:50.000Z</time>
      </trkpt>
      <trkpt lat="45.18712" lon="5.83564">
        <ele>525.68</ele>
        <time>2020-08-16T12:23:55.000Z</time>
      </trkpt>
      <trkpt lat="45.18699" lon="5.83586">
        <ele>522.06</ele>
        <time>2020-08-16T12:24:00.000Z</time>
      </trkpt>
      <trkpt lat="45.18698" lon="5.83621">
        <ele>522.95</ele>
        <time>2020-08-16T12:24:05.000Z</time>
      </trkpt>
      <trkpt lat="45.18713" lon="5.83633">
        <ele>529.62</ele>
        <time>2020-08-16T12:24:10.000Z</time>
      </trkpt>
      <trkpt lat="45.18729" lon="5.83633">
        <ele>530.66</ele>
        <time>2020-08-16T12:24:15.000Z</time>
      </trkpt>
      <trkpt lat="45.18752" lon="5.83626">
        <ele>529.92</ele>
        <time>2020-08-16T12:24:20.000Z</time>
      </trkpt>
      <trkpt lat="45.18769" lon="5.83634">
        <ele>531.29</ele>
        <time>2020-08-16T12:24:25.000Z</time>
      </trkpt>
      <trkpt lat="45.18789" lon="5.83659">
        <ele>530.89</ele>
        <time>2020-08-16T12:24:30.000Z</time>
      </trkpt>
      <trkpt lat="45.18812" lon="5.83672">
        <ele>531.21</ele>
        <time>2020-08-16T12:24:35.000Z</time>
      </trkpt>
      <trkpt lat="45.18844" lon="5.83671">
        <ele>529.33</ele>
        <time>2020-08-16T12:24:41.000Z</time>
      </trkpt>
      <trkpt lat="45.18869" lon="5.8367">
        <ele>527.75</ele>
        <time>2020-08-16T12:24:46.000Z</time>
      </trkpt>
      <trkpt lat="45.18895" lon="5.83666">
        <ele>528.55</ele>
        <time>2020-08-16T12:24:51.000Z</time>
      </trkpt>
      <trkpt lat="45.18924" lon="5.83674">
        <ele>532.71</ele>
        <time>2020-08-16T12:24:56.000Z</time>
      </trkpt>
      <trkpt lat="45.18937" lon="5.83708">
        <ele>537.41</ele>
        <time>2020-08-16T12:25:01.000Z</time>
      </trkpt>
      <trkpt lat="45.18947" lon="5.83743">
        <ele>540.31</ele>
        <time>2020-08-16T12:25:06.000Z</time>
      </trkpt>
      <trkpt lat="45.18966" lon="5.83775">
        <ele>541.62</ele>
        <time>2020-08-16T12:25:11.000Z</time>
      </trkpt>
      <trkpt lat="45.18984" lon="5.83804">
        <ele>541.77</ele>
        <time>2020-08-16T12:25:16.000Z</time>
      </trkpt>
      <trkpt lat="45.19003" lon="5.83832">
        <ele>542.85</ele>
        <time>2020-08-16T12:25:21.000Z</time>
      </trkpt>
      <trkpt lat="45.19008" lon="5.83851">
        <ele>546.74</ele>
        <time>2020-08-16T12:25:26.000Z</time>
      </trkpt>
      <trkpt lat="45.19013" lon="5.83874">
        <ele>550.73</ele>
        <time>2020-08-16T12:25:31.000Z</time>
      </trkpt>
      <trkpt lat="45.19016" lon="5.83894">
        <ele>553.19</ele>
        <time>2020-08-16T12:25:36.000Z</time>
      </trkpt>
      <trkpt lat="45.19019" lon="5.83918">
        <ele>555.14</ele>
        <time>2020-08-16T12:25:41.000Z</time>
      </trkpt>
      <trkpt lat="45.19024" lon="5.83942">
        <ele>555.54</ele>
        <time>2020-08-16T12:25:46.000Z</time>
      </trkpt>
      <trkpt lat="45.19027" lon="5.8397">
        <ele>557.06</ele>
        <time>2020-08-16T12:25:51.000Z</time>
      </trkpt>
      <trkpt lat="45.19028" lon="5.83997">
        <ele>557.09</ele>
        <time>2020-08-16T12:25:56.000Z</time>
      </trkpt>
      <trkpt lat="45.19029" lon="5.84023">
        <ele>559.65</ele>
        <time>2020-08-16T12:26:01.000Z</time>
      </trkpt>
      <trkpt lat="45.19031" lon="5.84052">
        <ele>563.08</ele>
        <time>2020-08-16T12:26:06.000Z</time>
      </trkpt>
      <trkpt lat="45.19027" lon="5.84076">
        <ele>564.71</ele>
        <time>2020-08-16T12:26:11.000Z</time>
      </trkpt>
      <trkpt lat="45.19014" lon="5.84102">
        <ele>562.35</ele>
        <time>2020-08-16T12:26:16.000Z</time>
      </trkpt>
      <trkpt lat="45.18989" lon="5.84119">
        <ele>563.24</ele>
        <time>2020-08-16T12:26:21.000Z</time>
      </trkpt>
      <trkpt lat="45.1896" lon="5.84135">
        <ele>566.37</ele>
        <time>2020-08-16T12:26:26.000Z</time>
      </trkpt>
      <trkpt lat="45.18932" lon="5.84147">
        <ele>564.63</ele>
        <time>2020-08-16T12:26:31.000Z</time>
      </trkpt>
      <trkpt lat="45.18917" lon="5.84182">
        <ele>566.93</ele>
        <time>2020-08-16T12:26:36.000Z</time>
      </trkpt>
      <trkpt lat="45.18911" lon="5.84232">
        <ele>569.06</ele>
        <time>2020-08-16T12:26:41.000Z</time>
      </trkpt>
      <trkpt lat="45.18908" lon="5.84276">
        <ele>568.15</ele>
        <time>2020-08-16T12:26:46.000Z</time>
      </trkpt>
      <trkpt lat="45.18903" lon="5.84317">
        <ele>568.29</ele>
        <time>2020-08-16T12:26:51.000Z</time>
      </trkpt>
      <trkpt lat="45.18895" lon="5.84351">
        <ele>569.56</ele>
        <time>2020-08-16T12:26:56.000Z</time>
      </trkpt>
      <trkpt lat="45.18888" lon="5.84377">
        <ele>567.81</ele>
        <time>2020-08-16T12:27:01.000Z</time>
      </trkpt>
      <trkpt lat="45.18892" lon="5.84405">
        <ele>568.68</ele>
        <time>2020-08-16T12:27:06.000Z</time>
      </trkpt>
      <trkpt lat="45.189" lon="5.84425">
        <ele>568.3</ele>
        <time>2020-08-16T12:27:11.000Z</time>
      </trkpt>
      <trkpt lat="45.18908" lon="5.84446">
        <ele>572.25</ele>
        <time>2020-08-16T12:27:16.000Z</time>
      </trkpt>
      <trkpt lat="45.1891" lon="5.8447">
        <ele>572.88</ele>
        <time>2020-08-16T12:27:21.000Z</time>
      </trkpt>
      <trkpt lat="45.18908" lon="5.84494">
        <ele>573.98</ele>
        <time>2020-08-16T12:27:26.000Z</time>
      </trkpt>
      <trkpt lat="45.18906" lon="5.84519">
        <ele>572.34</ele>
        <time>2020-08-16T12:27:31.000Z</time>
      </trkpt>
      <trkpt lat="45.18905" lon="5.84542">
        <ele>574.66</ele>
        <time>2020-08-16T12:27:36.000Z</time>
      </trkpt>
      <trkpt lat="45.18893" lon="5.84546">
        <ele>575.68</ele>
        <time>2020-08-16T12:27:41.000Z</time>
      </trkpt>
      <trkpt lat="45.18875" lon="5.8454">
        <ele>577.95</ele>
        <time>2020-08-16T12:27:46.000Z</time>
      </trkpt>
      <trkpt lat="45.18853" lon="5.84535">
        <ele>578.87</ele>
        <time>2020-08-16T12:27:51.000Z</time>
      </trkpt>
      <trkpt lat="45.18828" lon="5.84535">
        <ele>580.82</ele>
        <time>2020-08-16T12:27:56.000Z</time>
      </trkpt>
      <trkpt lat="45.18809" lon="5.84538">
        <ele>579.77</ele>
        <time>2020-08-16T12:28:01.000Z</time>
      </trkpt>
      <trkpt lat="45.18787" lon="5.84547">
        <ele>578.53</ele>
        <time>2020-08-16T12:28:06.000Z</time>
      </trkpt>
      <trkpt lat="45.1877" lon="5.84571">
        <ele>581.56</ele>
        <time>2020-08-16T12:28:11.000Z</time>
      </trkpt>
      <trkpt lat="45.18748" lon="5.84592">
        <ele>582.66</ele>
        <time>2020-08-16T12:28:16.000Z</time>
      </trkpt>
      <trkpt lat="45.18729" lon="5.84617">
        <ele>586.12</ele>
        <time>2020-08-16T12:28:21.000Z</time>
      </trkpt>
      <trkpt lat="45.18717" lon="5.84645">
        <ele>584.77</ele>
        <time>2020-08-16T12:28:26.000Z</time>
      </trkpt>
      <trkpt lat="45.18694" lon="5.84671">
        <ele>583.13</ele>
        <time>2020-08-16T12:28:31.000Z</time>
      </trkpt>
      <trkpt lat="45.18672" lon="5.84669">
        <ele>583.01</ele>
        <time>2020-08-16T12:28:36.000Z</time>
      </trkpt>
      <trkpt lat="45.18647" lon="5.84666">
        <ele>584.2</ele>
        <time>2020-08-16T12:28:41.000Z</time>
      </trkpt>
      <trkpt lat="45.18624" lon="5.84672">
        <ele>583.75</ele>
        <time>2020-08-16T12:28:46.000Z</time>
      </trkpt>
      <trkpt lat="45.18612" lon="5.84711">
        <ele>583.39</ele>
        <time>2020-08-16T12:28:51.000Z</time>
      </trkpt>
      <trkpt lat="45.18611" lon="5.84752">
        <ele>583.64</ele>
        <time>2020-08-16T12:28:56.000Z</time>
      </trkpt>
      <trkpt lat="45.18615" lon="5.84789">
        <ele>583.14</ele>
        <time>2020-08-16T12:29:01.000Z</time>
      </trkpt>
      <trkpt lat="45.18623" lon="5.84831">
        <ele>579.66</ele>
        <time>2020-08-16T12:29:06.000Z</time>
      </trkpt>
      <trkpt lat="45.18629" lon="5.84878">
        <ele>580.58</ele>
        <time>2020-08-16T12:29:11.000Z</time>
      </trkpt>
      <trkpt lat="45.18629" lon="5.84922">
        <ele>578.67</ele>
        <time>2020-08-16T12:29:16.000Z</time>
      </trkpt>
      <trkpt lat="45.18646" lon="5.84968">
        <ele>579.35</ele>
        <time>2020-08-16T12:29:21.000Z</time>
      </trkpt>
      <trkpt lat="45.18658" lon="5.85012">
        <ele>581.95</ele>
        <time>2020-08-16T12:29:26.000Z</time>
      </trkpt>
      <trkpt lat="45.18647" lon="5.85053">
        <ele>583.61</ele>
        <time>2020-08-16T12:29:31.000Z</time>
      </trkpt>
      <trkpt lat="45.18619" lon="5.85066">
        <ele>582.98</ele>
        <time>2020-08-16T12:29:36.000Z</time>
      </trkpt>
      <trkpt lat="45.18588" lon="5.85075">
        <ele>581.06</ele>
        <time>2020-08-16T12:29:41.000Z</time>
      </trkpt>
      <trkpt lat="45.18557" lon="5.85086">
        <ele>582.57</ele>
        <time>2020-08-16T12:29:46.000Z</time>
      </trkpt>
      <trkpt lat="45.1853" lon="5.8509">
        <ele>583.48</ele>
        <time>2020-08-16T12:29:51.000Z</time>
      </trkpt>
      <trkpt lat="45.18501" lon="5.85106">
        <ele>586.29</ele>
        <time>2020-08-16T12:29:56.000Z</time>
      </trkpt>
      <trkpt lat="45.18469" lon="5.85117">
        <ele>586.25</ele>
        <time>2020-08-16T12:30:01.000Z</time>
      </trkpt>
      <trkpt lat="45.18438" lon="5.85133">
        <ele>586.78</ele>
        <time>2020-08-16T12:30:06.000Z</time>
      </trkpt>
      <trkpt lat="45.18407" lon="5.85144">
        <ele>589.13</ele>
        <time>2020-08-16T12:30:11.000Z</time>
      </trkpt>
      <trkpt lat="45.18376" lon="5.85149">
        <ele>591.19</ele>
        <time>2020-08-16T12:30:16.000Z</time>
      </trkpt>
      <trkpt lat="45.18344" lon="5.85157">
        <ele>592.9</ele>
        <time>2020-08-16T12:30:21.000Z</time>
      </trkpt>
      <trkpt lat="45.18313" lon="5.85158">
        <ele>592.68</ele>
        <time>2020-08-16T12:30:26.000Z</time>
      </trkpt>
      <trkpt lat="45.18283" lon="5.85157">
        <ele>595.77</ele>
        <time>2020-08-16T12:30:31.000Z</time>
      </trkpt>
      <trkpt lat="45.18243" lon="5.85153">
        <ele>593.06</ele>
        <time>2020-08-16T12:30:36.000Z</time>
      </trkpt>
      <trkpt lat="45.18216" lon="5.85148">
        <ele>590.51</ele>
        <time>2020-08-16T12:30:41.000Z</time>
      </trkpt>
      <trkpt lat="45.18182" lon="5.85143">
        <ele>589.93</ele>
        <time>2020-08-16T12:30:46.000Z</time>
      </trkpt>
      <trkpt lat="45.18152" lon="5.85141">
        <ele>593.04</ele>
        <time>2020-08-16T12:30:51.000Z</time>
      </trkpt>
      <trkpt lat="45.1812" lon="5.85143">
        <ele>595.51</ele>
        <time>2020-08-16T12:30:56.000Z</time>
      </trkpt>
      <trkpt lat="45.18093" lon="5.85181">
        <ele>599.77</ele>
        <time>2020-08-16T12:31:01.000Z</time>
      </trkpt>
      <trkpt lat="45.18082" lon="5.85218">
        <ele>603.65</ele>
        <time>2020-08-16T12:31:06.000Z</time>
      </trkpt>
      <trkpt lat="45.18075" lon="5.85246">
        <ele>601.66</ele>
        <time>2020-08-16T12:31:11.000Z</time>
      </trkpt>
      <trkpt lat="45.18065" lon="5.85275">
        <ele>603.76</ele>
        <time>2020-08-16T12:31:16.000Z</time>
      </trkpt>
      <trkpt lat="45.18064" lon="5.85303">
        <ele>604.71</ele>
        <time>2020-08-16T12:31:21.000Z</time>
      </trkpt>
      <trkpt lat="45.18063" lon="5.85334">
        <ele>605.11</ele>
        <time>2020-08-16T12:31:26.000Z</time>
      </trkpt>
      <trkpt lat="45.1806" lon="5.85363">
        <ele>605.88</ele>
        <time>2020-08-16T12:31:31.000Z</time>
      </trkpt>
      <trkpt lat="45.18051" lon="5.85386">
        <ele>609.64</ele>
        <time>2020-08-16T12:31:36.000Z</time>
      </trkpt>
      <trkpt lat="45.18034" lon="5.85405">
        <ele>609.55</ele>
        <time>2020-08-16T12:31:41.000Z</time>
      </trkpt>
      <trkpt lat="45.18019" lon="5.85427">
        <ele>609.8</ele>
        <time>2020-08-16T12:31:46.000Z</time>
      </trkpt>
      <trkpt lat="45.17996" lon="5.85438">
        <ele>610.66</ele>
        <time>2020-08-16T12:31:51.000Z</time>
      </trkpt>
      <trkpt lat="45.17976" lon="5.85443">
        <ele>610.74</ele>
        <time>2020-08-16T12:31:56.000Z</time>
      </trkpt>
      <trkpt lat="45.17948" lon="5.85446">
        <ele>614.64</ele>
        <time>2020-08-16T12:32:01.000Z</time>
      </trkpt>
      <trkpt lat="45.17912" lon="5.85443">
        <ele>609.73</ele>
        <time>2020-08-16T12:32:06.000Z</time>
      </trkpt>
      <trkpt lat="45.17884" lon="5.85435">
        <ele>607.35</ele>
        <time>2020-08-16T12:32:11.000Z</time>
      </trkpt>
      <trkpt lat="45.17857" lon="5.8543">
        <ele>609.74</ele>
        <time>2020-08-16T12:32:16.000Z</time>
      </trkpt>
      <trkpt lat="45.17834" lon="5.85421">
        <ele>610.1</ele>
        <time>2020-08-16T12:32:21.000Z</time>
      </trkpt>
      <trkpt lat="45.17809" lon="5.85411">
        <ele>612.22</ele>
        <time>2020-08-16T12:32:26.000Z</time>
      </trkpt>
      <trkpt lat="45.17787" lon="5.85391">
        <ele>614.24</ele>
        <time>2020-08-16T12:32:31.000Z</time>
      </trkpt>
      <trkpt lat="45.17763" lon="5.85359">
        <ele>612.21</ele>
        <time>2020-08-16T12:32:36.000Z</time>
      </trkpt>
      <trkpt lat="45.17742" lon="5.85342">
        <ele>610.76</ele>
        <time>2020-08-16T12:32:41.000Z</time>
      </trkpt>
      <trkpt lat="45.17719" lon="5.85332">
        <ele>612.56</ele>
        <time>2020-08-16T12:32:46.000Z</time>
      </trkpt>
      <trkpt lat="45.1769" lon="5.85342">
        <ele>615.49</ele>
        <time>2020-08-16T12:32:51.000Z</time>
      </trkpt>
      <trkpt lat="45.17662" lon="5.85349">
        <ele>610.89</ele>
        <time>2020-08-16T12:32:56.000Z</time>
      </trkpt>
      <trkpt lat="45.1763" lon="5.85339">
        <ele>607.7</ele>
        <time>2020-08-16T12:33:01.000Z</time>
      </trkpt>
      <trkpt lat="45.1761" lon="5.85365">
        <ele>610.23</ele>
        <time>2020-08-16T12:33:06.000Z</time>
      </trkpt>
      <trkpt lat="45.17611" lon="5.85408">
        <ele>610.53</ele>
        <time>2020-08-16T12:33:11.000Z</time>
      </trkpt>
      <trkpt lat="45.1761" lon="5.85456">
        <ele>606.55</ele>
        <time>2020-08-16T12:33:16.000Z</time>
      </trkpt>
      <trkpt lat="45.176" lon="5.85495">
        <ele>604.71</ele>
        <time>2020-08-16T12:33:21.000Z</time>
      </trkpt>
      <trkpt lat="45.17583" lon="5.85527">
        <ele>603.34</ele>
        <time>2020-08-16T12:33:26.000Z</time>
      </trkpt>
      <trkpt lat="45.17557" lon="5.85535">
        <ele>606.88</ele>
        <time>2020-08-16T12:33:31.000Z</time>
      </trkpt>
      <trkpt lat="45.17517" lon="5.85545">
        <ele>607.47</ele>
        <time>2020-08-16T12:33:36.000Z</time>
      </trkpt>
      <trkpt lat="45.17492" lon="5.85552">
        <ele>611.87</ele>
        <time>2020-08-16T12:33:41.000Z</time>
      </trkpt>
      <trkpt lat="45.17462" lon="5.85551">
        <ele>608.46</ele>
        <time>2020-08-16T12:33:46.000Z</time>
      </trkpt>
      <trkpt lat="45.17449" lon="5.85596">
        <ele>613.01</ele>
        <time>2020-08-16T12:33:51.000Z</time>
      </trkpt>
      <trkpt lat="45.17441" lon="5.85639">
        <ele>613.98</ele>
        <time>2020-08-16T12:33:56.000Z</time>
      </trkpt>
      <trkpt lat="45.17449" lon="5.85672">
        <ele>612.53</ele>
        <time>2020-08-16T12:34:01.000Z</time>
      </trkpt>
      <trkpt lat="45.17455" lon="5.857">
        <ele>613.28</ele>
        <time>2020-08-16T12:34:06.000Z</time>
      </trkpt>
      <trkpt lat="45.17465" lon="5.85729">
        <ele>612.67</ele>
        <time>2020-08-16T12:34:11.000Z</time>
      </trkpt>
      <trkpt lat="45.17476" lon="5.85758">
        <ele>615.86</ele>
        <time>2020-08-16T12:34:16.000Z</time>
      </trkpt>
      <trkpt lat="45.17488" lon="5.85791">
        <ele>615.34</ele>
        <time>2020-08-16T12:34:21.000Z</time>
      </trkpt>
      <trkpt lat="45.17495" lon="5.85824">
        <ele>612.25</ele>
        <time>2020-08-16T12:34:26.000Z</time>
      </trkpt>
      <trkpt lat="45.17501" lon="5.85854">
        <ele>612.08</ele>
        <time>2020-08-16T12:34:31.000Z</time>
      </trkpt>
      <trkpt lat="45.17513" lon="5.85883">
        <ele>611.67</ele>
        <time>2020-08-16T12:34:36.000Z</time>
      </trkpt>
      <trkpt lat="45.17532" lon="5.85921">
        <ele>609.35</ele>
        <time>2020-08-16T12:34:41.000Z</time>
      </trkpt>
      <trkpt lat="45.17558" lon="5.85964">
        <ele>612.3</ele>
        <time>2020-08-16T12:34:46.000Z</time>
      </trkpt>
      <trkpt lat="45.17579" lon="5.85982">
        <ele>611.52</ele>
        <time>2020-08-16T12:34:51.000Z</time>
      </trkpt>
      <trkpt lat="45.17593" lon="5.85996">
        <ele>612.93</ele>
        <time>2020-08-16T12:34:56.000Z</time>
      </trkpt>
      <trkpt lat="45.17604" lon="5.86012">
        <ele>614.05</ele>
        <time>2020-08-16T12:35:01.000Z</time>
      </trkpt>
      <trkpt lat="45.17612" lon="5.86028">
        <ele>617.15</ele>
        <time>2020-08-16T12:35:06.000Z</time>
      </trkpt>
      <trkpt lat="45.17618" lon="5.86048">
        <ele>616.08</ele>
        <time>2020-08-16T12:35:11.000Z</time>
      </trkpt>
      <trkpt lat="45.17625" lon="5.86066">
        <ele>617.06</ele>
        <time>2020-08-16T12:35:16.000Z</time>
      </trkpt>
      <trkpt lat="45.17633" lon="5.86085">
        <ele>617.4</ele>
        <time>2020-08-16T12:35:21.000Z</time>
      </trkpt>
      <trkpt lat="45.17637" lon="5.861">
        <ele>621.44</ele>
        <time>2020-08-16T12:37:55.000Z</time>
      </trkpt>
      <trkpt lat="45.1764" lon="5.86125">
        <ele>626.5</ele>
        <time>2020-08-16T12:38:00.000Z</time>
      </trkpt>
      <trkpt lat="45.17648" lon="5.86151">
        <ele>625.91</ele>
        <time>2020-08-16T12:38:05.000Z</time>
      </trkpt>
      <trkpt lat="45.17662" lon="5.86183">
        <ele>626.49</ele>
        <time>2020-08-16T12:38:10.000Z</time>
      </trkpt>
      <trkpt lat="45.17692" lon="5.8622">
        <ele>624.88</ele>
        <time>2020-08-16T12:38:15.000Z</time>
      </trkpt>
      <trkpt lat="45.17709" lon="5.86271">
        <ele>620.79</ele>
        <time>2020-08-16T12:38:20.000Z</time>
      </trkpt>
      <trkpt lat="45.1773" lon="5.86315">
        <ele>618.25</ele>
        <time>2020-08-16T12:38:25.000Z</time>
      </trkpt>
      <trkpt lat="45.17755" lon="5.86323">
        <ele>620.22</ele>
        <time>2020-08-16T12:38:30.000Z</time>
      </trkpt>
      <trkpt lat="45.17773" lon="5.86341">
        <ele>616.97</ele>
        <time>2020-08-16T12:38:35.000Z</time>
      </trkpt>
      <trkpt lat="45.17787" lon="5.86357">
        <ele>618.49</ele>
        <time>2020-08-16T12:38:40.000Z</time>
      </trkpt>
      <trkpt lat="45.17804" lon="5.86369">
        <ele>619.33</ele>
        <time>2020-08-16T12:38:45.000Z</time>
      </trkpt>
      <trkpt lat="45.17816" lon="5.86384">
        <ele>617.62</ele>
        <time>2020-08-16T12:38:50.000Z</time>
      </trkpt>
      <trkpt lat="45.17827" lon="5.86385">
        <ele>618.43</ele>
        <time>2020-08-16T12:38:55.000Z</time>
      </trkpt>
      <trkpt lat="45.17842" lon="5.86381">
        <ele>618.06</ele>
        <time>2020-08-16T12:39:00.000Z</time>
      </trkpt>
      <trkpt lat="45.17858" lon="5.86379">
        <ele>620.78</ele>
        <time>2020-08-16T12:39:05.000Z</time>
      </trkpt>
      <trkpt lat="45.17875" lon="5.86374">
        <ele>617.57</ele>
        <time>2020-08-16T12:39:10.000Z</time>
      </trkpt>
      <trkpt lat="45.17894" lon="5.86373">
        <ele>617.86</ele>
        <time>2020-08-16T12:39:15.000Z</time>
      </trkpt>
      <trkpt lat="45.17913" lon="5.86373">
        <ele>617.81</ele>
        <time>2020-08-16T12:39:20.000Z</time>
      </trkpt>
      <trkpt lat="45.17932" lon="5.86371">
        <ele>614.83</ele>
        <time>2020-08-16T12:39:25.000Z</time>
      </trkpt>
      <trkpt lat="45.17951" lon="5.86368">
        <ele>615.69</ele>
        <time>2020-08-16T12:39:30.000Z</time>
      </trkpt>
      <trkpt lat="45.17972" lon="5.86364">
        <ele>616.2</ele>
        <time>2020-08-16T12:39:35.000Z</time>
      </trkpt>
      <trkpt lat="45.18002" lon="5.86366">
        <ele>616.38</ele>
        <time>2020-08-16T12:39:40.000Z</time>
      </trkpt>
      <trkpt lat="45.18016" lon="5.86402">
        <ele>621.94</ele>
        <time>2020-08-16T12:39:45.000Z</time>
      </trkpt>
      <trkpt lat="45.18013" lon="5.86456">
        <ele>618.16</ele>
        <time>2020-08-16T12:39:50.000Z</time>
      </trkpt>
      <trkpt lat="45.18011" lon="5.86528">
        <ele>617.13</ele>
        <time>2020-08-16T12:39:55.000Z</time>
      </trkpt>
      <trkpt lat="45.18011" lon="5.86601">
        <ele>619.75</ele>
        <time>2020-08-16T12:40:00.000Z</time>
      </trkpt>
      <trkpt lat="45.18008" lon="5.86686">
        <ele>616.43</ele>
        <time>2020-08-16T12:40:05.000Z</time>
      </trkpt>
      <trkpt lat="45.1801" lon="5.86764">
        <ele>615.73</ele>
        <time>2020-08-16T12:40:10.000Z</time>
      </trkpt>
      <trkpt lat="45.18039" lon="5.86853">
        <ele>614.82</ele>
        <time>2020-08-16T12:40:15.000Z</time>
      </trkpt>
      <trkpt lat="45.18074" lon="5.86952">
        <ele>615.16</ele>
        <time>2020-08-16T12:40:20.000Z</time>
      </trkpt>
      <trkpt lat="45.18076" lon="5.8702">
        <ele>614.08</ele>
        <time>2020-08-16T12:40:25.000Z</time>
      </trkpt>
      <trkpt lat="45.18086" lon="5.87107">
        <ele>613.09</ele>
        <time>2020-08-16T12:40:30.000Z</time>
      </trkpt>
      <trkpt lat="45.18088" lon="5.87195">
        <ele>611.97</ele>
        <time>2020-08-16T12:40:35.000Z</time>
      </trkpt>
      <trkpt lat="45.18099" lon="5.87238">
        <ele>614.21</ele>
        <time>2020-08-16T12:40:40.000Z</time>
      </trkpt>
      <trkpt lat="45.18138" lon="5.87202">
        <ele>617.47</ele>
        <time>2020-08-16T12:40:45.000Z</time>
      </trkpt>
      <trkpt lat="45.18126" lon="5.87167">
        <ele>606.66</ele>
        <time>2020-08-16T12:40:50.000Z</time>
      </trkpt>
      <trkpt lat="45.18139" lon="5.87149">
        <ele>602.8</ele>
        <time>2020-08-16T12:40:55.000Z</time>
      </trkpt>
      <trkpt lat="45.18151" lon="5.87133">
        <ele>599.91</ele>
        <time>2020-08-16T12:41:00.000Z</time>
      </trkpt>
      <trkpt lat="45.18165" lon="5.87119">
        <ele>597.66</ele>
        <time>2020-08-16T12:41:05.000Z</time>
      </trkpt>
      <trkpt lat="45.1818" lon="5.87117">
        <ele>597.37</ele>
        <time>2020-08-16T12:41:10.000Z</time>
      </trkpt>
      <trkpt lat="45.18191" lon="5.87112">
        <ele>597.01</ele>
        <time>2020-08-16T12:41:15.000Z</time>
      </trkpt>
      <trkpt lat="45.18205" lon="5.87096">
        <ele>601.77</ele>
        <time>2020-08-16T12:41:20.000Z</time>
      </trkpt>
      <trkpt lat="45.18212" lon="5.87074">
        <ele>598.75</ele>
        <time>2020-08-16T12:41:25.000Z</time>
      </trkpt>
      <trkpt lat="45.18218" lon="5.87057">
        <ele>596.67</ele>
        <time>2020-08-16T12:41:30.000Z</time>
      </trkpt>
      <trkpt lat="45.18222" lon="5.87038">
        <ele>594.14</ele>
        <time>2020-08-16T12:41:35.000Z</time>
      </trkpt>
      <trkpt lat="45.1823" lon="5.87016">
        <ele>595.1</ele>
        <time>2020-08-16T12:41:40.000Z</time>
      </trkpt>
      <trkpt lat="45.18238" lon="5.86991">
        <ele>593.65</ele>
        <time>2020-08-16T12:41:45.000Z</time>
      </trkpt>
      <trkpt lat="45.18242" lon="5.86964">
        <ele>594.87</ele>
        <time>2020-08-16T12:41:50.000Z</time>
      </trkpt>
      <trkpt lat="45.18249" lon="5.86941">
        <ele>598.02</ele>
        <time>2020-08-16T12:41:55.000Z</time>
      </trkpt>
      <trkpt lat="45.18253" lon="5.86917">
        <ele>599.41</ele>
        <time>2020-08-16T12:42:00.000Z</time>
      </trkpt>
      <trkpt lat="45.18258" lon="5.86895">
        <ele>596.54</ele>
        <time>2020-08-16T12:42:05.000Z</time>
      </trkpt>
      <trkpt lat="45.18266" lon="5.86874">
        <ele>596.27</ele>
        <time>2020-08-16T12:42:10.000Z</time>
      </trkpt>
      <trkpt lat="45.18272" lon="5.86851">
        <ele>596.66</ele>
        <time>2020-08-16T12:42:15.000Z</time>
      </trkpt>
      <trkpt lat="45.18277" lon="5.86826">
        <ele>596.17</ele>
        <time>2020-08-16T12:42:20.000Z</time>
      </trkpt>
      <trkpt lat="45.18283" lon="5.868">
        <ele>596.31</ele>
        <time>2020-08-16T12:42:25.000Z</time>
      </trkpt>
      <trkpt lat="45.18288" lon="5.86776">
        <ele>596.37</ele>
        <time>2020-08-16T12:42:30.000Z</time>
      </trkpt>
      <trkpt lat="45.18292" lon="5.86755">
        <ele>596.45</ele>
        <time>2020-08-16T12:42:35.000Z</time>
      </trkpt>
      <trkpt lat="45.18296" lon="5.86729">
        <ele>604.13</ele>
        <time>2020-08-16T12:42:40.000Z</time>
      </trkpt>
      <trkpt lat="45.18305" lon="5.8671">
        <ele>602.16</ele>
        <time>2020-08-16T12:42:45.000Z</time>
      </trkpt>
      <trkpt lat="45.1832" lon="5.86696">
        <ele>602.89</ele>
        <time>2020-08-16T12:42:50.000Z</time>
      </trkpt>
      <trkpt lat="45.18335" lon="5.86681">
        <ele>603.1</ele>
        <time>2020-08-16T12:42:55.000Z</time>
      </trkpt>
      <trkpt lat="45.18347" lon="5.86664">
        <ele>606.38</ele>
        <time>2020-08-16T12:43:00.000Z</time>
      </trkpt>
      <trkpt lat="45.18358" lon="5.86644">
        <ele>611.49</ele>
        <time>2020-08-16T12:43:05.000Z</time>
      </trkpt>
      <trkpt lat="45.1837" lon="5.86627">
        <ele>614.3</ele>
        <time>2020-08-16T12:43:10.000Z</time>
      </trkpt>
      <trkpt lat="45.18381" lon="5.86611">
        <ele>617.23</ele>
        <time>2020-08-16T12:43:15.000Z</time>
      </trkpt>
      <trkpt lat="45.18394" lon="5.86594">
        <ele>621.73</ele>
        <time>2020-08-16T12:43:20.000Z</time>
      </trkpt>
      <trkpt lat="45.18411" lon="5.86594">
        <ele>622.89</ele>
        <time>2020-08-16T12:43:25.000Z</time>
      </trkpt>
      <trkpt lat="45.18428" lon="5.86607">
        <ele>627.41</ele>
        <time>2020-08-16T12:43:30.000Z</time>
      </trkpt>
      <trkpt lat="45.18442" lon="5.86622">
        <ele>628.52</ele>
        <time>2020-08-16T12:43:35.000Z</time>
      </trkpt>
      <trkpt lat="45.18458" lon="5.8664">
        <ele>629.34</ele>
        <time>2020-08-16T12:43:40.000Z</time>
      </trkpt>
      <trkpt lat="45.18476" lon="5.86658">
        <ele>631.72</ele>
        <time>2020-08-16T12:43:45.000Z</time>
      </trkpt>
      <trkpt lat="45.18492" lon="5.86683">
        <ele>631.72</ele>
        <time>2020-08-16T12:43:50.000Z</time>
      </trkpt>
      <trkpt lat="45.18503" lon="5.86708">
        <ele>630.97</ele>
        <time>2020-08-16T12:43:55.000Z</time>
      </trkpt>
      <trkpt lat="45.18501" lon="5.86721">
        <ele>633.37</ele>
        <time>2020-08-16T12:44:00.000Z</time>
      </trkpt>
      <trkpt lat="45.18489" lon="5.86705">
        <ele>632.96</ele>
        <time>2020-08-16T12:44:05.000Z</time>
      </trkpt>
      <trkpt lat="45.18475" lon="5.86705">
        <ele>635.23</ele>
        <time>2020-08-16T12:44:10.000Z</time>
      </trkpt>
      <trkpt lat="45.18484" lon="5.86732">
        <ele>638.83</ele>
        <time>2020-08-16T12:44:15.000Z</time>
      </trkpt>
      <trkpt lat="45.18479" lon="5.86757">
        <ele>636.14</ele>
        <time>2020-08-16T12:44:20.000Z</time>
      </trkpt>
      <trkpt lat="45.18461" lon="5.86769">
        <ele>637.98</ele>
        <time>2020-08-16T12:44:25.000Z</time>
      </trkpt>
      <trkpt lat="45.18445" lon="5.86783">
        <ele>639.9</ele>
        <time>2020-08-16T12:44:30.000Z</time>
      </trkpt>
      <trkpt lat="45.18437" lon="5.86802">
        <ele>639.53</ele>
        <time>2020-08-16T12:44:35.000Z</time>
      </trkpt>
      <trkpt lat="45.1843" lon="5.86822">
        <ele>638.39</ele>
        <time>2020-08-16T12:44:40.000Z</time>
      </trkpt>
      <trkpt lat="45.18423" lon="5.86847">
        <ele>639.23</ele>
        <time>2020-08-16T12:44:45.000Z</time>
      </trkpt>
      <trkpt lat="45.18417" lon="5.86868">
        <ele>641.57</ele>
        <time>2020-08-16T12:44:50.000Z</time>
      </trkpt>
      <trkpt lat="45.18412" lon="5.86889">
        <ele>641.08</ele>
        <time>2020-08-16T12:44:55.000Z</time>
      </trkpt>
      <trkpt lat="45.18405" lon="5.86908">
        <ele>643.37</ele>
        <time>2020-08-16T12:45:00.000Z</time>
      </trkpt>
      <trkpt lat="45.18396" lon="5.86926">
        <ele>643.82</ele>
        <time>2020-08-16T12:45:05.000Z</time>
      </trkpt>
      <trkpt lat="45.18389" lon="5.86947">
        <ele>646.52</ele>
        <time>2020-08-16T12:45:10.000Z</time>
      </trkpt>
      <trkpt lat="45.18383" lon="5.86971">
        <ele>649.12</ele>
        <time>2020-08-16T12:45:15.000Z</time>
      </trkpt>
      <trkpt lat="45.18377" lon="5.86993">
        <ele>651</ele>
        <time>2020-08-16T12:45:20.000Z</time>
      </trkpt>
      <trkpt lat="45.18371" lon="5.87013">
        <ele>651.41</ele>
        <time>2020-08-16T12:45:25.000Z</time>
      </trkpt>
      <trkpt lat="45.18369" lon="5.87034">
        <ele>651.22</ele>
        <time>2020-08-16T12:45:30.000Z</time>
      </trkpt>
      <trkpt lat="45.18369" lon="5.87057">
        <ele>650.66</ele>
        <time>2020-08-16T12:45:35.000Z</time>
      </trkpt>
      <trkpt lat="45.18364" lon="5.87086">
        <ele>652.01</ele>
        <time>2020-08-16T12:45:40.000Z</time>
      </trkpt>
      <trkpt lat="45.18362" lon="5.87111">
        <ele>655.4</ele>
        <time>2020-08-16T12:45:45.000Z</time>
      </trkpt>
      <trkpt lat="45.18359" lon="5.87131">
        <ele>659.6</ele>
        <time>2020-08-16T12:45:50.000Z</time>
      </trkpt>
      <trkpt lat="45.1836" lon="5.87158">
        <ele>660.22</ele>
        <time>2020-08-16T12:45:55.000Z</time>
      </trkpt>
      <trkpt lat="45.18361" lon="5.87182">
        <ele>664.19</ele>
        <time>2020-08-16T12:46:00.000Z</time>
      </trkpt>
      <trkpt lat="45.18378" lon="5.87191">
        <ele>663.36</ele>
        <time>2020-08-16T12:46:05.000Z</time>
      </trkpt>
      <trkpt lat="45.18396" lon="5.87202">
        <ele>666.87</ele>
        <time>2020-08-16T12:46:10.000Z</time>
      </trkpt>
      <trkpt lat="45.18406" lon="5.87219">
        <ele>670.7</ele>
        <time>2020-08-16T12:46:15.000Z</time>
      </trkpt>
      <trkpt lat="45.18405" lon="5.87246">
        <ele>671.91</ele>
        <time>2020-08-16T12:46:20.000Z</time>
      </trkpt>
      <trkpt lat="45.18396" lon="5.87269">
        <ele>673.13</ele>
        <time>2020-08-16T12:46:25.000Z</time>
      </trkpt>
      <trkpt lat="45.18389" lon="5.8729">
        <ele>675.96</ele>
        <time>2020-08-16T12:46:30.000Z</time>
      </trkpt>
      <trkpt lat="45.18392" lon="5.87313">
        <ele>676.75</ele>
        <time>2020-08-16T12:46:35.000Z</time>
      </trkpt>
      <trkpt lat="45.18398" lon="5.87333">
        <ele>679.12</ele>
        <time>2020-08-16T12:46:40.000Z</time>
      </trkpt>
      <trkpt lat="45.184" lon="5.87355">
        <ele>682.45</ele>
        <time>2020-08-16T12:46:45.000Z</time>
      </trkpt>
      <trkpt lat="45.18396" lon="5.87379">
        <ele>684.46</ele>
        <time>2020-08-16T12:46:50.000Z</time>
      </trkpt>
      <trkpt lat="45.18386" lon="5.87393">
        <ele>685.61</ele>
        <time>2020-08-16T12:46:55.000Z</time>
      </trkpt>
      <trkpt lat="45.18378" lon="5.87386">
        <ele>688.71</ele>
        <time>2020-08-16T12:47:08.000Z</time>
      </trkpt>
      <trkpt lat="45.18376" lon="5.87382">
        <ele>691.31</ele>
        <time>2020-08-16T12:57:56.000Z</time>
      </trkpt>
    </trkseg>
  </trk>
</gpx>